GFSSW_700_rhum_000.txt.gz
RH
25 26 28 23 21 30 32 36 46 49 47 48 43 40 43 36 26 22 20 25 24 26 28 24 16 16 27 28 43 50 62 47 43 42 31 33 30 35 48 47 43 46 48 43 39
34 27 29 26 24 26 35 37 50 49 51 58 53 54 91 74 45 30 63 42 38 36 40 49 43 35 24 26 48 56 58 44 43 43 38 37 42 47 48 51 48 51 48 44 45
20 53 30 30 26 27 34 35 45 48 62 66 63 62 95 84 74 43 62 53 54 51 48 58 54 53 47 36 35 52 48 46 47 41 41 40 38 42 46 52 50 52 54 56 52
20 54 38 31 28 28 36 34 36 45 67 74 69 66 67 88 75 55 62 62 69 86 76 69 65 55 54 51 44 44 38 44 49 50 50 45 42 37 40 42 50 54 56 57 56
47 24 92 31 29 32 32 38 30 40 65 69 71 72 68 66 71 65 70 64 57 55 59 63 65 63 56 48 47 56 44 45 48 50 49 50 47 42 37 38 42 52 56 55 56
97 60 77 82 27 31 34 38 33 31 49 66 74 73 71 63 72 67 65 67 69 66 61 58 54 59 57 58 60 56 46 49 50 51 52 50 44 52 30 36 40 49 63 62 58
99 86 55 87 75 30 36 38 42 28 36 61 73 65 57 62 66 63 57 56 58 58 59 58 60 55 50 48 55 52 54 53 52 38 41 39 34 32 31 34 37 42 60 64 63
96 98 67 77 90 46 39 43 46 37 26 48 72 70 60 64 61 61 58 54 56 55 53 52 54 56 55 52 65 87 87 60 47 47 55 60 48 47 46 35 32 36 43 52 60
99 100 90 79 88 90 53 52 50 48 29 32 52 67 56 58 59 56 52 52 58 56 54 51 47 48 48 49 50 65 82 86 85 90 73 71 65 47 48 44 35 31 32 38 44
73 99 98 83 95 99 96 67 60 56 37 26 31 53 55 55 57 60 57 54 52 58 58 53 53 53 64 60 62 56 88 90 88 90 77 75 89 67 60 58 44 37 40 36 38
8 89 99 91 86 100 94 98 68 52 47 33 38 45 36 47 52 55 52 54 54 53 51 51 56 61 50 53 64 70 85 99 91 88 92 81 77 69 76 54 53 34 37 44 44
3 25 98 98 93 99 100 81 87 60 44 38 36 34 34 34 42 51 50 47 50 53 58 64 56 54 64 69 92 100 99 94 84 85 78 78 72 69 68 56 45 43 32 41 47
0 62 97 99 97 99 97 99 74 66 55 44 40 40 40 41 42 37 37 50 62 65 68 65 60 68 63 78 86 96 100 98 74 58 56 82 60 52 37 46 44 36 31 32 42
36 4 92 98 99 96 99 94 79 79 58 47 39 39 36 40 42 38 44 62 80 77 76 76 68 78 84 76 87 81 71 67 74 78 92 62 73 52 47 37 34 33 37 31 41
90 15 49 98 98 99 89 92 82 77 86 51 56 48 49 47 66 50 63 79 88 84 84 74 81 76 82 81 81 90 79 78 91 89 94 90 92 68 45 37 27 31 31 26 32
83 42 48 98 98 99 98 99 98 72 86 70 68 81 71 68 96 90 73 89 100 100 100 97 97 99 92 80 86 92 90 87 92 100 96 86 83 56 49 36 31 28 30 40 26
84 71 64 98 98 98 98 99 86 81 64 72 84 86 100 95 99 99 84 99 93 99 97 93 82 98 97 88 92 96 96 96 99 98 87 65 75 56 47 44 49 35 26 53 40
77 66 88 98 96 99 98 97 91 70 62 70 74 89 100 100 100 99 97 99 99 100 97 96 93 77 67 80 80 78 86 86 88 92 84 58 69 57 50 46 52 29 25 45 49
70 82 85 96 98 98 98 99 71 60 61 59 78 100 100 97 94 100 100 99 100 100 98 96 95 79 72 66 94 97 97 68 77 67 89 67 55 46 40 31 25 27 25 27 37
87 76 93 100 98 98 98 87 78 66 53 58 59 70 82 90 95 100 92 66 88 86 100 99 99 83 79 84 99 97 94 98 97 96 93 66 61 60 39 46 57 43 21 22 31
91 94 95 96 98 98 98 96 78 66 52 73 76 84 99 98 99 100 76 59 62 67 79 97 99 90 93 88 84 94 98 97 90 92 92 86 50 36 30 46 52 52 41 22 26
100 69 95 97 98 97 97 96 77 66 59 94 98 84 86 95 90 98 79 64 69 68 85 98 100 100 85 70 74 70 68 74 85 81 84 73 59 37 61 58 54 63 33 31 23
98 93 96 98 97 98 93 79 79 74 71 67 69 74 84 100 98 89 84 68 80 85 82 89 96 96 94 93 94 98 85 91 79 87 74 76 50 40 50 48 68 68 57 42 19
98 98 98 98 98 80 82 82 79 80 81 82 84 80 94 99 98 86 89 85 79 75 92 95 97 94 87 91 96 97 94 94 100 97 82 77 67 49 32 49 73 69 70 55 45
98 99 97 98 96 86 75 82 83 91 90 97 89 95 99 99 93 98 85 76 94 95 96 98 96 93 94 97 98 97 97 96 98 86 91 67 72 44 65 71 87 74 71 54 45
93 98 89 90 96 90 79 78 88 93 99 98 93 92 98 99 90 88 90 96 100 90 97 98 98 98 98 97 97 98 91 97 97 86 91 81 70 39 81 90 97 84 61 53 48
98 99 96 92 97 91 75 79 80 93 99 99 98 100 98 96 98 96 97 100 89 100 99 99 98 98 91 97 100 98 95 93 89 94 96 92 41 65 94 94 86 60 55 52 50

GFSSW_700_rhum_003.txt.gz
RH
57 36 52 34 30 26 24 30 32 32 40 48 45 38 38 34 20 19 18 18 17 17 18 16 14 16 20 26 32 39 56 46 36 38 35 33 34 32 33 42 49 43 43 45 40
42 25 49 64 34 30 27 32 35 37 47 51 53 49 78 73 48 28 46 30 25 28 36 36 34 30 20 21 35 42 45 28 27 32 38 37 38 37 42 41 50 44 45 49 44
90 41 27 76 46 34 30 30 37 39 46 49 59 60 76 99 87 59 71 46 43 60 51 56 56 53 45 36 34 49 35 30 30 37 35 36 35 40 36 45 49 49 52 51 48
80 92 42 46 73 38 31 31 39 37 41 50 66 68 70 96 98 67 66 62 62 85 64 63 64 63 53 48 49 48 32 34 37 46 49 39 35 34 35 32 46 53 52 54 50
100 99 96 42 87 52 32 33 38 36 38 58 70 74 71 82 81 73 76 70 68 70 84 82 75 68 64 53 56 60 49 48 44 42 40 37 31 30 27 32 36 43 50 52 54
67 100 98 86 56 80 42 35 39 41 33 53 67 72 74 69 87 75 66 77 82 74 63 61 59 62 60 57 62 56 45 44 51 49 47 42 28 43 18 25 32 36 40 49 52
11 86 99 99 61 80 75 38 43 46 37 35 49 70 73 74 71 68 63 56 55 57 61 62 60 58 56 58 62 64 59 56 41 36 53 47 38 34 27 26 25 29 36 41 48
2 65 99 100 71 81 91 76 51 51 47 33 34 52 68 71 65 67 62 59 55 55 55 57 59 64 63 64 68 68 73 60 50 45 44 52 49 48 36 33 26 23 29 37 42
3 26 99 100 93 80 90 89 77 61 53 44 32 35 57 70 69 66 63 61 60 56 56 53 54 61 60 58 57 54 62 66 58 66 63 62 59 45 38 37 33 26 25 28 36
2 2 64 100 100 80 99 95 83 80 59 51 38 30 39 59 57 60 62 56 55 59 60 56 57 56 53 44 47 44 54 63 73 70 66 65 64 54 46 44 31 30 29 29 30
2 3 1 69 98 91 99 99 99 85 66 46 36 38 30 46 46 51 62 61 60 61 62 64 60 51 45 50 50 56 65 85 90 79 83 64 57 53 51 50 41 31 26 30 31
6 5 2 20 97 99 100 99 84 89 75 59 49 37 36 40 43 52 58 58 56 53 56 57 50 50 60 66 64 62 69 73 75 72 75 76 46 49 42 39 38 32 30 26 27
99 96 37 2 56 98 99 100 98 93 85 64 53 42 39 38 44 42 50 58 53 46 51 56 56 64 58 64 77 94 100 99 98 88 62 64 46 34 30 29 29 30 31 28 27
94 98 96 6 27 90 98 98 99 97 81 59 45 43 42 43 46 47 46 50 48 52 65 63 57 62 65 76 76 81 82 74 77 93 95 76 72 52 38 36 33 29 26 27 28
87 93 93 53 68 92 98 99 100 100 72 51 54 47 47 48 54 44 50 56 67 69 68 56 68 72 74 70 82 88 86 78 76 89 98 96 95 59 50 43 34 30 26 25 25
96 87 89 71 77 96 98 99 98 96 82 58 58 70 62 69 92 82 71 93 98 96 99 91 94 94 92 88 91 90 100 99 91 94 93 80 86 56 49 37 31 29 25 22 28
96 86 80 82 74 96 98 98 97 92 62 75 72 97 100 90 100 99 100 100 99 98 100 90 87 84 88 94 85 92 97 95 96 97 81 60 83 52 46 44 38 30 28 33 35
97 80 70 71 68 96 98 98 96 75 65 62 68 100 99 98 98 99 100 99 98 100 100 94 81 66 63 57 75 83 87 94 88 83 72 65 81 57 47 39 26 22 25 31 44
86 76 70 60 97 99 98 98 81 65 54 62 100 100 100 99 99 98 99 98 99 99 91 83 94 85 74 73 78 99 98 69 96 96 96 68 54 42 38 28 30 44 50 38 26
88 85 99 69 94 98 98 96 88 61 53 55 57 85 100 99 98 99 100 84 83 78 98 93 98 82 93 87 86 86 99 98 98 95 90 64 62 45 30 27 24 40 58 54 29
98 97 98 90 91 98 98 98 86 58 55 56 60 74 90 98 97 99 86 65 64 63 92 99 97 91 92 91 73 94 99 97 96 97 87 69 46 37 40 42 56 49 55 57 42
97 97 100 86 98 98 97 96 82 73 64 64 65 66 81 92 99 99 86 63 65 69 78 82 96 95 83 78 78 79 84 89 95 90 92 82 64 48 40 46 60 56 61 62 54
100 94 98 99 99 96 97 89 75 71 74 75 63 82 84 84 89 91 89 80 83 79 88 84 96 97 88 90 97 98 85 95 94 96 91 84 62 41 44 47 46 56 63 69 52
98 98 98 93 93 91 95 90 84 82 75 71 72 71 76 97 97 94 82 86 92 79 86 97 97 88 80 85 98 97 90 94 98 96 83 83 75 52 44 37 43 56 68 80 50
99 95 94 93 99 87 91 85 91 85 78 78 91 95 80 92 99 90 87 93 91 83 92 100 98 91 84 94 98 97 96 95 98 80 93 66 73 59 57 47 37 48 99 80 58
98 100 99 93 99 93 94 87 78 82 79 92 92 97 98 99 95 85 86 81 74 86 96 100 98 100 99 93 98 98 99 98 96 93 97 90 75 55 65 66 63 99 94 74 64
98 94 91 95 98 90 84 82 81 82 94 98 95 93 99 99 98 86 94 81 88 94 97 98 99 99 95 95 98 97 95 99 100 99 85 90 36 63 73 93 99 94 94 74 63

GFSSW_700_rhum_006.txt.gz
RH
94 68 47 37 73 39 30 27 24 32 32 32 32 31 32 31 28 16 16 14 12 12 12 14 20 24 28 29 30 36 70 56 54 57 50 34 29 28 27 30 34 37 41 40 39
88 99 73 43 58 70 38 30 26 33 36 42 48 47 49 48 39 33 29 23 16 14 14 14 16 19 21 25 33 40 72 56 56 61 61 46 34 43 35 33 34 40 42 43 43
98 89 96 68 30 83 65 34 29 33 38 46 50 52 57 68 81 58 83 47 28 22 22 25 34 43 35 22 32 42 73 62 44 36 34 47 27 30 32 39 34 54 53 43 45
27 59 95 98 61 69 82 44 31 34 38 44 50 65 66 79 99 75 82 68 69 77 52 50 55 63 65 56 43 46 27 45 47 43 40 36 48 28 30 28 57 46 49 46 47
4 71 100 100 99 51 80 73 34 34 39 40 55 72 72 78 94 80 88 78 68 77 76 73 77 76 75 64 60 59 49 40 38 31 32 38 31 47 51 23 30 37 52 51 52
2 24 46 96 98 81 74 88 46 39 41 37 58 72 76 74 77 86 81 84 72 88 84 86 95 92 86 81 70 57 48 45 43 40 41 41 29 78 16 20 25 31 35 50 52
2 2 5 52 97 99 76 92 74 42 45 37 47 68 74 76 82 78 70 74 89 86 84 71 68 66 64 68 63 56 49 46 37 37 42 39 43 35 24 27 25 21 27 33 41
1 1 3 3 63 99 82 93 91 53 52 46 35 45 62 78 74 71 69 66 65 66 73 81 66 64 62 61 58 58 57 74 62 47 49 54 57 65 36 27 25 24 22 24 30
1 2 1 3 24 99 89 97 99 84 60 48 44 33 46 65 71 68 66 69 69 66 67 65 64 64 59 61 83 80 68 84 74 44 61 56 72 79 45 40 35 31 31 27 23
7 6 2 2 9 98 98 98 99 86 75 56 43 44 37 47 73 73 69 68 70 68 68 64 64 65 52 74 58 58 82 74 63 71 42 44 62 64 69 39 43 38 33 30 26
44 33 8 2 9 98 99 99 99 100 80 52 38 39 34 38 64 66 65 70 71 70 69 65 71 54 48 50 65 51 60 73 74 60 48 37 33 52 42 35 44 35 35 31 27
78 77 91 59 4 26 98 99 92 92 88 61 60 46 42 40 57 51 56 69 73 74 76 70 63 58 57 56 55 57 76 74 76 80 72 71 29 38 30 21 22 28 27 30 30
96 86 97 100 65 13 95 98 100 98 97 85 61 56 48 42 47 46 54 63 67 69 64 66 62 48 56 59 62 73 90 84 82 82 86 80 45 34 40 31 23 23 25 25 27
89 89 96 91 62 21 26 98 98 98 99 92 79 57 48 43 42 43 57 68 67 63 57 59 73 63 76 81 71 88 89 92 96 94 76 83 56 44 45 40 30 24 26 26 24
90 99 87 96 98 71 54 95 98 99 96 81 68 60 51 48 46 46 58 70 66 60 56 68 63 64 65 54 74 94 86 95 96 92 91 75 96 50 48 51 37 30 29 29 27
93 95 90 69 97 81 95 96 98 98 94 77 78 66 49 57 58 55 62 81 81 86 79 89 80 77 86 80 85 89 99 100 100 98 90 60 63 51 39 41 41 30 28 30 27
80 94 96 77 63 74 100 97 98 97 79 88 98 98 78 96 97 79 85 99 94 99 99 100 90 77 86 97 94 99 100 75 84 92 63 43 51 53 44 50 38 30 25 31 38
97 95 64 38 76 87 98 98 97 95 85 84 99 99 100 92 99 96 97 98 98 99 98 99 79 76 48 53 92 92 94 67 58 43 40 47 57 41 43 50 36 32 25 24 28
98 82 61 73 72 91 97 98 96 92 71 80 99 100 100 97 98 96 96 98 100 99 94 98 86 55 59 74 86 100 99 83 88 87 93 56 59 51 45 47 43 36 40 61 54
96 90 67 86 85 98 97 97 97 76 57 62 98 98 99 98 97 99 97 82 98 88 97 100 95 70 84 80 77 93 99 93 98 82 69 45 54 42 38 39 39 42 55 57 59
96 98 92 95 97 85 98 97 89 83 68 70 68 88 96 98 96 100 98 71 64 54 97 98 94 97 91 78 79 92 100 99 95 91 67 54 34 36 45 47 52 58 57 53 55
94 97 85 98 96 97 98 96 92 85 76 64 65 62 69 76 94 99 94 70 62 67 83 92 100 97 95 85 86 88 94 97 97 91 97 72 57 43 48 43 47 53 54 55 63
96 98 97 100 98 97 97 97 94 77 74 69 66 61 62 64 76 85 84 76 71 71 80 92 98 94 75 85 81 100 73 97 98 98 93 82 53 47 47 44 58 52 39 59 59
94 97 97 99 74 88 88 96 86 78 76 71 67 68 67 72 75 91 84 81 76 80 92 97 100 86 70 65 84 98 96 98 97 97 75 81 67 63 64 64 65 66 48 56 56
99 99 94 100 93 94 93 88 80 76 75 73 72 66 65 75 92 90 88 91 90 84 83 100 100 93 74 90 99 99 100 99 98 86 94 62 66 64 67 71 76 54 49 56 59
100 100 87 88 83 85 91 92 90 79 76 70 71 83 90 85 96 97 94 95 91 92 98 99 94 90 96 100 100 99 96 100 100 100 100 95 88 60 83 74 83 71 100 95 77
95 87 91 97 96 95 81 85 80 74 86 82 85 90 87 93 96 99 100 99 99 98 94 94 92 96 93 98 98 98 99 100 92 99 100 99 45 88 90 74 98 98 100 96 80

GFSSW_700_rhum_009.txt.gz
RH
80 88 89 66 54 75 85 52 33 27 25 29 28 30 31 27 24 22 16 14 14 14 14 16 23 28 26 26 30 44 75 55 49 40 39 40 41 50 45 42 40 41 34 41 38
4 43 59 99 70 69 74 88 51 31 26 33 34 41 46 42 40 32 30 20 16 13 13 15 18 23 26 26 37 73 68 54 43 40 42 46 51 48 51 44 38 44 40 34 38
1 1 11 94 100 77 76 85 83 38 30 34 38 48 55 78 74 62 44 34 20 17 15 18 33 27 34 30 56 84 72 54 50 54 64 64 55 54 54 54 48 45 46 52 42
1 1 2 52 89 100 70 90 93 59 34 36 39 50 61 86 94 72 77 52 50 52 27 26 31 45 83 60 40 75 73 66 64 67 72 77 67 62 62 56 53 50 52 57 57
1 1 1 4 57 99 93 81 92 85 38 38 39 48 70 98 98 85 89 80 59 80 77 63 78 95 96 87 89 92 84 69 76 61 76 84 76 78 79 70 67 66 67 58 51
1 1 1 2 66 95 100 75 97 95 51 40 39 49 71 83 90 100 95 87 76 77 80 84 96 100 100 91 87 89 87 85 85 67 89 85 46 81 62 22 47 62 65 57 57
1 1 1 1 2 64 89 93 86 97 73 43 40 54 73 90 87 92 97 90 81 80 96 90 89 99 99 100 98 73 67 74 48 54 84 76 66 50 26 43 46 62 49 27 33
6 2 0 1 1 2 30 100 88 98 88 48 42 52 74 73 81 87 91 93 84 84 99 81 84 100 98 98 68 57 84 77 66 66 72 75 66 58 57 64 65 50 54 56 40
47 27 6 1 1 2 6 80 95 99 97 53 50 41 60 61 78 82 82 84 78 73 80 84 97 99 86 80 82 84 66 64 64 67 71 69 63 55 59 49 61 57 63 63 62
64 49 32 23 7 1 3 31 98 99 99 94 53 48 45 43 65 77 77 74 73 64 60 74 92 93 85 91 62 58 69 61 52 49 66 69 63 56 58 53 63 56 40 48 60
73 75 69 66 59 3 4 44 99 98 98 81 46 51 43 37 51 80 79 77 75 72 62 68 78 71 83 84 79 68 63 54 50 54 62 61 57 52 50 47 40 40 30 26 28
77 84 86 86 97 91 15 96 98 97 99 96 56 45 47 42 60 75 82 81 82 72 98 84 63 83 88 84 84 79 71 62 58 60 63 64 37 46 23 14 18 24 20 17 18
89 95 87 95 96 99 52 82 98 98 99 99 81 58 47 45 55 58 66 82 89 100 99 98 85 60 79 77 68 73 73 68 65 66 70 67 49 26 40 35 27 19 18 17 17
94 88 85 85 93 81 66 90 98 98 98 98 94 72 59 54 49 50 64 82 92 100 99 97 90 74 61 56 74 75 69 71 78 79 64 71 51 40 32 34 31 36 18 18 21
78 83 83 85 76 95 84 86 98 98 97 98 100 100 68 59 69 55 62 68 96 90 90 91 62 83 72 67 89 83 90 87 85 83 84 63 65 46 32 30 25 30 43 29 32
59 70 93 67 63 92 98 97 97 98 97 98 99 95 69 94 68 70 76 70 92 100 99 86 97 73 87 82 83 96 95 96 92 95 84 57 49 38 30 23 28 30 37 39 40
50 87 97 92 42 86 95 93 97 96 97 100 98 99 88 100 100 79 97 98 81 98 100 100 90 93 75 91 100 99 98 70 80 92 64 34 37 36 28 31 30 35 32 42 40
74 92 83 86 60 79 98 96 96 91 99 98 100 98 99 99 100 100 96 99 100 95 96 97 87 99 85 91 88 100 94 61 53 40 34 36 37 34 35 33 37 40 41 34 44
52 84 72 55 47 73 96 94 88 98 95 99 100 95 100 99 95 100 100 100 97 100 95 92 90 82 79 64 87 94 92 72 81 70 67 48 42 40 37 38 39 41 45 44 41
74 78 82 53 64 90 98 97 97 100 92 83 97 97 98 98 98 98 100 95 99 98 98 93 86 84 95 72 88 94 90 91 96 79 56 35 34 34 35 36 34 36 40 41 48
70 81 97 78 80 93 96 98 98 100 83 98 94 91 94 97 94 96 94 92 94 97 100 99 87 98 85 72 76 97 100 98 87 88 74 66 44 37 38 41 46 59 55 68 73
76 96 84 79 98 98 95 98 97 99 83 80 96 83 80 85 84 80 81 88 82 85 99 97 96 95 81 83 88 87 96 96 97 72 93 77 66 50 46 47 47 52 49 62 59
85 91 79 91 93 82 100 98 99 95 96 97 78 83 84 86 86 86 90 93 68 65 97 98 93 90 83 83 84 90 86 86 97 98 96 91 60 46 56 46 46 50 52 57 74
77 96 97 91 87 69 98 97 91 95 83 69 60 57 64 90 80 91 95 80 75 71 97 99 96 85 66 58 75 96 96 98 98 98 81 79 71 64 61 68 67 67 63 70 81
86 92 94 93 94 95 97 95 96 94 80 70 69 68 84 88 94 94 98 81 81 80 84 98 94 92 93 96 96 90 96 96 99 96 99 73 72 68 71 75 80 76 72 88 96
78 75 77 74 85 99 86 100 98 79 81 68 75 74 82 87 95 99 100 100 99 97 95 97 98 99 98 77 87 100 94 99 100 98 99 95 92 85 84 83 72 76 85 97 100
79 92 97 76 89 99 98 98 96 85 76 68 82 98 94 98 91 88 90 98 99 99 100 99 98 99 89 85 92 93 100 99 97 93 98 100 69 96 91 92 92 82 98 99 98

GFSSW_700_rhum_012.txt.gz
RH
1 1 3 56 67 71 72 85 87 66 35 28 24 28 27 24 24 22 20 18 15 14 15 15 18 23 22 22 27 43 82 75 60 50 47 38 35 36 38 40 39 39 38 42 43
2 1 1 4 22 65 85 78 85 88 50 32 26 32 36 38 35 27 31 24 17 15 17 16 15 26 32 30 36 62 60 56 53 50 46 40 39 41 46 48 43 39 39 42 39
2 2 1 1 1 31 86 78 78 91 86 40 30 34 42 52 64 36 35 30 28 18 18 16 25 36 32 52 65 50 47 54 28 51 46 46 47 49 49 52 50 41 39 44 40
3 2 2 1 1 2 79 99 73 96 96 66 35 37 46 62 88 65 52 70 45 34 22 18 22 54 50 66 82 75 78 62 31 52 62 58 50 53 55 53 53 50 48 45 53
3 2 2 1 1 1 23 75 87 81 96 91 39 38 49 75 83 80 91 81 76 76 68 26 24 40 65 67 80 84 73 71 65 45 58 66 66 50 49 60 43 46 50 48 52
9 7 4 1 1 1 3 50 97 74 99 89 56 39 49 79 99 91 97 81 86 80 78 85 87 93 91 90 85 85 86 88 73 68 62 47 45 48 44 20 40 49 35 52 48
43 18 5 3 1 1 1 48 88 85 93 95 76 42 47 69 84 79 94 89 87 82 86 97 95 100 88 95 92 90 88 70 56 37 44 45 55 50 29 28 30 26 24 24 29
92 74 39 28 4 3 1 10 82 95 92 98 87 46 46 66 66 72 90 98 99 82 96 99 97 93 97 93 94 78 82 73 51 51 47 68 59 39 59 54 43 34 37 37 30
88 76 79 54 44 18 7 1 31 51 92 98 91 48 48 50 68 79 91 84 91 99 97 100 90 100 99 98 88 87 79 69 66 62 64 67 64 54 65 56 61 68 61 54 40
80 80 71 64 63 53 38 3 5 30 97 98 96 54 48 42 55 75 85 89 95 94 96 96 100 95 86 83 77 70 74 65 59 56 53 55 64 57 47 59 62 55 37 43 52
78 81 81 81 75 71 86 54 64 64 99 97 95 56 53 36 42 60 84 89 90 87 84 87 96 82 80 77 71 76 76 62 55 49 52 54 53 50 31 33 17 29 38 30 21
81 83 83 88 95 94 95 80 100 79 98 99 93 74 51 42 40 60 83 85 97 92 100 85 67 68 84 81 79 80 80 68 61 56 59 53 42 30 20 16 17 17 20 15 16
86 88 87 84 86 91 89 79 99 98 98 99 95 82 52 49 45 50 78 89 90 98 99 91 82 62 70 86 72 68 79 72 66 65 61 53 44 31 34 29 23 21 18 16 11
85 72 66 87 84 97 89 70 96 98 99 98 98 79 60 68 63 72 89 97 100 98 99 97 98 89 65 77 70 78 68 69 69 74 70 67 74 30 20 21 31 26 14 14 20
52 51 74 70 86 94 96 96 90 97 98 98 99 95 70 69 68 75 88 99 100 98 96 93 93 95 76 60 74 77 81 74 73 83 86 62 73 24 26 20 26 23 26 30 32
52 59 66 97 89 94 87 98 84 97 98 98 98 98 83 99 93 71 99 89 100 97 97 93 93 67 62 70 75 88 90 79 80 88 94 52 52 16 26 25 28 26 22 27 35
55 66 87 91 89 81 90 92 97 97 98 100 99 99 89 99 99 87 100 82 76 99 99 87 89 72 65 80 82 96 91 86 96 99 88 36 50 37 29 31 31 32 31 32 42
70 87 96 98 91 58 92 76 97 96 98 98 99 100 99 99 98 98 99 97 96 83 86 84 88 78 79 77 83 89 89 74 76 82 68 56 57 41 32 33 33 33 34 35 38
73 88 49 72 77 62 51 96 96 98 97 98 98 97 98 98 90 98 98 99 98 94 87 91 89 90 85 76 90 93 96 55 85 72 82 57 42 36 32 32 32 34 35 39 40
84 85 58 73 55 76 86 91 93 98 94 95 89 94 94 93 91 94 89 92 96 89 89 90 90 82 88 74 79 93 80 92 90 97 80 47 41 38 38 37 37 35 38 39 40
94 91 91 80 91 96 99 93 77 98 95 97 79 93 88 96 81 87 90 89 94 93 95 95 90 92 94 85 60 83 96 91 94 94 94 80 49 40 42 43 42 44 46 46 50
77 100 82 78 96 98 96 98 98 99 97 93 84 86 87 88 85 86 88 85 89 98 94 96 91 97 77 70 73 90 89 84 95 75 82 74 73 50 44 52 50 50 48 51 46
78 87 78 83 94 74 87 98 98 88 84 87 79 78 73 85 83 82 93 85 92 88 94 93 95 98 90 86 85 86 77 82 94 91 94 95 68 51 49 51 66 56 53 52 52
80 80 79 79 72 100 92 98 96 97 91 70 54 74 82 82 85 86 90 86 73 81 96 93 93 78 77 74 77 92 83 85 97 98 89 88 80 77 79 74 86 89 90 76 76
70 62 93 90 85 81 96 98 96 94 83 66 67 83 86 86 88 90 96 85 81 79 97 99 95 84 79 70 74 75 75 81 99 92 100 88 99 73 88 98 77 79 84 83 82
56 65 72 62 93 98 94 96 89 86 86 76 87 94 86 86 87 87 94 99 89 90 93 91 96 90 88 76 80 90 78 88 98 99 99 87 84 100 93 82 83 90 81 76 76
54 63 60 71 90 98 94 98 96 80 77 74 94 93 94 88 86 94 96 95 97 92 95 89 93 87 90 71 80 90 85 93 95 98 96 99 98 100 98 93 98 95 96 86 79

GFSSW_700_rhum_015.txt.gz
RH
4 3 2 1 1 14 66 70 73 88 87 62 34 26 22 24 22 21 18 20 21 18 16 15 16 17 18 15 19 27 70 56 36 32 22 24 36 38 40 39 36 36 39 38 43
4 4 3 2 1 1 35 76 88 73 82 86 52 31 25 27 25 22 23 23 22 19 16 15 16 18 22 19 23 33 53 53 28 28 32 44 44 41 44 41 41 38 40 41 40
6 4 3 2 2 1 2 7 76 84 75 86 80 39 29 31 30 26 34 26 28 23 18 18 22 28 27 28 28 40 40 39 29 34 55 58 50 47 43 47 43 38 41 41 41
9 6 4 2 2 1 1 1 54 98 80 84 91 59 33 35 44 40 42 40 36 31 23 19 24 29 41 38 33 36 44 46 33 31 60 57 50 44 51 45 48 43 39 45 50
62 40 24 6 2 2 1 1 7 91 94 92 94 80 38 36 44 67 70 58 64 48 41 23 23 50 62 37 52 70 55 64 43 51 58 59 57 43 45 52 44 42 42 42 51
92 97 62 31 12 5 2 1 10 73 100 84 99 90 44 38 55 76 82 79 78 77 79 71 28 56 60 64 80 76 78 81 69 66 53 58 56 56 32 35 46 42 32 44 47
98 96 96 85 52 12 5 3 2 33 98 90 99 97 49 39 62 94 84 76 77 83 91 92 84 91 91 79 92 88 87 82 56 31 38 35 29 34 23 22 24 22 19 22 46
94 92 86 74 60 63 37 11 2 16 85 98 99 98 61 46 45 68 96 98 84 76 91 98 98 95 85 93 80 84 82 75 36 44 39 46 45 29 31 42 32 26 28 22 18
91 89 76 65 59 57 51 39 10 4 69 98 99 99 68 45 44 60 88 99 93 91 90 99 96 98 98 88 90 84 78 62 63 57 64 63 60 45 44 50 53 48 36 28 22
78 72 72 77 79 77 64 61 17 3 91 98 99 99 75 44 41 59 78 89 92 99 95 100 100 100 97 97 84 83 74 70 68 61 71 70 67 50 52 49 35 39 42 43 29
71 70 74 76 81 87 84 92 35 17 62 98 98 87 68 50 46 66 79 94 98 98 96 100 99 91 78 79 80 73 83 74 64 60 57 54 53 53 31 32 38 28 22 17 17
67 71 74 70 72 84 82 92 70 82 90 97 97 98 60 44 47 71 87 95 96 98 100 92 86 79 97 96 81 75 80 69 56 59 54 49 41 31 22 17 16 13 14 15 14
58 49 57 66 71 70 86 85 91 98 93 98 98 99 72 48 47 55 79 92 89 99 91 83 78 69 88 89 88 84 78 68 62 45 46 49 26 14 13 16 24 20 16 16 14
35 43 59 76 84 82 85 76 89 99 97 98 98 98 86 60 66 76 90 97 100 96 95 95 94 86 78 84 87 78 73 70 72 67 64 59 71 14 20 20 22 16 17 18 16
49 65 98 84 96 78 89 99 97 97 97 97 99 99 92 67 62 99 100 100 99 96 94 91 93 90 94 77 88 77 74 67 69 70 70 55 61 31 20 16 17 24 30 26 23
58 86 99 97 91 71 68 97 89 95 96 98 100 86 99 93 87 92 99 100 99 97 98 98 89 90 93 83 80 85 75 68 66 74 88 39 47 31 26 22 22 28 30 26 26
63 85 99 94 91 57 58 89 87 96 98 99 99 85 83 98 96 99 98 98 94 98 100 97 89 81 74 73 80 82 76 83 89 91 88 47 60 34 24 27 29 29 30 30 27
86 83 64 84 80 69 70 93 96 97 98 98 100 95 95 95 95 100 99 100 85 82 84 84 76 77 64 71 66 76 70 73 86 96 80 59 60 39 30 28 32 33 34 35 33
81 68 100 76 50 73 87 94 96 98 98 99 99 98 97 90 84 95 96 98 87 78 73 82 87 86 78 78 78 80 89 86 84 77 87 55 41 31 30 36 36 34 36 36 37
83 58 99 80 72 96 96 96 94 98 98 99 94 96 99 92 85 89 92 90 86 74 86 87 89 92 85 78 86 83 80 88 91 100 94 65 53 41 40 40 41 42 42 42 41
71 64 80 78 79 69 95 88 99 96 97 91 79 91 89 96 82 85 77 82 90 81 94 86 87 93 96 79 63 84 95 90 85 92 98 99 62 42 40 41 48 52 49 49 48
56 75 79 93 91 99 99 94 96 98 86 94 87 82 74 85 78 80 82 88 86 88 89 92 84 90 76 72 79 81 69 82 76 74 80 88 72 49 44 44 50 55 64 63 58
50 72 86 89 95 93 95 98 98 98 96 95 90 83 76 78 78 81 96 91 93 97 92 94 95 91 89 86 89 92 82 86 86 86 89 90 66 52 52 60 81 96 92 81 71
51 73 70 62 82 94 99 94 95 81 82 81 82 74 83 93 87 97 93 86 96 98 95 92 94 78 80 88 88 93 90 88 92 98 88 86 80 68 78 99 97 86 93 97 84
38 54 55 80 79 88 92 96 83 80 72 68 85 85 84 86 84 90 84 84 85 91 97 96 92 90 82 67 71 74 72 72 88 82 99 71 93 67 98 99 100 89 89 96 93
60 60 68 75 89 86 82 86 81 74 65 69 78 86 83 85 74 87 84 78 76 81 96 100 97 89 69 76 83 78 74 78 84 92 99 100 95 90 99 98 99 100 97 92 95
59 49 46 62 82 86 92 94 79 77 74 77 82 83 85 83 88 85 93 86 84 85 85 88 88 98 80 76 81 81 75 78 83 83 96 96 92 99 96 98 98 98 98 96 88

GFSSW_700_rhum_021.txt.gz
RH
14 14 14 13 9 5 2 2 3 18 54 81 94 98 91 64 35 24 16 16 22 21 17 16 16 22 28 36 44 44 42 39 31 28 21 18 20 29 36 40 37 37 39 37 35
16 50 86 52 41 19 6 2 2 3 23 72 90 99 98 90 49 25 20 20 20 22 21 19 16 18 23 29 42 43 43 38 33 28 24 22 23 21 35 40 40 41 40 38 36
13 68 75 87 100 99 81 13 2 2 13 84 82 100 99 97 72 24 24 22 21 21 23 21 18 18 18 21 36 41 40 31 26 28 26 27 24 22 26 38 41 44 42 40 40
50 69 94 91 95 96 97 98 16 2 2 67 88 82 100 96 79 33 26 24 26 23 24 24 21 23 21 20 23 28 30 23 20 24 24 25 23 23 22 32 40 43 44 43 42
60 72 77 88 92 96 94 92 82 15 2 3 99 84 99 91 75 49 50 30 33 38 26 24 22 20 22 20 23 27 30 20 19 16 20 23 22 20 17 24 45 46 46 45 43
76 76 73 66 74 74 72 67 57 48 10 2 79 93 99 96 82 40 71 62 43 69 40 28 25 22 26 25 29 40 30 26 24 20 21 22 20 26 19 18 29 46 50 48 46
87 58 50 55 57 70 64 60 56 50 31 3 9 95 100 100 82 44 70 75 69 57 43 32 30 38 42 35 44 46 50 34 28 26 28 25 17 18 25 22 23 37 48 52 49
71 52 44 48 50 59 60 59 51 44 37 5 23 100 94 91 82 43 87 92 87 81 55 39 41 61 55 64 68 64 60 70 36 29 27 35 22 19 23 20 21 28 39 45 51
90 62 55 50 62 74 67 65 60 47 36 5 24 99 98 95 70 58 96 96 92 99 92 55 62 64 66 84 98 97 90 74 36 42 49 54 47 20 24 23 20 17 15 24 33
70 52 59 57 70 77 70 62 72 56 29 6 85 99 98 85 85 65 75 88 82 92 99 95 95 91 88 93 90 89 80 66 67 56 67 61 64 24 37 39 42 29 19 16 16
69 46 52 51 69 71 72 82 72 64 24 18 64 99 78 99 85 80 99 80 94 98 99 96 98 93 75 71 67 67 63 70 59 51 61 63 71 46 30 46 35 32 27 24 21
41 40 40 52 66 89 74 84 82 93 24 30 97 92 98 100 62 78 96 98 99 100 98 98 100 98 95 98 95 84 84 76 69 70 77 64 53 42 33 34 36 36 34 27 25
32 47 50 70 91 91 74 83 78 69 54 29 99 95 96 98 59 99 97 99 93 98 100 98 99 98 99 100 100 99 91 82 82 70 71 67 56 39 32 31 24 16 14 13 13
89 77 82 90 90 97 77 84 85 64 59 63 98 100 90 81 65 75 99 98 99 100 99 99 96 96 100 96 97 90 82 83 80 79 73 59 64 30 21 15 13 12 12 16 15
97 97 76 84 97 98 88 80 90 74 85 96 97 98 89 75 75 86 100 96 100 98 96 98 95 81 82 93 99 90 84 82 76 64 65 46 57 23 14 10 14 14 17 22 20
88 86 84 96 95 89 81 78 90 95 96 98 98 100 96 85 93 98 99 98 97 99 100 97 100 90 90 98 98 91 87 78 64 64 78 52 56 20 16 18 19 19 20 23 25
68 80 67 88 82 68 70 80 84 94 97 98 99 97 91 99 95 99 95 98 99 98 99 98 100 97 94 89 85 86 84 59 68 88 76 59 69 20 21 26 29 26 25 27 28
53 62 52 55 72 79 72 74 85 96 97 99 99 96 98 100 97 95 89 88 91 89 95 94 92 85 83 84 77 82 76 50 57 82 83 61 66 26 21 27 27 28 31 32 32
44 55 81 71 62 64 72 85 95 96 98 98 100 90 97 99 99 95 96 80 84 89 79 89 83 88 87 81 74 75 82 68 69 90 88 55 36 22 25 30 32 35 38 38 37
42 47 45 42 60 78 93 98 99 99 97 90 86 96 99 96 96 99 96 85 78 87 77 82 79 90 88 84 89 83 71 78 70 65 82 61 56 33 34 40 45 45 44 44 45
50 56 65 75 78 82 99 99 100 99 92 82 83 90 92 89 86 89 82 77 89 87 82 73 76 96 97 90 84 88 89 74 68 71 89 96 51 38 44 44 50 58 70 80 78
62 73 82 85 83 96 98 100 91 96 83 74 73 67 70 73 79 84 78 81 77 83 87 86 82 84 83 90 84 86 72 68 60 80 92 96 65 44 48 53 58 85 88 79 79
54 77 78 76 84 85 88 90 89 83 78 78 74 73 66 67 66 74 71 67 85 73 80 85 78 83 87 85 86 88 75 78 85 77 84 85 62 49 58 77 96 99 94 88 85
41 60 68 70 85 81 76 74 83 84 79 83 79 77 73 75 74 78 83 88 83 86 84 80 76 77 76 77 79 86 75 79 88 86 79 72 58 63 80 97 98 97 98 87 93
46 65 68 69 70 71 76 86 84 85 75 79 86 76 80 81 74 81 86 88 95 96 90 88 85 86 82 81 84 87 82 80 81 74 92 65 69 77 94 99 97 98 98 99 100
47 60 65 73 73 78 78 73 80 84 79 70 80 92 83 79 80 78 78 85 93 93 90 88 92 93 74 69 69 69 64 68 74 74 77 73 82 84 92 99 90 99 98 100 98
35 47 50 61 70 74 76 76 76 78 89 86 86 86 90 82 71 86 89 87 85 77 89 96 92 89 80 88 81 72 60 61 60 67 78 83 79 84 98 94 100 98 99 77 75

GFSSW_700_rhum_024.txt.gz
RH
5 7 11 40 87 54 54 39 15 4 3 18 82 99 100 96 84 41 22 18 18 22 20 20 22 26 31 44 47 40 33 31 28 25 26 25 25 21 22 34 38 39 37 38 37
11 10 11 21 40 72 94 97 77 35 4 6 56 97 100 100 85 61 29 25 20 19 23 20 19 25 28 38 50 49 43 36 32 30 30 29 28 23 19 19 29 38 37 37 38
10 35 39 82 57 63 90 98 98 88 28 5 20 99 97 100 94 65 50 27 22 19 25 23 20 24 27 33 44 47 46 46 38 35 33 32 30 26 22 19 27 40 41 40 41
26 48 90 95 85 76 76 85 95 91 58 8 6 62 94 99 98 74 58 29 24 22 24 27 21 22 29 33 40 44 46 41 35 32 32 33 32 31 24 16 25 40 45 46 43
26 56 86 96 74 69 80 81 82 80 70 20 10 57 96 100 97 72 49 31 26 22 23 25 24 22 21 26 38 44 46 37 29 28 27 30 28 23 16 15 17 34 44 48 48
54 66 70 42 52 69 65 68 77 84 63 50 11 85 100 99 99 82 72 38 26 25 26 25 26 27 30 23 25 42 40 30 23 23 23 21 17 16 10 10 12 19 41 48 50
100 90 62 44 62 54 63 54 59 69 58 49 9 63 100 89 85 93 71 61 36 30 35 29 30 34 34 34 34 43 38 27 22 21 22 17 13 12 13 14 12 12 28 45 51
100 98 70 61 53 68 67 66 64 56 46 43 12 26 99 99 95 95 67 85 80 65 81 59 40 44 53 49 51 46 49 40 29 22 22 22 18 26 21 17 14 14 17 22 39
98 100 91 53 51 54 70 68 67 62 50 40 13 65 98 82 86 72 92 88 95 99 87 66 50 66 71 68 86 84 70 50 38 33 32 30 32 29 20 18 18 16 14 15 22
97 97 64 37 52 53 66 67 66 70 51 42 16 93 91 93 87 65 99 94 90 97 82 77 86 97 84 99 87 87 88 62 49 41 42 48 62 22 19 21 22 20 14 11 11
97 76 65 46 44 57 75 72 71 65 55 32 20 98 98 96 100 62 99 98 99 98 97 82 94 89 67 86 72 82 75 70 53 52 52 41 48 21 18 22 18 18 18 18 16
93 78 91 60 68 82 92 70 72 94 49 80 23 98 99 98 79 88 96 99 92 99 99 99 98 88 86 83 72 81 80 72 70 65 70 54 42 22 16 19 25 26 24 23 24
97 95 96 94 90 93 86 77 82 74 56 93 87 97 98 99 83 90 96 94 98 100 99 94 99 100 100 91 93 85 78 74 75 72 74 66 48 25 19 24 27 24 22 18 16
82 89 82 97 95 95 82 79 83 64 64 90 98 98 100 99 91 99 98 99 99 99 98 99 100 99 100 100 99 91 87 88 82 81 76 65 65 31 25 18 14 13 13 13 20
68 68 83 98 88 96 71 73 46 42 64 82 94 86 93 83 77 99 99 96 98 98 97 98 99 100 96 98 100 96 88 83 82 77 66 51 54 28 16 13 14 14 15 15 21
55 60 72 75 87 66 66 55 85 85 100 75 98 100 96 90 66 98 99 98 93 82 99 96 99 98 95 99 97 93 90 87 81 72 72 57 52 13 18 23 25 28 27 25 24
52 58 49 58 64 55 68 84 83 92 94 98 99 95 80 94 71 86 98 99 94 97 98 100 99 91 91 100 98 96 93 71 60 77 73 57 60 16 28 26 28 26 23 25 27
64 63 56 45 56 61 76 83 90 98 98 100 99 98 80 99 99 99 96 88 95 88 92 91 99 99 97 88 80 90 87 59 50 74 73 68 61 31 29 28 28 27 29 35 36
51 54 54 54 64 81 85 81 97 97 98 97 94 90 89 95 98 98 91 88 93 86 81 85 90 94 90 93 87 88 89 75 63 81 85 49 35 26 32 28 31 39 44 45 45
54 54 59 61 73 91 94 95 100 98 89 84 88 98 98 95 90 93 90 80 85 88 83 79 85 92 93 94 86 78 70 72 59 63 69 53 48 33 36 41 45 46 53 58 60
75 83 84 77 76 86 98 100 100 100 95 78 74 81 88 84 87 85 89 82 80 81 81 72 72 98 98 91 82 82 78 66 64 64 82 81 42 39 45 53 58 55 64 75 71
77 78 80 92 84 100 100 100 100 90 83 72 70 69 68 77 85 74 89 80 75 84 82 71 75 86 88 89 82 83 76 68 57 72 84 89 54 45 50 66 78 91 97 96 83
64 78 81 75 100 100 90 90 90 78 74 69 68 70 71 74 76 80 77 76 76 84 84 76 75 83 97 87 90 90 82 81 71 67 74 75 51 49 59 81 90 97 97 98 99
38 58 69 74 94 96 93 90 84 85 76 72 71 71 72 72 66 72 68 68 70 77 86 82 75 71 74 79 82 89 80 78 83 85 72 60 46 60 75 85 88 92 98 100 60
55 55 56 63 73 78 88 94 87 78 82 89 87 79 75 76 73 73 79 86 84 82 87 89 83 79 78 82 88 86 84 82 83 68 67 56 59 71 80 88 91 98 98 92 58
43 62 65 66 64 69 77 84 85 79 78 75 80 86 80 74 72 75 74 83 83 94 94 96 87 89 79 77 77 74 69 80 82 78 67 60 69 86 82 87 94 99 100 98 65
41 44 46 51 64 68 70 71 74 79 77 79 88 91 88 85 75 76 84 88 88 84 87 94 94 86 82 76 83 68 58 59 50 49 55 68 83 90 84 86 88 100 92 99 98

GFSSW_700_rhum_027.txt.gz
RH
4 7 11 12 13 28 68 94 95 85 58 33 6 51 93 99 100 84 46 28 26 21 23 20 22 29 39 45 37 34 48 46 39 35 32 29 27 25 23 24 35 39 40 37 34
6 13 18 58 60 81 75 70 90 95 85 75 19 14 83 98 100 90 73 56 30 22 24 21 19 28 38 49 48 39 34 29 28 27 26 27 26 26 23 22 28 31 39 38 36
13 17 46 100 99 100 96 62 85 85 96 86 76 6 72 95 96 77 100 78 32 23 26 24 21 26 35 40 52 49 41 37 30 26 26 26 28 30 26 20 21 23 32 38 37
40 68 95 100 100 98 91 78 82 82 91 92 71 12 59 100 99 94 94 80 35 27 23 28 22 23 36 41 54 55 50 45 40 37 34 36 36 34 28 21 19 19 27 36 38
86 92 96 94 99 69 65 62 61 69 81 93 71 12 19 100 97 92 93 81 39 27 22 26 24 21 28 44 52 58 51 47 41 40 38 39 41 38 30 23 18 18 22 39 44
86 90 98 97 95 75 56 40 47 53 68 88 72 18 16 98 88 96 85 81 42 27 24 35 28 23 24 34 48 59 53 42 36 35 35 38 42 37 27 22 17 15 17 31 42
86 98 94 90 96 74 60 58 60 54 58 70 68 36 14 80 93 97 100 65 42 28 24 29 40 32 27 32 36 58 47 44 31 32 34 34 32 26 19 15 12 10 11 15 42
96 98 98 95 90 67 53 58 62 58 62 56 55 37 22 64 97 97 99 87 50 44 35 31 39 52 54 47 46 54 55 38 27 24 26 27 28 24 17 13 10 10 10 10 12
93 95 97 96 50 55 56 62 66 64 69 57 59 36 48 99 80 98 83 98 63 53 63 64 59 71 74 57 70 64 58 41 37 32 32 25 30 23 18 14 12 12 11 11 12
91 98 99 90 53 64 72 72 68 65 63 57 55 29 32 90 97 78 73 100 83 77 97 98 76 74 94 78 83 94 76 44 33 29 27 40 51 30 23 20 19 15 13 12 12
80 87 76 89 72 77 66 82 68 64 70 50 30 68 74 71 87 95 77 99 99 97 99 98 95 71 84 100 77 56 42 42 39 47 48 49 54 26 22 20 18 17 15 15 17
79 82 96 96 90 87 90 85 68 81 62 38 24 99 80 96 95 79 91 100 99 99 99 98 96 75 84 99 81 80 78 64 55 54 50 49 40 17 18 18 18 18 19 19 20
76 82 78 97 93 90 77 78 78 59 94 77 92 100 100 100 99 95 98 98 98 99 96 90 98 98 88 93 84 82 67 67 70 70 68 65 41 19 20 23 26 23 21 22 27
70 74 88 82 93 90 76 80 56 78 85 100 87 99 98 99 100 87 94 99 100 98 99 98 94 99 97 96 95 78 80 82 81 84 71 63 64 25 28 29 26 21 21 18 20
49 73 73 76 63 68 67 45 52 45 80 87 94 99 100 92 92 98 97 99 97 99 96 98 99 100 99 94 94 93 89 90 82 78 73 60 51 27 25 22 23 22 18 19 21
51 41 40 35 39 31 47 87 87 71 96 93 99 98 97 94 100 94 95 94 99 98 99 98 99 99 98 99 99 92 94 87 83 78 68 56 49 25 27 31 34 31 30 30 31
36 29 31 41 63 82 89 89 82 93 93 98 98 100 95 96 97 98 99 99 98 98 99 98 96 98 99 99 98 96 93 78 62 71 68 54 56 25 28 30 33 32 30 28 30
43 48 47 59 85 87 78 73 82 97 99 99 100 97 98 96 95 97 99 91 82 82 96 97 100 97 99 98 90 92 92 68 55 58 56 67 60 36 32 34 33 32 31 32 37
58 59 61 65 73 69 67 74 96 98 97 89 94 98 96 100 90 77 95 88 87 84 80 88 98 99 100 95 87 94 89 72 59 75 74 43 35 33 33 34 35 39 41 38 39
74 78 71 77 85 67 63 100 99 100 100 93 80 86 95 87 88 97 91 87 86 79 72 79 91 99 96 96 90 75 79 74 62 68 55 45 40 33 38 47 59 60 56 55 56
74 73 78 87 75 90 96 100 100 97 89 76 72 82 79 90 89 90 83 84 84 83 80 73 74 100 97 95 87 81 72 59 55 58 65 55 37 39 46 56 65 66 69 64 55
62 71 79 85 96 87 93 90 98 89 79 67 66 71 70 82 75 84 80 73 81 80 78 74 73 98 100 92 87 81 80 70 55 68 75 78 43 45 48 64 76 83 94 80 70
34 64 70 78 97 100 99 99 93 84 76 67 67 71 66 69 74 80 82 86 78 80 81 70 70 90 100 91 88 86 78 76 65 57 61 63 45 48 57 73 82 84 89 98 87
42 53 70 68 72 81 86 86 82 81 77 74 73 70 66 71 66 70 76 75 76 78 90 79 67 61 59 67 72 80 72 77 77 76 68 50 43 48 68 78 78 88 92 98 92
51 60 58 74 75 74 78 86 84 75 80 84 86 76 72 68 68 67 71 72 72 75 89 86 77 74 71 75 76 78 78 73 72 67 64 52 50 68 80 82 86 90 95 100 100
35 54 64 68 70 73 74 77 78 78 70 81 88 80 83 75 69 75 71 75 72 79 90 93 87 82 75 72 74 73 72 74 76 73 70 64 60 87 84 83 83 84 83 87 86
36 35 51 48 64 71 72 69 71 75 78 76 90 91 89 83 80 81 86 84 84 80 86 89 87 83 79 76 76 72 60 59 54 53 54 61 73 91 83 83 83 80 78 76 73

GFSSW_700_rhum_030.txt.gz
RH
10 11 11 10 27 52 48 40 88 91 97 89 48 27 18 84 98 98 79 63 48 26 24 24 22 28 36 46 37 54 77 64 67 64 52 37 32 30 26 29 29 37 38 37 35
28 46 38 36 88 96 98 100 93 96 95 95 85 67 24 34 85 92 99 99 70 30 24 27 22 50 34 47 44 43 66 56 60 66 50 32 29 30 26 24 25 30 38 38 36
55 73 92 95 97 97 96 96 96 94 86 91 83 69 61 14 70 97 99 100 80 34 24 31 28 64 34 38 48 43 58 61 54 36 30 31 29 27 26 25 24 24 32 38 38
99 92 92 96 97 90 90 96 94 89 88 80 76 80 67 35 84 87 92 98 84 38 26 32 26 66 40 36 46 52 47 64 46 29 27 28 27 26 26 39 24 23 25 28 35
91 93 93 91 96 93 90 79 84 68 60 56 68 70 67 52 45 97 90 88 85 38 26 28 26 71 68 44 43 55 55 46 42 35 34 31 32 32 28 32 28 24 21 22 27
85 89 90 95 94 90 82 88 51 52 48 44 55 69 74 39 29 93 99 100 85 39 33 28 28 63 95 57 49 62 69 54 48 45 42 44 44 42 35 35 32 25 21 20 19
82 84 85 93 97 93 80 63 71 58 50 48 53 66 76 24 47 98 100 98 92 44 37 55 38 60 58 51 54 70 64 57 47 47 50 47 49 41 38 35 31 26 21 18 17
92 84 90 93 93 93 70 62 66 64 54 55 62 66 67 19 47 94 100 100 87 46 42 68 65 67 53 46 46 66 70 69 39 45 46 44 47 43 25 26 23 21 19 15 12
77 86 88 88 96 45 59 65 65 62 64 72 75 61 50 17 71 91 99 99 76 51 56 67 80 76 57 55 82 79 52 58 64 30 38 33 46 39 22 17 15 13 12 10 9
78 81 86 70 86 72 70 70 67 69 62 69 56 60 27 33 93 98 86 98 76 64 76 99 84 86 94 82 57 69 56 69 56 42 27 26 48 32 19 14 13 12 11 11 10
74 70 85 81 70 72 70 78 70 66 72 55 47 95 43 90 67 77 83 98 83 72 83 80 90 88 84 82 72 76 70 59 33 42 32 51 66 31 21 18 13 14 15 14 14
72 72 72 77 88 91 93 78 64 70 61 44 74 98 49 92 90 72 97 98 95 84 87 94 100 98 93 93 80 80 69 68 59 53 50 64 47 29 22 19 16 15 14 14 17
56 69 71 75 80 88 65 70 66 57 82 84 98 91 76 80 79 86 98 98 95 99 96 99 98 95 94 82 91 89 77 63 67 56 61 59 40 22 22 21 18 16 15 16 18
39 38 51 63 71 63 70 59 82 70 96 97 97 99 98 98 98 98 98 98 99 99 100 99 96 83 91 92 85 81 62 66 75 77 56 55 33 40 39 39 35 31 26 26 25
28 47 60 60 41 36 50 47 62 65 87 95 98 98 99 94 88 98 97 99 98 96 98 98 96 98 100 92 91 83 73 82 84 82 73 62 50 44 35 38 30 25 20 19 22
39 52 64 73 76 65 70 78 79 78 91 98 98 99 96 99 97 98 98 98 96 98 98 96 99 99 100 100 99 94 90 89 83 77 73 62 53 34 37 41 34 33 32 31 29
53 56 65 62 69 58 56 65 74 92 95 98 100 98 92 97 85 87 98 98 94 96 98 99 99 99 99 100 100 99 90 82 79 87 58 51 55 39 34 37 36 35 33 30 30
58 56 55 57 70 52 52 59 89 99 99 94 96 94 97 99 98 98 98 96 92 91 95 97 98 98 99 98 98 98 90 68 56 47 41 50 47 38 34 35 36 36 35 33 32
61 60 60 64 58 55 49 62 95 99 100 100 97 87 96 94 91 89 88 86 98 95 88 91 100 99 97 98 98 95 95 76 50 56 59 39 37 38 33 31 38 40 41 43 43
67 66 63 68 55 61 51 80 91 85 87 92 83 90 100 91 79 84 75 78 79 82 73 80 98 96 96 97 92 88 82 75 66 68 47 31 35 35 42 50 60 62 60 57 56
49 57 61 74 73 68 77 98 97 100 89 79 79 84 84 95 88 89 86 77 81 76 72 73 78 100 99 98 92 80 86 66 66 55 45 27 27 36 50 61 62 62 66 66 64
33 59 56 59 72 88 100 100 98 85 76 70 71 77 74 80 88 88 79 72 77 78 77 69 70 100 100 91 90 85 75 61 55 73 69 67 36 44 48 54 60 65 71 75 70
33 50 58 60 64 78 91 96 94 82 73 68 68 69 67 76 76 85 79 78 76 74 72 69 69 97 99 90 88 89 81 76 67 52 64 51 39 45 52 58 73 77 80 79 79
44 51 63 60 57 66 76 79 74 70 70 69 71 69 68 74 65 76 76 79 76 74 82 74 59 58 59 63 68 77 66 71 74 66 64 53 50 51 55 76 78 79 81 81 72
49 58 56 70 69 71 72 71 71 68 72 72 78 72 70 68 65 67 72 72 73 75 78 85 73 66 63 64 72 75 70 67 69 64 62 54 46 52 76 76 71 78 80 79 73
38 54 61 64 64 68 69 74 78 72 68 75 85 78 76 73 69 71 64 64 69 72 85 88 79 73 70 70 72 68 68 71 72 70 65 53 46 68 80 75 77 83 78 73 69
33 44 55 47 61 67 68 68 69 73 75 78 84 85 84 75 76 75 80 81 82 77 77 94 88 78 83 77 76 67 50 56 54 54 52 56 57 78 80 77 82 85 75 74 69

GFSSW_700_rhum_033.txt.gz
RH
27 40 63 66 60 57 88 98 97 71 89 89 98 74 23 6 47 99 99 70 86 44 26 24 25 28 36 43 49 90 97 88 66 52 50 48 52 47 35 37 35 38 40 46 45
19 63 96 94 92 91 90 93 97 94 83 84 99 95 60 14 46 68 68 82 88 75 31 21 25 26 31 38 47 56 87 76 59 53 56 52 52 42 31 28 38 35 36 38 38
35 95 94 91 92 92 87 91 87 98 92 91 97 92 82 55 22 20 98 99 88 89 44 24 28 34 51 45 47 48 62 66 55 54 59 55 53 41 42 37 37 36 32 37 37
91 88 88 90 86 91 92 82 78 96 93 97 92 75 70 69 43 27 53 87 92 93 44 33 30 43 85 53 43 65 56 56 55 56 56 52 52 48 36 39 41 47 35 31 38
83 72 80 81 85 89 96 83 75 86 86 91 89 85 70 64 45 49 30 69 98 98 47 36 31 43 96 95 85 65 66 66 66 66 49 50 53 51 49 50 38 32 24 23 28
94 98 92 88 83 87 95 83 68 70 58 48 45 45 61 58 72 43 49 62 99 98 74 79 31 50 98 95 86 91 84 80 69 56 45 42 57 52 39 56 31 30 27 23 22
76 77 87 92 92 90 95 90 68 62 59 54 74 52 44 45 71 45 67 75 95 98 90 99 88 90 97 95 98 93 83 88 76 50 75 44 59 66 47 60 40 34 31 26 21
67 77 84 96 95 88 84 92 64 60 57 61 60 56 40 41 64 49 79 78 71 93 89 100 98 97 98 98 98 92 88 77 49 45 61 62 55 55 59 52 41 47 37 35 24
73 74 79 96 78 77 51 65 70 63 64 65 58 55 62 59 51 43 94 98 97 98 68 98 93 92 96 96 88 81 62 59 58 33 57 56 56 51 50 26 29 33 32 27 23
77 69 81 80 70 66 62 70 65 67 67 70 75 67 49 53 23 48 97 95 93 92 99 99 94 92 93 75 58 56 53 44 44 55 50 66 65 50 44 32 21 17 20 19 17
57 57 65 80 74 86 76 78 76 63 69 84 88 69 70 94 85 94 100 99 97 61 90 94 96 93 73 61 49 41 52 40 42 49 48 64 57 53 62 25 15 13 14 15 13
34 53 64 69 74 66 70 68 60 65 78 48 67 97 98 75 98 97 98 99 72 76 100 87 95 87 72 65 68 64 56 55 55 58 47 50 60 62 48 16 14 16 15 21 18
61 46 35 41 47 57 59 54 59 56 92 80 98 67 92 83 97 98 99 98 91 99 98 100 94 94 88 73 74 63 58 55 66 73 63 55 54 30 37 16 15 12 12 13 13
49 58 72 50 35 31 39 37 68 90 98 94 89 79 86 94 98 95 92 96 99 99 97 99 94 98 94 86 66 62 65 77 75 72 42 54 21 43 41 27 21 16 16 14 13
56 52 54 57 60 54 58 66 80 88 93 98 97 70 91 100 97 100 98 98 98 95 99 99 98 96 86 76 70 73 77 84 76 78 73 58 46 37 40 44 36 32 27 24 22
54 54 46 49 57 64 69 71 77 99 94 98 98 99 96 99 98 98 94 98 98 99 99 93 98 99 96 88 76 77 75 82 81 77 73 56 44 36 38 39 49 31 27 23 22
57 45 44 48 50 51 59 71 95 94 97 99 98 98 94 91 85 92 98 98 98 98 98 99 99 99 98 99 92 86 78 77 80 87 63 60 57 36 36 42 46 39 36 31 32
66 56 50 48 43 48 60 71 88 100 96 99 97 100 97 96 90 96 99 98 98 96 98 98 98 99 98 92 85 90 77 68 63 58 49 57 48 40 44 39 40 35 34 32 30
61 62 52 43 50 53 52 59 90 95 91 95 94 98 99 97 94 96 97 97 96 97 98 96 97 98 99 98 98 98 93 79 56 41 46 40 42 45 37 35 38 37 36 34 33
38 59 52 43 51 55 48 64 93 100 95 96 87 93 88 96 87 82 84 84 90 79 78 86 98 100 98 99 98 96 94 87 68 75 40 32 26 33 37 33 37 42 51 54 52
30 57 58 50 51 53 59 95 91 85 82 89 94 89 98 96 84 77 84 74 79 76 70 80 87 100 98 96 96 96 97 82 73 62 51 25 24 36 41 49 62 62 59 61 61
28 57 62 55 63 60 92 97 97 81 71 74 79 95 87 90 86 82 78 90 75 75 82 68 98 99 98 92 86 89 78 71 57 67 55 56 41 44 58 59 54 61 69 70 64
30 52 58 63 92 70 71 85 84 77 72 69 69 68 68 89 85 92 75 67 78 78 83 68 81 98 98 93 84 85 77 72 70 58 76 48 42 46 55 51 58 66 68 71 70
32 53 62 60 55 86 63 67 69 63 60 62 63 67 78 85 74 86 75 68 66 63 66 70 70 77 64 72 80 82 80 78 74 76 56 45 49 46 49 58 70 74 74 75 72
35 61 60 70 72 72 66 61 65 71 68 70 78 70 80 79 78 84 79 71 71 67 68 79 70 56 57 60 66 69 86 84 77 65 58 47 46 52 58 76 74 71 74 73 71
28 56 67 66 68 72 76 74 71 69 67 83 90 85 73 77 72 78 78 83 71 65 64 72 77 69 62 58 59 56 63 88 77 63 70 63 56 56 60 71 74 73 76 75 73
16 48 67 69 73 77 88 69 71 72 71 74 86 96 93 86 70 67 80 84 83 73 78 95 88 74 86 72 72 70 37 44 52 50 59 72 45 64 76 77 76 76 76 76 71

GFSSW_700_rhum_036.txt.gz
RH
24 23 30 68 99 99 98 91 96 92 91 90 73 100 90 41 10 34 100 94 98 77 34 23 25 35 47 67 83 94 96 99 77 70 59 45 45 46 44 39 37 37 40 59 49
21 66 90 99 96 98 92 82 87 92 94 95 80 98 99 81 30 10 67 92 81 93 52 27 21 28 54 47 75 97 98 82 77 65 63 50 52 52 45 33 36 38 37 42 52
70 80 85 76 85 91 88 80 86 76 82 84 85 96 90 93 58 14 48 92 92 86 75 35 25 28 36 49 57 73 78 72 71 84 73 70 55 52 46 38 30 34 34 39 44
93 92 96 95 84 80 80 87 89 69 76 92 93 99 97 90 69 57 18 51 78 65 87 42 27 32 52 33 45 53 45 68 79 91 84 60 56 51 44 42 38 34 40 30 36
47 74 82 89 96 84 81 86 93 71 84 89 97 97 96 82 76 80 36 74 66 100 97 65 27 33 36 43 68 62 72 54 57 61 61 57 54 51 46 46 43 42 37 28 32
64 70 77 83 96 86 82 80 91 75 78 82 89 95 86 67 89 80 77 54 93 93 94 83 35 47 64 98 77 75 69 71 61 61 63 56 56 52 48 50 44 42 39 32 28
70 62 72 82 95 85 77 91 95 75 58 50 47 36 38 46 94 60 71 72 88 89 98 75 81 94 86 95 98 92 80 77 69 68 64 55 55 46 48 53 56 38 34 29 24
46 52 68 83 69 76 52 87 94 67 58 53 51 52 33 33 38 49 46 98 53 89 100 80 98 94 90 88 95 92 84 86 72 77 58 57 47 40 40 53 55 52 37 31 30
32 46 68 67 57 56 54 68 72 68 61 55 59 53 38 32 24 28 50 98 99 63 99 90 99 89 92 100 99 88 74 83 76 60 56 58 56 53 56 55 52 50 40 42 38
30 43 63 67 66 70 65 63 64 63 63 65 61 83 53 63 52 44 46 98 99 95 99 98 98 94 89 94 85 79 74 69 68 64 50 58 55 51 55 52 47 27 38 39 34
55 28 48 63 62 53 73 74 84 64 67 93 93 67 83 96 46 47 55 92 98 99 100 99 94 74 63 56 65 59 68 51 52 55 53 43 70 53 52 48 45 33 23 20 20
45 52 25 31 47 40 43 40 56 52 68 48 48 61 74 88 73 60 83 99 88 99 90 83 90 76 78 75 62 54 53 46 44 47 54 53 46 51 47 51 27 22 17 15 18
49 36 49 34 33 44 44 35 49 80 96 86 91 70 84 91 78 78 91 98 98 98 92 92 93 78 76 70 62 60 55 48 53 63 58 51 49 49 41 26 21 14 12 11 15
56 46 45 60 58 54 84 89 96 96 98 95 94 90 94 98 97 98 98 99 99 98 94 99 84 94 97 70 61 63 59 52 56 68 54 42 34 30 20 19 15 13 13 14 14
52 46 43 45 61 77 86 90 93 96 93 94 86 82 96 98 89 98 99 84 95 97 99 99 90 84 99 84 72 59 59 63 66 67 73 61 55 33 37 38 35 22 16 13 14
58 51 49 46 47 56 65 82 94 93 97 98 94 90 100 93 93 99 84 95 82 99 88 98 94 94 100 86 71 85 74 73 83 77 81 50 49 44 41 34 32 28 29 28 27
57 58 52 39 35 57 68 76 92 92 96 99 98 99 95 90 84 76 83 92 98 98 98 96 92 95 99 92 95 99 76 84 90 90 87 55 54 36 38 38 37 33 31 30 27
41 58 60 43 35 45 70 68 86 96 100 91 98 95 78 82 79 90 98 98 99 97 97 98 98 96 96 91 94 88 66 71 73 89 73 58 56 43 38 37 38 38 32 30 29
28 55 60 42 38 43 55 71 84 86 89 100 98 94 88 86 81 99 98 98 99 98 97 95 98 99 98 98 99 91 85 84 58 40 56 51 43 47 40 39 39 36 33 32 31
22 44 55 48 40 40 38 63 81 84 82 96 89 84 90 89 92 95 90 98 97 98 93 95 96 98 98 98 91 84 89 85 60 78 62 43 37 34 38 39 34 33 35 37 34
22 40 57 69 54 49 44 73 77 78 71 93 86 79 80 86 81 74 82 87 87 83 92 97 83 99 99 98 92 92 93 84 78 67 85 52 36 33 29 30 32 35 40 44 52
24 45 59 68 86 70 59 66 67 68 68 74 81 87 84 85 76 77 82 86 79 79 80 79 97 98 98 96 99 97 92 86 85 71 53 54 49 43 37 42 56 53 54 57 54
29 46 62 73 99 82 65 67 63 60 61 64 73 66 78 82 77 84 86 69 77 81 78 68 84 95 97 97 98 93 89 91 86 65 62 66 49 48 51 58 54 52 61 64 61
25 54 63 67 99 98 94 92 82 65 64 69 66 63 70 77 76 84 75 68 73 61 63 65 70 82 76 76 76 82 75 74 72 62 57 48 51 54 57 52 64 63 68 71 72
19 54 60 92 73 86 96 94 99 99 76 76 84 84 80 78 77 83 83 69 70 60 63 70 67 60 63 53 58 62 78 81 76 62 58 52 48 47 45 62 67 68 70 73 68
16 36 64 65 77 75 82 100 97 86 73 96 91 92 82 76 71 75 66 62 61 61 66 70 76 69 60 54 53 51 58 83 85 72 68 56 47 55 58 58 53 68 70 68 68
24 22 56 77 80 81 98 97 93 76 79 81 90 91 91 88 76 78 86 81 75 57 62 71 71 70 88 82 70 61 30 39 53 44 44 58 43 48 51 52 54 70 70 67 67

GFSSW_700_rhum_039.txt.gz
RH
22 62 84 90 93 94 92 92 96 86 88 97 92 77 89 87 61 16 30 34 73 62 52 26 26 37 53 90 89 100 92 95 80 73 49 61 61 45 44 36 38 39 38 49 50
90 86 81 94 98 95 78 84 86 79 91 91 95 86 100 100 86 34 19 75 83 67 78 30 24 31 58 80 98 100 97 74 68 63 66 63 73 52 46 37 40 39 38 60 58
32 40 62 73 87 96 90 73 75 78 78 75 79 82 98 98 92 57 19 55 89 82 91 43 29 34 38 58 94 91 75 70 61 76 96 89 77 58 51 46 39 38 38 43 60
31 62 63 66 78 93 89 74 83 81 78 69 74 82 96 92 86 88 37 73 97 82 84 60 33 45 41 43 67 86 71 72 76 97 98 90 77 72 54 47 36 37 30 36 51
32 41 54 67 72 93 80 68 75 88 76 77 90 90 96 94 88 84 46 36 82 69 89 72 36 42 40 53 52 59 78 68 78 88 85 95 90 60 52 46 42 38 34 27 33
22 36 55 67 73 80 75 69 90 87 70 87 92 96 95 95 92 86 35 27 66 94 68 87 43 35 58 64 44 49 71 73 70 91 77 83 94 71 49 49 46 50 42 37 32
19 34 51 53 49 50 54 79 96 87 72 64 62 85 92 87 80 100 100 47 80 83 85 66 60 54 68 88 70 84 58 75 83 72 74 70 69 66 49 46 45 45 47 44 40
19 24 46 56 54 50 54 72 88 71 47 46 44 51 44 42 72 74 99 82 74 72 99 98 81 77 76 99 95 88 72 78 80 74 70 63 54 48 54 50 42 36 40 43 41
25 23 28 44 49 64 61 62 66 62 62 57 53 49 43 35 42 56 79 98 76 92 99 98 87 75 95 95 92 98 83 84 74 72 66 50 42 40 40 42 38 41 35 33 30
48 32 29 38 30 49 63 63 59 58 55 54 50 50 53 46 39 27 50 98 73 92 99 98 91 82 97 83 78 70 74 78 69 73 72 50 42 51 48 46 42 42 38 34 33
62 48 34 64 64 28 32 63 72 58 61 62 63 68 63 45 33 30 50 99 88 69 76 95 97 65 41 94 84 66 75 67 67 70 62 44 43 43 48 54 49 45 40 34 37
58 74 65 45 57 72 46 42 44 54 47 46 43 49 66 57 51 37 50 98 99 66 77 100 99 75 81 83 74 71 61 60 61 63 65 58 53 38 48 48 40 39 40 34 28
56 64 82 70 68 70 79 89 92 96 95 86 60 57 78 81 76 64 52 78 98 86 93 96 86 90 79 77 67 69 63 60 58 74 75 64 58 47 37 38 40 34 30 28 24
57 54 70 74 65 78 77 87 88 87 96 97 85 84 81 92 77 83 53 64 97 86 98 99 95 71 76 73 63 65 60 56 56 61 63 58 51 27 24 27 30 24 19 18 18
52 52 56 59 50 70 76 92 95 92 94 94 97 92 92 98 88 68 66 96 93 98 99 91 83 71 76 62 68 66 61 59 55 57 58 62 53 30 23 27 26 24 16 15 15
40 48 51 44 45 64 75 77 82 95 97 98 95 98 98 97 97 90 98 100 100 96 98 95 100 100 96 80 81 70 64 65 66 64 74 59 60 39 24 13 24 25 27 25 18
29 46 49 35 37 52 68 72 89 93 96 96 98 98 99 98 99 97 98 99 99 98 97 95 95 94 95 96 92 86 65 88 88 90 88 55 55 48 39 36 36 35 31 26 24
24 34 48 41 40 47 59 61 86 95 100 98 97 90 98 98 99 100 87 85 85 84 96 97 99 93 90 93 86 92 69 66 87 96 82 58 62 43 28 37 35 36 34 30 29
18 26 52 42 39 42 42 51 79 89 97 95 90 83 82 95 97 98 99 99 99 82 75 94 99 100 94 98 81 88 83 75 78 54 69 56 53 48 42 39 36 36 35 32 29
17 28 48 45 36 38 36 50 72 80 84 88 89 80 91 94 95 90 98 99 94 90 88 90 89 100 100 98 90 87 87 94 82 89 70 57 46 34 40 40 39 38 38 34 31
18 33 52 51 58 53 49 51 60 65 71 79 81 80 77 80 77 79 88 96 98 92 76 93 92 98 99 99 96 98 98 90 76 72 87 57 41 36 35 32 36 38 40 38 33
22 41 60 64 72 57 64 64 58 59 64 71 81 86 84 76 79 77 85 84 88 97 97 98 93 99 98 99 98 98 95 83 76 74 61 60 49 36 31 34 40 40 39 41 46
25 52 66 84 87 72 65 68 64 64 63 60 64 71 80 82 79 79 79 78 80 84 85 80 89 96 98 96 99 96 89 83 78 70 64 62 48 42 41 34 38 42 57 54 56
21 53 73 76 98 90 86 80 76 72 66 64 62 63 77 76 81 84 73 70 75 70 70 68 76 77 73 73 76 96 85 86 94 96 74 67 53 47 50 47 57 54 48 61 63
21 54 77 96 100 96 94 90 91 95 78 69 68 73 79 80 75 77 82 68 68 64 63 66 63 78 72 69 76 75 79 88 88 86 80 57 51 46 47 49 48 45 52 66 66
30 37 76 76 91 90 91 87 94 96 93 90 96 85 82 84 80 77 72 64 65 67 66 66 68 62 60 56 54 55 60 75 81 78 75 58 53 46 47 54 52 51 55 66 66
36 21 66 99 99 99 94 94 98 83 85 98 95 87 82 88 82 82 83 82 74 66 64 62 64 70 74 77 74 61 35 39 40 53 60 70 55 53 56 55 55 54 54 71 69

GFSSW_700_rhum_042.txt.gz
RH
11 12 31 49 57 74 95 94 86 95 92 89 100 99 91 98 89 40 17 25 79 73 64 31 29 40 52 84 88 100 95 100 83 78 66 68 64 44 44 40 39 39 39 50 48
12 17 30 64 62 74 93 93 84 85 84 85 88 97 88 96 98 73 51 25 55 59 82 37 26 35 43 78 90 99 86 83 62 64 76 76 76 51 44 41 39 39 40 44 53
17 14 27 60 68 75 93 88 81 82 83 81 80 82 89 96 100 80 85 39 44 86 70 81 33 32 43 80 81 92 63 76 65 83 83 94 76 68 54 48 38 36 40 48 57
25 15 26 42 64 84 81 79 77 85 83 79 66 77 93 93 97 89 96 76 41 66 75 84 37 36 39 67 80 92 80 79 78 90 91 95 98 70 60 53 48 42 39 40 61
28 19 21 36 44 50 68 74 68 85 91 78 71 82 95 95 96 98 75 82 44 84 91 80 37 38 40 53 82 89 77 98 100 96 98 92 92 84 60 53 48 43 37 37 45
33 35 32 33 42 44 47 74 81 91 69 72 85 88 85 85 93 91 70 76 30 87 97 88 42 43 49 44 57 79 99 92 90 99 98 97 85 86 68 56 50 41 36 32 32
34 46 41 24 44 46 53 74 89 85 78 67 86 96 95 94 97 81 58 41 71 99 84 92 48 44 49 52 64 76 91 92 85 85 91 99 96 98 63 62 55 46 41 39 36
40 43 47 32 28 47 50 66 76 68 52 46 49 50 59 88 96 89 64 67 58 98 94 97 52 55 61 69 66 76 68 82 72 70 81 81 63 87 68 62 56 50 49 47 46
59 48 52 56 27 37 49 52 56 54 50 52 46 46 46 37 84 92 81 75 81 74 99 91 64 70 74 77 79 91 65 69 68 70 78 73 59 85 77 66 58 49 44 45 48
61 73 59 53 45 31 39 59 49 45 48 45 48 47 47 40 37 73 96 80 72 79 99 96 76 79 73 84 85 51 61 52 65 75 77 72 61 59 52 49 51 55 52 38 39
62 68 71 61 71 62 41 41 45 45 46 53 50 66 52 44 33 31 83 92 92 98 100 99 89 64 66 89 82 69 80 75 78 74 72 71 67 55 52 48 40 39 37 31 32
53 67 63 66 69 77 76 74 67 54 44 42 48 48 57 40 43 33 71 99 98 98 97 99 94 76 80 94 76 73 80 75 66 67 74 69 57 45 52 49 45 40 39 40 39
44 62 60 55 66 76 84 81 79 78 62 48 44 47 59 61 46 58 70 98 100 88 97 99 100 82 96 93 70 81 68 73 66 65 75 70 64 57 40 48 48 43 41 36 37
36 49 60 49 58 76 81 77 76 91 96 94 85 63 64 81 59 66 80 98 98 95 95 96 93 84 83 78 80 84 72 67 64 63 77 76 66 43 38 36 42 40 40 38 34
29 35 54 46 47 74 80 73 79 93 96 96 95 75 69 75 72 66 68 93 98 94 91 96 91 94 81 61 81 73 67 62 62 64 69 64 66 48 34 26 25 27 27 29 30
20 30 51 44 46 69 72 70 71 86 94 98 96 87 81 100 68 56 71 69 94 95 81 99 99 100 94 68 74 65 65 70 74 69 69 58 58 44 31 21 19 18 22 25 25
28 26 48 44 46 62 71 73 83 88 94 97 99 98 91 97 89 68 48 76 95 97 98 98 99 93 82 82 75 73 69 80 85 84 80 56 62 49 29 25 22 19 22 25 28
44 20 45 40 43 49 66 65 79 94 100 97 98 98 98 99 91 74 86 98 88 93 99 97 98 95 86 89 89 75 66 65 83 98 80 61 58 38 20 21 33 38 39 40 36
45 21 49 47 41 44 55 66 77 86 86 90 95 98 98 98 96 99 99 95 92 90 82 93 99 98 96 97 86 81 71 68 72 70 75 54 39 30 25 18 20 37 35 33 30
37 24 63 60 46 43 65 60 74 78 85 83 86 86 94 96 98 96 99 99 94 84 84 73 81 98 100 99 95 85 79 81 79 85 74 57 55 40 25 19 27 32 34 35 34
31 33 63 68 57 48 58 68 66 70 75 83 78 77 82 80 85 93 98 100 96 93 87 81 75 90 97 100 93 93 94 86 79 82 87 72 48 42 37 32 30 32 38 40 39
30 40 66 87 65 63 62 65 68 68 75 82 76 75 75 79 78 80 87 90 96 92 92 88 82 100 98 99 100 91 88 83 83 92 73 67 53 36 33 35 36 40 44 52 44
26 42 67 85 88 72 65 68 71 65 66 71 77 78 81 81 76 79 85 86 99 99 96 87 94 98 99 99 98 99 96 86 87 88 73 69 48 36 34 31 40 47 52 51 39
40 35 71 98 90 86 82 82 84 76 67 64 64 71 83 83 79 77 76 88 90 85 87 82 82 82 73 70 77 94 92 98 93 91 76 69 59 49 39 35 35 45 44 42 54
39 35 76 92 93 90 90 88 90 92 80 72 72 79 80 80 76 76 76 76 85 84 81 78 72 78 75 70 75 76 74 87 94 84 85 65 70 62 65 57 41 36 46 54 63
44 32 78 80 99 92 93 84 82 96 84 86 85 86 81 81 77 78 75 72 73 70 64 68 63 64 77 74 66 77 81 87 89 85 78 77 85 64 49 50 54 50 49 50 61
53 27 72 98 100 97 92 96 88 97 92 90 92 90 89 85 82 81 81 77 72 70 68 68 65 67 70 67 70 66 46 47 58 74 68 85 58 60 52 52 52 50 46 53 55

GFSSW_700_rhum_045.txt.gz
RH
26 26 24 19 26 69 65 87 98 95 92 96 84 76 86 98 98 95 39 17 32 74 69 38 35 42 59 97 99 94 100 95 70 56 47 49 58 60 47 42 42 40 41 48 39
27 30 29 20 30 46 67 95 93 92 91 89 87 84 94 99 99 98 77 32 31 43 74 49 33 36 52 71 99 99 100 79 62 54 48 54 63 64 48 42 41 45 39 46 46
29 32 34 21 32 35 64 77 85 82 76 75 75 82 89 97 94 99 99 64 25 49 81 86 44 35 59 68 87 100 95 83 80 66 57 56 74 74 53 44 44 54 39 39 50
27 36 39 23 33 30 37 64 67 67 85 77 75 82 89 97 98 98 91 91 44 58 90 90 51 41 96 99 73 77 99 91 93 75 72 65 82 86 66 53 47 52 65 43 45
32 40 45 24 28 30 31 54 60 70 86 75 73 81 88 96 93 96 80 96 67 39 79 99 50 40 99 78 72 96 86 98 88 82 97 83 85 92 68 57 49 45 59 50 47
47 45 49 29 30 34 33 65 68 85 63 64 74 87 83 97 96 98 79 80 77 29 90 86 64 52 97 58 83 88 100 99 100 90 99 96 94 98 64 58 52 48 49 47 42
50 63 54 49 28 37 35 62 80 68 60 64 75 73 90 94 95 92 88 83 86 31 68 89 79 57 70 59 70 89 96 98 98 96 97 100 100 96 78 64 54 58 60 42 40
52 69 65 63 34 34 40 50 66 56 39 44 57 91 91 95 92 92 68 86 85 80 90 99 78 63 54 54 68 83 100 98 95 89 97 99 83 97 96 78 77 71 74 53 40
54 67 69 60 55 35 43 38 53 54 44 43 47 47 53 84 96 100 100 96 68 54 92 99 68 74 67 71 61 90 72 98 82 80 71 82 64 69 99 78 75 79 67 59 47
48 60 69 68 72 56 36 38 41 45 48 44 44 48 48 54 72 99 94 91 81 79 98 97 60 78 76 75 83 63 56 78 78 70 81 80 80 66 90 74 65 62 59 55 52
34 49 67 70 67 79 57 41 39 38 46 46 43 52 41 43 42 87 90 97 99 98 99 98 61 76 65 78 65 60 77 80 82 81 80 83 86 62 79 89 67 58 56 58 55
23 39 65 65 64 77 82 58 58 49 46 44 46 57 44 40 42 59 90 97 99 98 98 99 71 67 73 86 75 68 77 73 79 72 77 83 84 63 84 74 68 52 44 45 54
41 32 54 61 59 75 86 74 76 70 59 52 43 46 56 44 41 33 79 87 87 98 91 98 89 67 79 93 73 81 56 66 62 76 84 84 80 73 45 54 60 52 48 45 47
58 24 39 60 51 72 83 94 78 89 96 92 74 64 64 77 56 53 60 82 97 90 98 98 99 74 86 88 82 85 81 76 71 70 81 81 81 53 48 45 46 48 45 44 43
54 23 30 57 47 68 83 86 88 90 96 96 98 70 74 79 64 63 97 98 98 92 97 97 100 84 75 86 81 80 78 78 76 65 68 75 75 54 44 31 32 32 37 42 44
49 31 26 52 49 70 78 86 88 90 96 97 92 87 88 97 61 75 69 98 98 97 93 98 95 89 77 75 77 76 75 68 67 74 80 68 70 55 39 23 26 20 24 33 38
48 35 23 48 51 63 69 80 92 92 97 98 87 66 71 100 90 90 67 97 98 97 95 99 86 98 94 78 74 87 74 91 89 89 87 63 62 46 31 27 24 23 20 20 25
50 34 28 51 46 60 67 74 80 94 94 100 89 88 91 100 100 100 100 96 95 96 85 99 99 100 100 81 82 97 80 72 86 97 79 62 59 42 29 25 23 21 18 17 22
51 30 33 47 48 53 59 74 73 84 84 97 98 98 100 96 99 99 100 97 84 78 94 94 99 100 100 92 75 86 80 67 62 73 77 58 49 36 31 28 23 17 25 20 20
51 28 44 59 54 54 60 74 78 86 84 82 90 96 100 100 90 99 97 73 61 66 90 88 93 99 99 84 80 77 74 74 69 80 81 60 55 41 33 27 26 21 15 25 30
41 28 48 64 60 60 65 75 82 85 83 82 80 88 90 95 86 90 80 81 79 77 96 83 74 100 100 91 92 87 84 78 73 72 78 79 48 37 35 36 29 27 26 32 35
44 40 57 80 63 74 70 71 78 78 81 86 79 80 81 86 87 89 95 99 99 95 94 81 69 97 100 96 92 95 85 83 76 90 81 74 60 45 41 33 33 37 38 41 44
37 40 68 83 77 85 78 77 79 76 77 82 82 79 82 81 78 86 89 95 99 97 94 83 95 99 100 100 100 99 98 93 88 83 79 79 62 40 41 36 29 38 44 46 45
45 40 74 88 79 76 80 87 87 77 68 68 70 82 85 83 81 86 85 97 100 99 98 93 87 81 73 73 81 93 94 92 93 96 87 82 72 63 51 45 46 38 38 46 48
48 33 56 96 85 86 88 90 91 92 81 74 78 86 81 80 71 83 87 91 97 97 96 96 91 80 90 93 80 77 76 73 93 82 95 75 75 62 59 56 55 62 43 49 43
45 36 59 77 90 84 80 94 90 88 89 90 87 88 80 81 74 73 76 72 90 93 90 89 76 68 82 81 76 83 86 79 80 84 90 91 76 62 60 54 53 60 46 41 52
40 47 43 76 96 93 86 91 86 82 92 94 95 95 90 86 82 81 80 75 77 74 75 73 72 66 69 69 69 67 48 57 54 64 63 97 38 64 61 62 62 57 47 48 49

GFSSW_700_rhum_048.txt.gz
RH
16 19 29 39 21 21 23 63 83 90 85 91 90 94 89 74 98 97 77 38 34 65 74 65 43 50 74 99 97 100 100 95 71 50 45 39 52 61 50 42 42 42 42 34 32
18 23 38 43 22 23 22 40 73 74 84 90 86 81 81 69 98 99 92 67 34 68 81 68 42 44 55 99 100 98 99 94 81 66 50 45 52 63 54 44 47 48 51 51 46
23 32 42 48 24 23 22 26 65 67 76 68 70 76 80 89 92 97 100 87 34 67 75 80 49 42 59 68 91 100 90 88 78 78 64 63 58 69 55 44 47 50 48 55 64
32 35 49 54 28 25 23 27 48 55 56 75 76 76 84 90 92 89 98 99 50 43 65 86 61 40 61 78 84 83 99 96 86 86 69 67 68 68 67 52 50 49 50 54 60
47 42 54 59 32 28 26 37 54 74 77 70 70 71 76 78 93 82 96 98 94 30 96 97 77 40 64 87 85 99 82 72 99 100 90 82 77 81 81 62 58 53 56 58 59
52 52 58 60 40 29 31 44 60 63 57 58 72 81 83 81 95 78 95 97 83 33 93 100 95 52 74 97 91 86 99 95 90 98 93 98 84 80 76 72 53 60 56 59 60
44 55 62 57 55 31 32 40 56 46 47 54 74 76 85 96 95 99 100 80 97 34 90 100 95 59 71 95 100 92 96 99 98 97 99 99 85 74 69 86 63 50 56 62 60
31 48 65 63 70 42 32 36 49 48 39 45 50 92 89 79 94 97 99 78 90 50 47 90 98 55 77 97 76 98 97 100 92 100 98 97 78 85 76 96 70 58 59 54 60
33 39 58 69 65 65 36 31 37 48 44 45 47 57 77 87 97 99 99 86 92 48 72 99 93 73 73 83 96 99 89 96 93 86 83 87 87 82 85 96 77 88 68 62 60
57 28 47 69 65 77 56 37 34 38 45 45 44 55 44 67 98 98 87 98 97 68 97 98 99 86 93 86 91 96 84 79 77 77 82 77 65 68 74 96 78 95 79 75 68
50 30 38 69 64 74 78 57 42 38 45 47 48 50 48 46 95 95 87 99 98 87 100 95 98 94 86 79 70 61 65 74 95 81 75 76 68 72 83 85 98 80 72 65 61
48 50 32 60 61 73 84 74 72 55 43 44 57 57 45 39 42 75 95 95 98 83 98 98 94 95 91 72 72 72 65 68 77 80 80 81 78 87 77 69 86 71 65 62 59
44 58 27 52 56 71 82 88 82 80 71 49 42 45 45 40 40 63 93 96 98 73 97 98 91 90 77 94 73 88 75 72 66 80 86 79 84 80 65 59 75 85 68 58 49
44 55 25 44 54 60 86 90 91 90 96 85 56 59 43 56 49 51 88 92 97 97 97 98 84 77 82 96 82 75 78 70 69 76 88 86 88 63 57 48 53 51 75 42 42
45 54 24 44 52 64 86 92 94 95 96 98 97 50 62 77 62 90 66 71 85 92 97 98 85 70 69 87 79 89 85 83 76 82 83 82 86 65 52 41 29 41 34 40 48
45 54 23 46 53 63 86 89 90 93 96 98 78 63 81 78 82 100 100 71 96 99 98 99 98 85 76 91 87 82 82 85 76 71 82 70 72 55 43 29 29 28 30 38 46
47 50 24 50 49 56 79 81 96 94 95 99 99 70 89 80 69 81 94 98 92 97 96 98 99 97 76 92 90 85 76 88 89 90 90 71 71 55 44 42 37 31 27 23 25
51 45 27 54 52 56 68 77 87 88 98 94 88 76 99 77 76 64 98 97 95 83 96 98 99 97 85 80 90 97 79 71 87 96 82 61 68 47 38 28 24 24 24 27 26
51 37 32 57 58 49 61 79 84 91 95 97 98 98 92 95 96 100 91 95 93 76 84 98 99 98 94 81 80 91 88 74 62 76 79 60 49 32 28 27 26 24 23 20 21
50 36 45 63 60 65 71 80 92 95 96 98 98 98 93 94 92 99 80 82 79 79 86 92 97 100 89 95 89 82 77 84 72 81 83 60 54 40 29 31 32 27 27 23 18
42 39 53 65 70 62 76 84 94 94 88 94 97 100 95 97 100 100 85 64 69 74 92 85 83 97 99 98 93 87 85 80 72 66 80 74 48 38 37 38 37 32 30 26 24
48 45 62 79 66 75 77 79 81 84 87 87 89 96 98 100 100 94 87 83 81 67 76 79 84 99 98 96 89 88 83 78 72 87 79 78 60 43 40 42 41 33 31 34 40
46 48 68 86 74 79 84 89 84 81 82 83 86 84 86 90 89 93 88 94 90 84 73 83 95 99 98 99 95 96 92 87 83 76 72 82 66 44 42 41 46 38 37 39 44
42 52 69 89 78 78 79 85 86 81 73 72 78 84 83 83 80 88 91 98 98 96 92 92 89 81 75 68 69 86 73 83 93 96 86 81 73 60 54 48 49 55 53 41 47
42 39 53 81 94 85 86 85 84 91 84 81 84 86 86 80 77 83 85 97 99 97 99 98 96 91 82 82 82 77 84 83 92 88 98 76 76 63 56 58 63 65 57 56 51
36 41 60 77 88 88 88 90 90 82 90 92 89 89 82 80 76 85 82 85 88 92 98 96 91 79 72 66 82 84 80 82 80 76 84 75 78 68 66 72 71 63 60 53 51
33 42 48 67 89 90 87 90 96 82 87 92 82 84 91 84 83 82 82 84 88 82 88 92 89 79 67 68 80 79 43 52 59 61 60 84 44 66 64 67 68 71 66 62 57

GFSSW_700_rhum_051.txt.gz
RH
30 19 21 33 39 21 15 16 17 55 68 86 84 86 81 85 84 84 95 93 63 58 65 53 46 73 100 98 96 100 89 85 68 53 40 34 38 45 57 44 43 41 38 34 30
33 32 25 36 43 22 17 17 18 42 53 70 81 80 78 90 82 91 93 98 70 67 59 67 49 51 80 100 99 90 97 99 89 70 54 42 47 46 58 45 48 47 43 39 48
31 42 36 41 49 25 18 20 28 37 43 50 63 66 78 86 76 80 99 98 86 64 76 80 83 51 51 74 100 100 97 91 99 84 82 51 55 54 59 47 60 58 52 48 55
25 43 50 48 55 30 20 23 37 46 54 53 59 65 68 72 80 73 91 98 95 60 89 97 90 56 48 68 90 89 73 90 99 96 87 63 54 60 65 52 54 62 54 52 56
36 37 51 52 57 37 23 26 45 54 56 57 54 58 66 66 70 83 78 98 95 52 93 94 95 56 48 72 82 86 99 86 99 98 90 78 61 60 63 59 60 57 52 54 54
51 31 46 59 57 50 28 28 44 45 46 51 54 54 74 72 75 81 92 98 97 41 85 89 98 59 54 63 71 76 85 84 95 97 97 81 70 73 56 70 60 66 63 60 58
44 42 39 63 63 66 35 26 43 38 35 42 50 79 83 91 87 80 100 97 91 48 67 76 95 67 50 74 74 85 89 92 94 85 82 99 86 53 54 68 62 64 74 63 64
41 55 30 56 70 69 53 32 34 50 36 40 43 77 89 91 96 90 96 84 94 54 63 92 98 84 63 66 78 85 95 96 96 92 94 98 84 65 60 62 70 74 74 68 61
38 49 35 44 72 66 69 44 33 37 49 42 44 48 86 89 95 89 84 94 93 86 64 99 99 91 66 70 86 79 90 97 99 96 94 78 59 72 70 80 71 78 76 73 63
37 42 49 34 69 71 78 63 44 34 41 44 42 52 56 78 93 92 98 92 74 90 66 98 99 87 63 82 94 94 98 92 100 99 99 96 78 82 71 78 63 71 79 70 59
37 40 54 29 67 72 77 76 70 43 44 43 39 40 47 59 100 92 80 98 96 68 92 99 98 79 58 83 94 86 96 89 100 93 90 88 81 81 68 76 68 81 77 64 58
35 41 53 28 63 66 80 84 82 63 43 39 52 44 39 45 71 89 95 98 98 71 98 99 99 87 68 84 82 65 86 86 97 86 85 85 75 66 69 56 55 58 74 68 64
33 41 53 26 59 63 81 86 92 94 82 47 39 47 41 41 46 84 87 95 98 74 99 98 98 97 80 83 84 72 59 76 69 72 82 85 76 66 65 50 55 54 85 70 66
33 42 53 25 58 61 86 89 95 95 96 73 47 54 45 57 53 83 89 96 98 90 94 96 97 95 94 83 78 91 78 60 57 72 94 82 84 51 52 49 48 40 75 73 61
36 44 51 24 53 72 85 96 95 96 95 95 95 49 63 79 72 69 91 91 98 88 91 100 99 98 96 91 75 74 82 75 66 82 85 89 86 64 46 40 32 37 55 70 68
39 44 45 25 54 65 87 93 96 95 96 98 71 60 76 85 98 75 94 80 97 92 88 98 100 98 90 98 86 71 81 82 77 74 90 79 82 65 53 38 38 35 36 52 80
42 47 40 32 56 61 81 88 98 95 98 95 85 78 74 93 98 98 79 92 98 98 98 99 99 86 80 96 85 90 90 95 92 90 85 72 75 68 53 51 46 39 37 40 44
47 46 38 43 54 59 74 90 93 100 94 93 63 78 93 95 97 98 100 72 79 89 97 98 98 78 77 90 83 88 76 69 93 93 79 68 73 49 37 33 35 33 35 32 33
45 44 36 45 63 53 70 89 98 97 98 70 82 94 85 89 77 91 88 79 69 72 97 98 98 98 89 93 89 86 81 69 66 78 76 62 59 39 30 34 35 32 25 26 26
43 43 44 49 66 63 85 93 100 100 98 97 96 88 83 83 55 71 88 91 98 88 92 92 97 95 99 89 93 84 77 76 73 83 79 61 52 32 37 40 39 36 32 27 26
42 43 54 66 66 71 88 98 98 97 98 99 98 96 86 76 76 64 86 95 85 85 85 89 89 98 95 100 86 87 87 85 72 70 73 67 42 39 38 40 38 34 33 30 27
41 43 52 76 76 79 85 88 89 92 96 98 97 97 84 87 97 100 86 93 83 91 86 81 85 100 100 90 92 88 77 79 72 82 76 76 56 40 40 41 35 42 40 30 32
40 42 47 78 87 92 91 92 87 83 87 96 96 95 97 96 96 100 94 93 84 77 87 84 88 97 98 99 100 98 87 79 80 72 73 74 61 47 46 41 40 40 44 51 41
36 41 48 76 83 89 91 92 89 78 78 74 90 89 90 88 86 95 95 98 97 97 88 90 85 79 71 73 74 80 77 84 84 88 82 76 66 53 46 41 43 49 56 55 55
30 35 44 75 96 89 89 86 88 86 82 75 83 83 85 82 86 89 91 94 99 100 98 92 85 86 82 77 75 73 70 71 77 73 88 64 64 55 48 50 56 66 63 64 61
29 31 44 67 94 93 94 93 89 84 84 86 85 84 78 75 72 85 86 89 93 91 91 89 90 91 88 86 75 68 66 83 82 76 88 75 76 55 58 65 66 65 73 75 67
25 31 40 60 90 95 89 91 98 89 84 83 82 84 88 82 81 83 82 83 88 87 86 95 93 86 72 66 64 55 37 47 56 58 67 77 48 51 40 42 51 64 74 71 71

GFSSW_700_rhum_054.txt.gz
RH
42 23 35 31 32 33 31 16 12 17 27 52 76 82 81 97 98 96 82 76 95 42 67 69 50 93 100 94 87 100 93 84 80 68 59 38 40 47 53 45 38 35 32 30 35
42 29 36 42 44 39 32 16 15 19 29 45 57 82 81 75 76 72 77 86 99 58 79 70 59 72 100 100 94 98 82 86 90 71 57 48 43 46 55 48 43 40 36 32 31
40 44 31 45 47 41 36 16 19 21 34 37 44 56 68 70 95 87 81 87 98 80 63 72 79 61 93 100 98 89 86 96 88 79 66 62 58 55 55 52 45 44 40 36 32
36 45 32 42 51 50 42 18 22 30 46 51 48 53 58 63 85 74 80 88 98 86 71 72 80 76 96 92 100 87 90 97 86 78 92 72 61 62 60 62 55 52 50 46 44
37 42 48 36 52 57 53 22 25 40 34 38 43 48 52 66 63 67 68 95 98 93 90 85 91 96 90 99 94 89 90 95 96 91 86 85 62 62 70 63 64 67 65 55 50
39 40 51 32 55 64 62 33 24 38 33 38 40 64 58 66 61 64 66 73 97 97 97 96 100 100 97 97 88 97 99 98 99 96 98 89 92 73 59 70 68 69 67 58 58
41 38 43 38 44 68 64 44 26 38 33 35 37 57 74 73 82 65 68 89 92 95 99 98 99 90 100 96 91 67 73 81 81 84 80 99 91 86 66 61 71 72 68 65 59
44 40 39 54 35 71 65 61 36 30 44 36 41 44 84 81 96 86 70 92 90 97 98 98 99 86 76 78 74 72 88 90 77 77 81 96 73 69 74 61 66 69 73 76 73
44 40 40 56 32 68 67 74 51 32 36 46 44 46 69 87 96 100 93 97 94 58 84 98 98 81 64 86 91 95 80 94 90 92 90 86 90 99 75 70 55 65 70 82 88
40 38 41 56 31 64 69 80 65 40 37 38 44 52 53 76 97 94 98 96 97 62 74 91 98 81 96 84 66 65 66 89 96 93 96 89 99 73 80 82 66 59 66 74 87
34 37 43 56 30 58 69 81 75 54 40 40 44 48 52 78 96 96 95 97 91 80 88 99 98 94 94 84 67 66 73 87 93 86 97 92 98 66 76 72 65 63 65 69 77
33 38 44 56 29 57 69 83 83 73 53 39 52 50 47 84 91 94 90 98 98 100 86 98 98 98 96 96 88 88 75 73 94 97 97 98 81 67 64 66 59 62 69 70 66
31 39 45 52 31 60 73 87 88 84 84 43 38 50 48 80 79 88 81 97 100 100 91 97 98 98 93 91 82 81 73 75 73 92 86 91 89 68 58 56 46 50 57 65 64
29 41 45 42 45 60 74 90 91 88 88 53 46 48 55 70 87 95 77 98 99 95 72 98 98 100 93 90 80 78 75 84 83 73 62 75 41 62 54 41 31 43 54 55 66
30 42 46 34 42 60 77 89 90 87 87 91 75 40 46 79 75 97 77 98 85 62 90 97 99 98 96 92 82 83 56 79 75 65 75 79 68 40 47 32 45 34 44 42 61
32 45 44 34 52 57 78 87 87 92 92 94 52 54 71 81 89 100 98 97 96 76 97 97 98 99 99 80 66 73 84 85 84 74 70 61 65 45 54 55 36 29 33 43 76
35 44 41 35 55 57 77 83 95 95 96 88 63 82 78 96 95 100 100 98 93 89 97 98 99 96 96 87 71 73 70 82 78 82 60 69 72 49 52 47 50 46 39 38 68
35 44 42 40 54 53 74 90 97 93 96 86 70 71 91 95 99 96 90 98 94 90 98 98 98 97 92 97 89 80 58 57 62 62 50 69 66 48 37 38 36 40 43 36 34
34 43 38 44 51 50 82 93 99 99 88 54 59 69 88 86 95 100 97 96 96 95 98 95 99 99 95 93 87 98 87 68 68 68 62 51 59 39 32 34 34 34 33 33 34
36 43 46 46 57 74 84 93 98 99 94 82 97 59 89 83 85 98 99 98 88 93 96 98 99 97 92 97 84 79 84 72 72 74 53 45 48 30 41 41 41 37 35 32 28
33 44 47 48 58 79 94 98 97 98 98 98 100 92 94 81 66 79 98 96 79 89 96 88 89 99 94 91 92 88 89 79 71 70 51 38 30 36 42 40 42 37 39 35 31
30 43 44 52 70 81 93 95 97 100 97 97 97 85 90 70 46 62 93 96 90 90 98 85 98 100 99 88 89 91 84 78 66 75 73 64 40 39 41 43 40 36 35 32 42
28 36 40 48 83 83 92 92 90 94 97 96 95 89 86 86 78 90 84 88 92 92 91 87 96 97 98 96 91 93 82 74 79 72 81 62 48 46 40 37 37 43 43 40 42
29 35 40 51 73 80 90 90 85 87 86 96 94 93 86 84 86 93 90 93 86 78 90 89 87 81 65 73 79 83 90 80 79 84 68 68 63 55 49 42 42 56 53 52 53
26 31 36 54 76 82 88 90 84 87 81 87 97 92 90 85 90 91 90 95 95 86 86 91 86 80 70 72 78 76 76 75 80 66 81 69 64 64 70 72 53 58 60 66 63
23 31 34 49 83 84 88 89 85 76 81 82 83 85 79 75 74 83 89 99 97 94 93 92 90 87 88 82 79 75 71 71 74 70 91 76 72 63 65 68 63 55 54 63 64
22 29 35 45 84 94 84 91 88 83 81 83 82 86 85 79 77 85 88 91 89 91 89 96 90 80 80 70 63 56 49 46 47 46 63 88 68 75 47 42 38 31 32 48 58

GFSSW_700_rhum_057.txt.gz
RH
24 25 40 30 37 42 34 38 25 13 14 18 30 62 74 90 85 94 96 100 79 56 46 68 61 96 99 96 99 100 99 90 72 56 72 66 42 40 45 34 28 39 38 32 33
32 29 33 40 38 44 42 43 23 14 18 19 25 45 67 78 91 84 96 85 82 79 44 72 67 81 99 97 94 97 97 86 84 75 76 57 56 39 45 46 42 38 41 33 36
33 36 35 46 37 47 50 47 24 17 26 30 31 42 54 67 63 95 69 82 87 96 38 59 90 83 99 100 93 96 96 84 91 81 92 65 48 42 55 77 82 43 38 34 34
40 37 39 45 39 46 58 54 28 19 32 34 37 38 48 58 94 79 82 81 86 98 67 86 92 91 100 98 96 99 98 95 100 95 80 80 56 60 71 77 51 47 41 38 38
42 43 37 41 47 39 64 59 38 21 31 29 30 37 43 67 91 60 77 84 84 96 71 90 74 87 96 90 88 99 97 91 90 100 96 81 66 67 68 61 58 51 53 43 42
38 44 39 42 52 37 65 63 47 26 32 30 32 33 68 75 81 60 55 70 86 96 86 83 78 98 92 92 84 99 98 94 99 98 86 86 78 71 70 68 67 64 67 61 53
37 43 39 42 53 35 64 63 58 36 30 34 34 37 62 100 80 59 53 54 77 95 99 86 96 99 89 78 86 91 85 99 95 97 95 93 90 74 68 84 75 73 70 72 64
33 40 36 41 54 34 62 64 66 45 30 37 40 40 76 90 81 72 58 62 58 88 99 84 90 90 98 86 95 98 90 98 82 83 99 82 76 71 76 81 81 72 79 71 69
30 33 34 41 54 32 64 66 71 55 31 35 42 43 99 82 93 83 79 67 92 87 99 98 94 99 87 91 88 89 93 95 85 91 94 54 70 83 78 82 61 66 70 78 73
28 33 34 42 53 32 66 69 73 62 34 38 40 59 78 69 96 86 84 95 87 94 97 98 98 81 93 84 75 62 46 64 77 97 99 66 69 90 84 78 75 61 66 80 76
30 32 36 44 47 38 63 75 78 66 39 39 46 47 47 94 97 98 93 98 86 98 98 98 98 93 73 69 53 49 43 57 68 93 95 69 82 94 89 88 77 78 58 66 74
29 31 39 48 35 51 66 80 84 76 62 38 46 44 46 94 96 95 90 98 99 96 98 98 98 83 74 69 64 46 48 66 90 90 94 96 98 94 88 82 74 76 71 72 71
27 33 41 47 29 54 68 83 85 82 85 48 36 43 51 89 96 97 96 97 94 100 96 89 94 98 84 83 72 60 48 52 78 89 93 87 90 76 85 82 79 60 59 64 68
26 38 42 43 39 57 72 86 86 80 98 87 84 57 53 76 98 86 88 96 98 91 100 90 98 97 91 78 69 59 58 67 70 79 68 76 45 55 68 74 50 56 52 57 62
28 37 40 36 41 54 73 82 82 79 94 84 86 50 57 78 88 94 86 100 98 97 83 82 98 98 87 78 70 65 70 72 68 64 44 64 58 38 50 56 60 70 57 72 54
27 36 38 36 52 54 75 79 81 94 91 83 70 69 79 83 80 77 98 97 99 82 71 87 97 98 82 81 80 69 72 72 68 55 57 56 51 36 35 49 50 53 58 63 65
25 37 39 35 55 51 75 83 97 95 94 79 97 96 100 81 91 96 98 97 94 92 98 99 99 98 92 91 78 75 68 65 65 75 58 56 47 40 44 44 49 46 50 45 65
25 36 36 42 50 52 79 86 95 96 98 60 93 88 98 90 83 98 100 96 87 87 87 98 98 98 91 82 78 78 56 51 53 52 44 59 54 41 47 43 37 37 41 42 37
26 33 37 42 49 67 83 98 96 95 81 81 80 94 94 96 90 98 97 98 97 79 78 93 98 100 93 92 83 75 62 67 62 53 46 46 45 44 41 34 28 28 29 34 36
28 33 41 46 58 75 93 95 91 93 69 93 93 83 81 92 89 95 96 95 88 82 84 94 95 99 87 86 89 84 80 63 70 66 41 37 34 29 39 44 43 37 35 33 30
29 34 42 53 59 79 94 89 96 93 98 97 98 88 78 76 79 84 94 84 85 89 82 98 82 100 98 98 87 92 89 79 67 63 52 30 27 36 46 50 46 39 37 36 35
27 39 43 58 69 83 93 93 88 93 96 100 100 100 77 71 75 84 96 98 94 98 100 93 97 94 97 92 91 88 73 70 60 68 55 54 41 36 47 42 42 41 38 35 31
27 32 38 54 97 96 89 92 87 91 92 100 87 72 83 92 84 99 100 92 93 99 98 95 95 98 96 93 84 92 85 81 68 67 73 55 40 45 42 40 40 39 46 62 39
26 31 37 53 59 84 95 95 91 89 93 82 92 87 86 100 92 93 96 87 96 91 86 89 90 84 70 70 74 84 83 88 80 82 64 59 52 52 52 44 50 59 67 64 52
25 32 34 53 64 76 87 85 98 92 86 90 88 88 95 94 100 100 83 83 78 80 88 87 92 79 80 66 76 89 81 82 91 79 73 59 59 57 59 64 73 78 79 72 55
20 28 33 50 64 77 81 87 98 81 90 80 92 86 84 90 87 100 87 96 88 86 81 82 84 84 81 76 75 75 81 89 91 90 88 80 77 78 82 85 85 76 51 44 42
19 26 33 47 72 99 94 81 82 76 85 82 85 93 78 72 67 78 89 98 96 99 95 91 90 85 88 77 73 65 66 78 86 87 87 78 72 75 89 85 56 52 57 52 43

GFSSW_700_rhum_060.txt.gz
RH
22 31 32 32 35 40 37 44 40 36 24 12 15 17 29 59 73 77 72 75 95 88 48 97 89 78 99 90 96 93 97 91 68 53 54 68 61 44 48 50 47 42 51 77 60
23 28 37 40 37 44 37 49 47 39 22 18 26 26 32 50 66 80 88 73 97 97 49 57 80 70 98 92 94 97 100 88 69 63 74 69 62 46 49 45 42 34 41 53 70
19 24 36 43 39 45 37 51 50 44 23 24 30 34 33 42 53 73 90 89 96 87 62 33 71 72 98 91 99 92 91 84 87 85 86 78 67 47 54 60 70 35 32 45 50
17 21 32 42 39 46 39 52 55 50 26 27 27 29 34 36 83 91 88 94 91 94 98 46 73 99 92 97 92 96 98 95 89 97 90 79 61 55 76 68 39 36 32 42 45
16 22 33 42 39 44 42 48 59 56 31 30 29 29 30 51 85 62 70 67 91 93 98 67 88 97 90 92 99 97 89 99 94 83 95 93 81 63 78 76 51 49 41 42 44
18 23 30 39 39 43 42 46 62 61 38 32 33 32 35 81 85 71 52 65 76 82 97 88 86 93 88 92 95 92 83 86 100 98 99 89 84 68 61 58 62 56 56 49 49
18 22 26 35 38 44 39 49 64 64 44 31 39 36 38 83 97 83 57 50 66 82 97 94 98 89 96 98 86 99 83 93 99 98 89 98 74 55 59 69 69 67 64 62 62
18 23 28 34 38 49 34 52 68 66 48 31 38 43 50 61 82 77 55 49 54 69 94 85 99 97 91 87 88 78 98 99 99 87 99 83 80 76 65 59 59 64 76 74 72
19 24 28 35 38 48 33 55 72 67 41 34 36 39 96 61 66 85 79 68 55 84 98 81 88 90 89 88 93 86 79 97 98 96 100 81 78 70 72 68 60 60 69 77 75
18 23 29 36 42 39 40 58 76 72 42 42 41 63 93 83 94 82 77 69 66 84 95 100 98 95 92 94 93 96 86 88 97 91 89 88 64 79 68 58 64 61 62 68 73
16 20 31 38 47 30 50 69 82 85 53 38 46 44 46 68 96 91 67 81 94 97 97 99 94 90 77 72 70 72 65 67 66 90 92 91 57 84 84 79 67 68 62 62 61
18 21 34 38 42 40 55 77 86 84 94 42 36 36 40 94 98 95 83 94 97 98 90 98 94 78 90 80 65 60 64 81 81 97 83 92 86 82 69 76 73 65 74 63 64
17 22 36 38 34 47 59 84 86 88 97 48 38 33 54 88 97 99 93 92 89 98 98 98 97 98 92 79 92 80 58 86 74 77 95 97 95 84 64 65 63 79 74 78 60
17 25 35 36 38 46 67 86 89 88 96 89 67 54 53 74 97 95 86 98 98 98 94 98 91 89 86 93 70 53 46 61 62 70 82 68 60 50 48 48 47 78 79 74 76
18 24 34 36 36 45 74 83 88 84 96 81 38 52 70 86 97 94 98 99 95 98 78 90 85 91 79 69 65 57 63 95 71 74 65 76 68 43 51 54 40 67 61 64 65
17 25 33 36 42 47 74 78 82 99 94 55 47 72 95 99 83 96 96 91 92 77 82 95 98 100 96 76 86 65 70 74 66 62 69 55 58 45 50 45 50 60 62 56 40
18 25 34 35 44 49 76 81 97 88 100 84 80 94 90 69 95 98 94 88 96 93 92 80 98 100 88 77 64 59 64 74 82 79 81 52 53 45 46 46 40 37 53 55 61
19 25 34 34 42 57 83 93 93 99 98 83 94 95 93 83 86 93 96 80 83 94 100 97 98 96 92 82 70 70 54 62 67 81 66 52 52 47 43 44 44 47 43 42 49
20 26 34 36 45 72 93 92 98 96 77 93 94 96 85 80 87 95 94 96 90 98 93 97 99 98 99 85 77 74 69 67 60 49 60 53 44 45 45 38 35 34 32 34 38
19 27 33 40 56 76 90 92 99 84 53 90 84 86 74 77 91 97 94 92 86 81 74 81 95 96 91 83 70 72 73 67 59 69 46 44 39 38 42 46 44 38 36 34 34
19 26 34 44 65 74 100 99 100 91 82 89 77 91 76 78 77 81 94 92 84 82 69 81 84 98 89 87 84 83 79 67 61 59 84 55 41 38 42 46 44 39 38 37 37
21 25 34 46 71 73 99 99 99 100 100 98 78 90 78 72 77 83 97 98 92 82 85 86 91 99 97 98 97 89 82 69 67 65 56 53 45 42 42 43 46 44 42 50 36
21 27 34 44 82 99 85 90 99 97 98 98 79 80 84 74 80 93 92 84 99 90 93 97 92 96 98 95 93 91 84 81 71 65 71 70 49 46 47 46 43 43 51 64 61
21 24 33 45 79 97 90 93 83 91 96 99 92 90 97 92 93 94 99 99 97 93 89 93 81 85 80 75 67 68 74 79 77 76 69 63 48 49 51 54 64 66 66 65 63
20 25 26 41 57 97 97 92 82 82 88 94 87 92 95 93 95 98 100 98 92 89 87 90 91 86 85 78 80 80 76 72 82 65 78 63 60 58 61 65 68 65 61 58 52
15 21 26 46 66 76 93 91 91 78 92 79 96 80 85 97 98 96 89 99 98 86 84 86 87 82 77 72 72 72 85 83 79 82 81 80 70 76 76 72 63 58 56 50 46
14 22 26 38 66 85 82 84 90 67 86 82 99 88 73 71 70 85 85 92 99 94 91 89 81 77 83 77 70 67 66 68 76 84 89 95 85 78 75 72 66 54 65 55 60

GFSSW_700_rhum_063.txt.gz
RH
9 5 6 18 38 35 34 41 36 43 42 36 22 14 16 21 28 52 72 70 59 97 72 67 98 94 78 99 89 89 100 81 70 57 59 55 50 49 43 43 52 58 63 56 63
14 5 10 19 36 38 34 42 36 48 49 36 21 23 22 26 28 42 58 84 70 97 92 78 98 94 79 100 95 99 99 77 73 69 59 58 52 55 49 48 44 49 73 66 74
15 6 11 24 37 37 37 42 36 51 53 39 24 27 28 27 28 41 78 100 85 97 90 83 92 91 77 100 99 97 99 80 74 80 76 67 62 55 52 50 44 43 44 59 66
51 7 14 22 32 34 37 44 35 55 56 42 27 28 28 32 43 60 74 81 95 94 98 80 91 94 87 99 97 98 92 89 81 95 84 74 68 54 53 48 41 38 30 30 56
91 8 16 22 28 32 37 44 35 56 59 45 29 31 30 40 63 53 63 66 80 96 96 88 67 87 97 85 99 100 99 95 90 98 90 78 70 57 62 61 58 45 30 26 44
84 7 16 23 30 32 37 42 36 59 64 47 31 34 33 35 62 67 51 65 66 93 99 81 79 82 83 77 100 97 88 97 98 93 97 78 78 60 79 74 81 60 40 30 36
37 6 17 23 30 34 39 37 43 59 67 47 31 36 38 40 69 93 61 51 52 92 95 98 97 89 99 85 91 95 93 95 97 98 94 89 69 89 86 84 77 60 48 44 44
11 6 18 24 31 34 42 32 54 66 67 39 31 33 39 66 64 75 81 52 50 72 95 97 94 91 93 93 97 100 99 99 95 98 97 89 75 86 84 75 75 66 53 44 61
12 8 17 26 33 35 39 39 58 74 64 33 34 34 70 67 69 83 86 78 54 55 83 93 93 98 99 96 97 100 99 96 99 90 100 93 85 78 68 63 60 54 66 53 46
8 9 18 28 34 42 33 51 66 75 60 38 48 49 66 53 88 81 78 76 75 71 88 97 94 99 98 98 98 71 70 83 87 95 100 96 78 76 69 65 60 55 52 58 52
7 11 19 32 35 36 42 58 74 78 59 28 35 40 48 85 96 92 88 75 71 95 87 90 96 96 98 81 73 73 79 65 74 85 96 96 89 72 56 54 58 57 55 64 51
7 12 21 35 35 34 49 67 76 73 41 30 33 40 54 95 97 95 76 95 89 99 90 83 90 96 98 98 84 67 68 62 67 91 98 99 89 69 73 56 60 57 50 57 58
8 13 25 33 32 39 51 74 79 80 69 72 52 46 74 97 97 100 84 86 97 97 95 79 71 98 92 92 86 91 74 60 58 72 95 92 89 72 70 66 60 63 56 55 60
8 14 26 33 32 42 58 71 81 81 85 66 53 69 81 97 97 96 90 87 98 100 99 97 90 88 81 76 78 80 72 68 76 96 91 90 78 54 43 53 66 61 52 53 76
9 15 28 34 31 44 60 71 76 76 96 58 46 69 96 98 95 94 98 90 97 96 95 99 89 99 99 80 87 65 64 63 76 70 69 72 85 41 48 51 53 52 62 67 61
9 17 29 32 32 43 65 72 81 88 88 45 55 79 89 92 98 97 98 95 96 90 98 100 93 98 97 92 89 76 73 98 98 90 73 72 76 42 45 46 40 50 58 54 47
9 18 29 32 34 41 69 80 89 83 86 68 76 90 87 98 93 88 88 87 86 87 97 97 98 94 92 96 86 88 71 98 96 78 77 61 61 51 50 50 47 49 60 57 63
10 19 28 32 33 40 77 88 86 82 88 66 87 92 86 85 92 90 89 92 92 81 88 97 98 90 76 73 71 71 58 62 85 93 73 55 53 46 48 46 45 44 41 54 56
10 22 32 31 36 51 83 93 85 77 73 77 82 81 77 79 89 88 92 92 100 92 93 96 97 91 82 70 61 67 68 60 55 55 63 52 46 51 48 45 44 42 37 34 43
12 22 33 34 43 65 90 97 98 57 83 91 89 85 71 86 89 91 89 84 86 79 88 92 98 92 85 78 67 71 72 65 59 63 58 59 47 43 50 42 33 31 31 30 32
12 23 33 39 54 71 98 98 99 63 66 82 79 84 71 79 84 91 92 94 72 73 70 83 92 99 88 79 78 76 71 62 60 63 84 58 45 45 46 38 39 38 40 41 41
16 22 34 43 60 91 100 100 99 92 88 74 82 81 73 78 83 89 98 95 70 75 76 71 86 92 97 82 73 75 73 70 62 61 57 54 48 46 41 41 43 43 52 58 57
16 25 31 48 68 97 99 100 97 91 88 76 77 72 72 71 82 85 92 98 96 74 84 81 83 98 91 92 80 77 76 71 67 65 66 58 49 50 48 52 50 52 63 70 63
18 25 30 43 66 94 90 94 100 100 95 77 73 80 81 80 85 95 91 98 100 90 87 82 84 78 78 83 73 83 76 80 77 73 65 63 53 56 59 62 65 69 72 72 74
17 22 24 35 60 78 88 86 91 95 97 95 94 91 93 83 84 92 98 98 95 89 88 76 86 86 84 84 72 66 68 70 77 64 68 46 58 65 66 69 74 72 67 68 66
18 24 24 33 64 87 97 94 86 87 92 99 90 96 91 76 83 85 98 99 91 86 85 84 82 81 78 76 69 72 77 72 72 77 76 70 63 65 64 71 78 71 65 59 52
14 22 27 39 62 67 88 96 93 82 95 90 95 79 81 83 74 87 90 84 83 84 79 80 76 84 84 84 77 72 69 81 79 82 81 82 84 87 83 76 68 70 66 48 49

GFSSW_700_rhum_069.txt.gz
RH
95 81 84 52 20 7 14 16 22 26 28 34 34 34 34 35 33 22 17 18 16 20 44 56 51 32 66 65 46 92 99 97 91 82 72 56 51 46 56 57 60 49 63 59 74
100 94 94 65 28 8 15 19 23 27 32 36 34 36 37 40 33 21 22 18 40 71 82 94 66 43 87 82 57 96 99 86 100 82 72 57 50 44 65 70 58 55 65 75 79
100 98 99 88 41 8 14 18 25 28 36 36 34 38 46 45 35 28 25 26 47 64 89 86 83 60 88 98 95 72 96 85 98 82 75 59 54 44 51 69 64 62 69 72 60
100 100 100 92 70 9 16 22 26 29 40 33 36 44 54 43 34 35 30 36 31 56 60 98 85 84 95 97 79 83 98 76 90 96 76 61 53 51 52 50 71 63 74 61 65
100 99 100 99 83 11 17 24 28 38 38 33 43 58 55 37 28 26 26 35 41 45 70 97 98 97 94 87 81 82 84 82 95 94 75 64 61 52 44 43 53 75 76 62 57
100 98 100 100 37 12 20 26 33 40 33 42 61 63 43 27 23 30 38 54 64 62 53 96 90 98 93 96 76 63 100 82 100 87 85 70 67 49 49 43 45 66 75 79 71
100 100 100 100 21 10 22 28 41 33 41 58 68 49 27 32 33 50 53 56 64 54 55 94 98 98 82 98 83 66 91 84 100 98 85 71 76 68 59 54 52 53 57 62 57
100 100 100 100 17 12 24 33 36 38 57 69 58 29 29 31 54 63 67 66 66 57 62 97 98 98 98 98 77 75 87 99 100 92 100 86 83 78 72 65 54 54 53 60 53
100 98 100 100 16 12 26 34 34 52 69 66 31 34 38 48 50 58 82 76 72 59 70 95 98 96 98 95 88 82 96 100 99 97 96 100 93 83 76 73 59 57 55 49 54
100 99 100 99 15 14 25 31 41 68 70 36 30 34 35 36 58 83 91 78 69 84 92 96 98 96 99 88 99 89 95 99 96 97 95 100 99 98 89 87 77 65 60 57 51
100 100 100 98 20 23 22 33 55 72 50 29 25 30 37 58 91 97 93 78 86 90 85 93 99 83 77 97 100 88 82 97 100 99 97 96 100 100 91 90 86 76 65 59 57
93 100 100 99 24 27 22 34 66 69 46 45 37 42 68 99 92 90 87 93 86 94 89 99 98 83 67 89 86 97 92 95 99 99 78 99 99 100 96 87 91 79 69 61 56
90 100 100 91 36 27 25 38 67 72 64 34 42 70 92 96 92 82 86 90 78 97 97 100 94 76 76 91 96 90 74 94 98 98 78 98 92 84 98 98 80 70 63 59 57
98 100 100 98 33 30 26 44 63 69 62 32 55 82 89 97 96 98 92 97 94 98 100 98 97 92 97 97 98 92 73 70 88 84 90 78 93 76 90 87 72 65 56 52 50
100 100 100 100 27 32 27 52 64 64 61 36 47 78 98 99 98 96 86 99 92 98 97 93 74 82 79 98 98 85 78 73 81 92 88 88 98 56 75 67 58 53 47 41 45
98 100 100 84 27 33 31 60 66 73 50 41 54 86 97 96 97 98 98 98 98 96 98 97 94 84 97 98 85 78 78 98 94 86 92 90 82 50 54 52 51 44 41 51 57
96 100 100 68 27 36 34 68 72 65 42 49 64 89 99 93 99 98 98 98 98 98 96 100 98 91 89 99 94 89 85 98 97 98 97 97 86 60 56 55 48 44 45 53 59
100 100 99 33 34 32 41 78 76 49 44 52 72 87 88 94 100 100 98 100 93 91 99 100 99 98 87 90 86 89 74 74 88 95 91 100 77 53 52 55 47 43 50 55 56
99 100 98 27 37 32 57 84 50 44 46 60 74 84 88 78 89 93 98 95 98 98 97 97 98 100 98 80 77 94 87 66 64 70 67 78 56 53 54 50 49 48 47 42 40
99 100 56 32 35 37 76 85 53 45 50 59 77 81 93 77 83 78 91 94 100 98 83 92 97 99 99 90 97 84 78 69 55 74 66 64 56 52 51 51 49 49 50 53 54
99 99 47 37 35 54 80 88 60 50 53 64 73 81 89 91 89 82 76 94 100 96 77 72 75 95 98 86 83 75 64 59 59 61 78 70 51 49 50 47 44 47 48 48 48
99 94 62 41 36 71 81 86 61 51 62 68 81 83 82 83 88 78 77 87 92 81 74 65 72 91 81 75 71 67 59 56 47 66 58 53 59 49 51 52 52 50 50 49 46
99 92 52 40 54 72 78 97 58 51 63 73 76 78 83 88 83 77 67 71 79 68 66 68 69 81 75 69 69 70 67 59 52 52 59 59 63 56 56 55 55 56 54 50 48
98 94 77 44 49 63 94 94 72 75 69 76 78 77 78 75 83 78 70 73 72 59 57 60 67 60 68 70 69 65 64 70 64 55 59 60 59 68 67 67 65 61 58 58 57
96 53 40 30 54 67 97 87 80 90 78 80 82 79 77 80 86 93 82 68 68 59 56 58 68 65 65 70 71 67 63 58 60 62 61 61 61 62 63 64 66 65 63 62 60
98 40 19 23 52 79 99 97 92 85 77 82 77 79 75 69 79 92 96 81 74 67 71 68 80 84 85 81 76 72 69 70 75 76 69 70 73 65 63 63 63 63 62 66 64
97 42 31 35 56 83 96 91 93 89 71 64 67 68 81 82 77 84 96 94 84 85 78 72 76 82 81 77 72 68 70 71 74 74 75 80 76 74 71 68 69 66 67 86 86

GFSSW_700_rhum_072.txt.gz
RH
99 92 100 100 99 98 41 6 11 15 19 21 29 33 32 32 35 35 33 28 24 22 19 20 23 24 26 19 49 62 98 98 89 99 64 74 62 61 62 58 52 53 48 64 77
97 98 100 99 95 98 35 8 11 17 21 23 32 34 32 35 39 44 35 30 54 49 44 73 83 81 53 24 61 77 79 79 66 66 66 73 68 62 65 59 52 51 42 61 87
78 100 99 98 96 98 57 7 13 19 22 27 37 34 34 43 48 42 40 35 28 27 53 64 74 86 89 48 58 79 71 66 87 71 86 82 90 66 69 61 52 43 39 51 60
92 92 74 98 95 100 72 11 15 21 23 34 37 34 42 56 46 47 38 31 26 30 32 28 51 85 97 62 52 95 68 82 82 94 97 81 76 78 59 67 64 59 58 61 64
93 82 94 99 100 100 70 14 19 18 31 36 31 39 58 58 47 36 28 28 27 24 26 33 61 97 96 74 65 99 86 71 88 85 86 93 85 76 66 64 74 73 68 63 62
82 85 85 99 100 100 48 14 26 21 32 31 40 58 63 50 35 24 26 36 41 44 48 59 68 96 94 75 78 90 93 71 82 87 95 94 85 99 67 56 58 87 76 71 68
85 92 87 100 100 100 26 18 28 32 30 38 58 65 52 31 26 26 40 53 57 57 54 65 70 93 98 91 80 70 95 91 94 83 97 95 95 98 67 61 60 68 90 86 68
89 92 86 100 96 100 30 21 33 34 35 54 63 54 28 26 30 42 49 54 61 65 62 71 92 98 98 96 98 94 99 98 81 98 98 96 96 98 72 69 65 70 81 92 76
99 94 90 100 100 99 28 24 31 42 54 60 44 27 32 33 37 44 61 73 70 72 67 71 85 98 98 95 99 99 98 99 96 98 100 99 98 98 78 76 85 69 74 73 80
85 85 83 96 100 100 30 34 29 53 63 46 28 28 33 38 54 79 86 82 67 76 83 81 95 99 95 97 98 96 89 91 95 99 99 93 99 86 81 76 85 68 58 67 74
98 99 90 91 99 100 36 31 34 61 57 34 29 31 50 89 95 93 85 82 78 89 93 96 100 98 93 97 88 92 88 81 99 99 99 100 100 97 99 79 75 72 64 63 66
99 93 81 100 99 100 41 30 38 69 54 35 34 46 90 90 92 93 85 81 81 87 91 99 98 87 97 98 100 76 70 92 92 99 99 94 82 99 98 99 76 72 73 69 64
100 84 95 99 100 100 35 29 46 69 52 36 43 71 89 95 74 88 79 97 77 96 96 97 98 89 84 95 87 98 69 72 98 99 99 94 92 91 99 100 84 78 76 72 71
81 100 96 100 100 99 32 34 59 70 52 35 45 72 94 87 92 97 91 96 92 97 97 97 99 83 76 93 90 86 87 74 78 95 97 93 98 97 100 100 88 76 73 70 68
57 100 93 98 100 98 35 42 64 68 60 34 49 81 89 97 99 94 89 98 94 96 98 98 98 99 69 72 76 85 86 83 72 79 78 91 93 76 88 82 90 85 74 72 62
27 100 98 100 99 94 37 68 67 66 52 39 63 86 81 98 100 92 94 93 86 96 98 94 100 97 89 98 99 93 96 95 94 90 92 92 85 63 68 83 100 99 79 69 59
92 98 97 100 99 52 52 67 81 50 37 47 68 90 98 95 98 98 97 99 98 95 95 99 95 89 97 99 99 98 93 98 98 97 98 100 81 71 63 63 66 70 63 59 53
98 98 99 99 99 55 58 76 66 36 38 57 68 84 90 94 96 96 97 98 93 88 89 88 97 93 96 97 97 98 87 74 90 96 97 99 83 60 70 67 68 60 50 46 49
98 98 98 99 82 57 75 97 46 30 36 57 66 78 84 85 98 98 98 99 92 90 95 99 99 94 78 81 86 80 71 64 74 87 88 90 60 60 63 64 60 50 49 54 60
99 98 100 98 58 75 77 85 52 34 47 53 68 78 78 88 89 92 97 95 95 96 99 98 98 99 96 88 82 77 64 58 56 76 79 68 57 55 61 60 58 54 52 51 51
98 98 98 81 79 84 100 78 39 45 49 57 63 83 86 91 82 83 96 94 97 87 85 79 82 95 92 87 87 78 66 58 62 61 76 74 53 56 60 59 52 46 46 45 45
98 98 97 68 89 100 92 64 39 45 49 50 72 84 86 86 84 82 88 93 84 80 69 70 91 98 92 88 75 69 61 56 49 63 53 55 62 53 57 59 57 51 49 48 48
97 97 96 79 100 100 83 69 48 38 50 58 77 79 87 90 83 76 92 92 82 74 70 67 73 81 82 80 76 72 63 59 50 50 51 61 64 60 62 60 55 52 50 48 47
97 95 97 91 100 95 68 72 51 55 52 68 71 76 85 86 83 74 79 80 72 68 63 60 64 56 64 61 66 70 66 60 54 51 55 51 52 61 60 59 58 59 59 56 57
98 96 86 99 92 92 78 70 51 57 63 72 68 68 75 78 85 84 80 70 67 69 66 66 64 61 62 63 63 63 61 63 63 62 58 55 52 54 61 63 65 62 59 62 64
97 96 96 69 82 90 97 81 58 58 72 73 62 63 72 70 82 88 80 64 62 60 64 60 75 72 70 69 68 66 68 70 67 64 69 63 62 61 59 62 63 65 68 69 71
95 82 76 88 87 98 96 91 78 63 73 71 71 65 63 62 74 90 90 82 81 70 71 64 69 75 77 77 75 68 68 68 68 67 70 76 70 71 67 65 67 69 73 74 74

GFSSW_700_rhum_075.txt.gz
RH
86 81 77 94 84 81 82 94 87 22 11 13 12 14 22 28 27 26 30 28 31 29 26 23 20 18 19 21 24 66 92 86 70 92 65 60 64 72 64 69 57 50 50 52 55
81 84 86 72 72 97 86 93 92 25 13 18 16 20 26 27 26 31 33 38 38 34 38 41 49 58 56 28 34 72 86 62 32 77 74 61 66 70 72 68 81 66 62 53 48
80 81 86 83 79 98 96 100 96 15 17 24 24 30 29 25 30 38 41 48 55 48 36 31 39 51 67 81 70 41 58 42 38 66 96 80 78 64 95 76 67 62 58 51 46
77 81 81 83 74 87 100 99 98 16 21 29 33 33 28 31 47 50 47 44 38 31 28 30 40 32 36 56 82 78 30 62 63 65 87 76 78 82 92 68 70 62 59 49 44
54 77 84 88 81 87 98 97 100 43 22 34 31 30 38 50 56 55 46 33 23 20 23 26 22 33 38 72 91 91 57 58 68 76 75 74 69 76 77 78 71 68 56 57 55
7 71 80 82 80 78 99 99 92 19 22 34 31 43 58 61 47 31 24 23 29 43 43 42 49 57 67 94 99 81 71 60 90 73 77 91 98 92 65 74 80 85 72 65 66
9 9 77 84 77 79 93 99 96 24 25 36 44 61 62 43 24 21 23 34 45 54 52 52 55 69 76 80 99 95 71 70 82 69 88 76 76 91 81 72 86 95 85 79 78
4 24 40 92 95 89 100 100 98 26 29 48 61 59 37 24 26 28 35 44 51 52 63 76 70 82 96 88 98 97 85 83 67 69 80 97 85 75 75 82 86 92 84 67 87
4 7 98 77 83 84 100 100 98 28 31 57 56 38 30 26 35 37 38 56 74 74 74 76 73 77 89 97 98 88 99 87 98 72 87 92 96 86 91 89 89 87 76 80 84
6 10 59 59 71 99 100 100 99 39 38 68 40 38 29 44 66 80 84 72 84 77 86 78 88 83 97 100 97 98 98 98 92 89 100 99 100 88 69 93 97 81 84 97 100
9 8 44 98 100 100 99 100 94 37 54 63 33 36 50 72 72 66 72 82 78 87 83 92 99 94 98 100 96 98 98 98 98 92 87 94 100 100 81 98 90 91 83 86 86
11 9 8 72 100 100 99 99 80 41 79 53 36 55 77 78 59 68 68 82 81 87 94 96 99 100 96 90 98 99 85 92 87 96 91 94 94 100 90 100 88 82 84 84 82
14 11 9 28 100 100 99 99 76 78 85 51 39 66 77 79 80 87 72 80 79 78 98 99 99 100 95 97 98 99 94 87 98 99 100 98 99 99 100 99 87 97 85 90 87
31 20 12 32 98 100 100 99 37 88 77 47 41 70 83 84 96 97 90 93 87 92 95 97 99 96 88 98 99 98 78 71 82 98 97 97 99 98 100 99 88 100 99 100 99
48 44 16 80 83 94 100 97 82 88 80 36 48 74 90 92 98 96 81 92 92 98 98 99 100 99 94 86 94 97 97 82 72 86 88 96 98 91 89 100 99 100 100 99 93
55 58 49 100 80 99 100 89 91 84 73 38 70 80 86 94 92 87 80 88 95 98 98 94 96 97 77 71 80 100 98 93 92 92 92 97 85 91 89 95 96 99 100 100 97
90 74 79 99 96 99 98 92 94 89 36 53 81 83 85 87 96 92 100 90 100 91 99 96 99 97 98 99 93 99 96 99 96 92 96 97 80 97 92 85 99 96 99 96 91
96 56 93 85 99 98 91 92 91 57 46 62 76 83 84 85 87 94 97 98 87 83 90 90 91 97 98 99 96 95 78 75 91 92 98 100 82 96 93 83 85 98 97 87 79
43 96 98 99 98 98 90 98 75 46 43 65 77 76 88 80 97 97 98 100 86 96 93 99 98 98 97 99 94 78 70 81 92 99 94 79 86 80 71 70 87 84 82 83 65
79 97 98 98 98 96 98 88 80 43 51 60 66 72 75 81 83 94 98 97 98 99 96 100 98 100 87 84 77 67 64 62 67 90 94 73 64 79 71 66 64 61 58 58 59
90 98 98 98 96 98 98 90 73 54 58 62 63 68 68 75 84 87 95 98 98 93 86 86 84 95 81 82 80 70 63 57 59 57 73 73 59 67 71 65 59 53 48 46 44
98 96 97 96 97 100 95 96 60 66 58 59 71 66 72 77 85 93 96 100 98 90 83 82 79 92 95 89 76 64 60 52 47 59 52 57 65 61 66 65 57 52 53 51 49
98 96 97 97 97 99 85 97 66 68 55 62 73 68 73 86 86 83 98 96 90 79 76 78 79 84 80 78 73 66 58 51 49 49 49 57 68 63 66 64 59 55 51 50 49
96 96 98 97 99 88 96 99 70 69 57 58 68 66 72 79 79 87 95 85 78 74 68 71 72 60 70 63 62 63 64 58 50 45 50 51 57 63 67 64 59 58 56 56 55
96 96 92 94 99 97 100 82 57 63 61 65 70 69 72 74 76 73 74 68 72 74 72 62 60 60 62 58 58 55 54 58 56 54 49 48 47 52 60 65 64 63 63 59 61
97 96 96 92 99 98 100 81 58 58 60 62 61 67 67 74 74 66 74 63 57 62 63 61 72 69 76 74 71 67 63 61 61 60 60 57 54 57 60 61 65 66 65 67 70
98 96 96 92 99 98 96 78 63 53 64 60 64 65 66 69 76 74 70 66 62 57 63 60 70 74 77 75 70 71 78 77 74 71 69 67 62 61 62 63 67 70 71 73 77

GFSSW_700_rhum_078.txt.gz
RH
61 75 79 81 81 70 77 65 91 78 77 45 15 16 14 19 22 23 21 21 23 24 24 24 24 23 21 22 23 43 99 84 67 61 58 61 78 81 59 81 78 84 86 84 57
24 51 74 75 80 74 73 65 96 91 77 87 23 17 16 21 23 22 24 26 29 34 35 35 36 31 27 26 31 36 91 79 69 62 60 61 81 82 88 74 84 92 79 57 50
10 19 49 74 76 78 78 78 89 88 96 85 22 20 21 21 24 24 34 37 39 41 47 49 45 46 44 55 84 43 68 79 81 83 81 68 77 85 95 89 83 85 80 56 55
4 5 9 47 76 78 81 77 80 96 96 51 22 20 24 25 40 49 50 51 50 46 42 34 29 29 47 51 58 77 83 74 56 94 95 87 83 86 83 56 70 94 94 87 67
5 4 6 6 73 79 83 86 72 93 98 52 21 23 25 40 55 54 54 46 34 24 20 21 22 24 27 80 79 92 37 85 90 93 98 96 90 87 88 58 51 82 80 76 72
8 6 5 6 30 93 94 89 71 97 99 84 23 25 41 54 48 36 28 23 20 22 37 45 46 44 49 48 84 72 65 64 100 99 94 85 85 97 61 84 77 91 81 68 70
7 7 6 6 20 73 82 100 95 96 90 74 25 31 53 44 29 23 23 22 30 36 41 54 56 54 68 81 57 54 86 99 95 99 88 80 97 93 58 76 72 85 83 80 65
7 6 6 5 39 52 96 98 93 100 98 54 32 55 48 23 24 25 28 32 35 41 52 58 67 75 76 83 86 83 98 99 97 100 81 87 74 83 96 80 62 57 64 88 89
7 8 7 5 12 99 83 100 95 99 97 60 37 59 28 24 33 50 61 66 56 65 73 71 76 84 82 88 96 84 98 98 95 93 90 92 93 88 81 53 71 68 66 78 100
8 8 11 7 20 99 81 92 98 99 96 36 51 40 27 32 68 75 66 76 76 95 86 69 87 84 84 95 96 98 100 95 87 83 75 90 94 92 85 76 71 73 68 71 99
18 12 12 11 50 69 99 87 100 99 84 42 55 33 34 70 79 67 60 70 78 83 79 78 82 79 96 94 98 98 98 90 78 99 88 92 97 98 98 78 73 76 76 87 99
59 21 19 15 43 60 88 98 98 98 83 48 61 34 58 80 84 76 72 71 68 75 82 91 84 96 100 92 99 98 95 99 100 97 96 98 99 88 100 95 63 79 84 84 98
92 78 27 25 81 37 66 99 98 94 52 64 61 38 72 92 89 85 85 77 66 63 87 98 93 98 99 98 98 92 98 99 97 100 94 97 96 89 96 98 92 94 99 95 99
83 96 67 39 92 98 73 99 98 78 65 66 56 44 91 94 96 95 96 86 78 89 99 96 99 97 98 99 99 99 99 97 94 97 99 84 92 97 94 99 100 100 100 98 100
86 97 97 53 97 98 81 99 99 85 86 61 36 73 100 95 94 87 78 78 99 97 98 93 97 94 100 99 100 99 97 96 91 95 99 100 94 98 100 100 100 99 99 99 89
82 99 95 84 70 100 99 99 97 82 84 44 50 91 100 100 100 79 69 81 95 99 99 99 90 86 89 87 89 88 92 93 95 94 94 99 99 98 96 99 100 100 100 100 97
86 83 91 97 60 96 98 97 92 92 49 40 86 95 100 100 93 95 73 83 98 98 90 92 97 98 93 97 99 98 98 94 88 92 95 99 94 98 90 86 97 100 98 99 100
97 73 96 100 86 87 98 97 96 84 44 61 90 92 100 92 87 100 99 99 98 91 98 98 98 99 99 90 92 95 85 70 69 87 96 86 94 95 92 100 97 100 98 99 97
76 83 94 86 85 91 97 96 84 74 44 78 91 100 91 85 86 86 96 98 96 96 98 97 98 99 96 91 93 89 90 85 89 85 66 90 90 87 98 95 100 100 100 100 99
49 82 92 96 96 97 97 94 87 49 55 82 91 85 88 87 86 94 93 95 98 95 93 87 97 99 96 88 84 73 72 72 68 73 78 77 68 79 78 93 99 94 95 99 100
96 98 98 98 98 97 96 95 76 50 68 76 71 68 73 75 81 85 93 98 98 97 90 87 89 82 80 78 77 67 65 53 58 68 52 59 68 82 71 65 67 68 71 81 74
87 95 97 98 96 97 97 99 59 81 74 74 72 62 63 65 82 86 96 99 97 93 93 83 86 97 93 81 72 61 56 49 52 58 60 50 61 75 76 67 58 52 53 53 52
96 97 98 96 96 99 92 94 64 76 78 80 75 60 57 68 82 88 97 93 86 84 85 76 79 86 76 70 64 60 52 50 47 44 59 48 62 73 73 65 61 54 50 50 48
94 97 97 96 95 89 94 88 72 80 81 76 67 64 59 68 76 89 88 81 76 77 72 70 65 65 65 76 66 67 60 54 46 56 50 54 60 71 68 62 59 57 54 52 51
95 94 90 97 79 91 95 86 74 84 84 77 74 69 58 66 83 89 76 79 73 66 65 67 58 58 66 68 66 61 61 59 53 51 56 51 57 56 63 66 62 57 58 59 58
92 94 94 85 78 98 91 90 75 71 78 68 67 63 61 64 72 81 72 64 61 63 63 58 68 59 57 60 60 61 58 60 59 58 60 55 56 62 68 67 66 65 65 66 66
82 91 88 78 88 92 89 76 68 61 72 68 59 51 56 60 64 67 66 60 56 53 52 55 60 61 72 64 58 58 62 67 69 65 63 66 61 59 62 63 65 68 71 72 76

GFSSW_700_rhum_081.txt.gz
RH
8 12 23 30 47 69 68 71 76 63 53 74 74 78 54 14 15 15 18 15 17 20 21 20 22 21 21 20 20 29 97 78 61 53 47 42 42 44 49 59 61 61 60 73 77
5 6 12 18 40 49 56 60 76 76 73 75 74 70 38 15 17 15 17 20 22 26 28 30 34 34 31 27 28 28 82 72 63 52 48 45 44 43 52 58 66 68 66 73 83
6 6 6 8 11 38 64 57 69 77 72 59 77 68 46 17 18 19 24 33 40 40 40 40 41 50 55 78 61 68 74 64 61 59 56 57 52 49 54 58 61 68 70 84 74
11 8 6 5 7 12 44 80 67 92 72 54 72 83 48 20 28 28 36 46 77 56 51 47 42 37 54 85 87 93 90 86 73 68 72 73 74 59 56 57 60 66 70 90 97
12 10 9 7 5 11 21 74 80 80 79 56 73 77 44 22 30 36 47 41 35 33 30 24 21 62 85 76 74 80 84 82 87 89 76 79 79 74 67 65 66 79 88 95 70
13 10 8 8 6 10 42 70 87 99 96 82 74 72 29 29 39 41 24 21 20 19 21 24 44 74 75 92 86 79 79 83 86 86 94 81 77 81 76 67 72 82 84 98 90
9 8 8 7 6 9 61 64 91 99 98 92 84 63 30 41 44 24 18 20 22 22 30 61 50 76 93 98 72 96 94 78 87 91 92 95 92 80 60 80 75 75 82 66 77
9 6 7 7 6 8 70 57 98 96 96 79 88 58 35 43 29 19 24 33 35 36 37 45 54 66 97 99 96 100 100 100 85 92 87 94 86 60 70 78 81 84 85 56 61
14 8 10 10 8 33 39 87 94 100 95 97 81 40 42 33 22 27 46 55 68 72 62 61 74 82 88 99 99 100 96 90 88 90 92 94 78 74 64 72 82 86 86 86 82
69 20 14 13 15 92 85 86 96 95 83 97 78 48 49 25 28 50 57 46 58 73 92 93 98 96 98 100 93 88 98 95 86 88 94 89 80 80 77 86 76 94 90 90 93
84 39 21 18 65 68 81 99 90 99 74 97 60 47 44 30 49 67 50 49 68 77 100 90 100 99 98 97 98 97 98 97 93 93 87 82 80 73 86 83 86 87 87 95 79
92 72 54 34 69 98 93 100 100 98 97 92 52 60 39 42 63 66 63 75 78 100 98 95 96 94 96 97 99 99 99 97 93 93 94 73 86 74 79 94 98 89 99 91 85
87 82 72 75 38 96 84 99 96 100 92 66 62 60 36 56 71 76 85 85 91 99 99 100 94 97 97 98 98 99 100 99 98 76 93 90 94 89 86 85 100 98 98 80 82
83 77 78 87 48 73 98 99 92 100 90 74 74 56 42 62 74 85 99 96 98 98 98 95 95 97 98 98 99 100 79 98 99 97 89 91 85 88 77 80 77 98 83 78 83
66 64 79 84 81 100 75 100 97 97 96 84 60 51 61 78 92 81 100 99 97 98 98 96 89 98 97 98 99 98 100 96 97 99 96 98 79 99 85 87 93 100 100 100 99
84 69 78 81 96 99 100 69 97 98 89 60 47 58 82 79 96 94 96 92 99 97 98 91 93 95 95 95 97 96 93 95 96 98 96 97 91 96 97 99 100 98 100 100 96
96 95 79 85 74 57 86 98 97 96 75 43 50 75 96 91 96 98 98 99 98 98 88 96 96 97 88 98 90 97 95 95 99 98 97 99 84 98 98 99 99 99 100 100 93
97 88 78 73 79 84 97 97 98 97 52 44 72 95 98 95 99 99 100 97 92 100 97 96 98 98 97 99 98 98 94 90 94 92 92 96 96 97 98 99 99 98 100 100 100
74 71 76 61 84 100 98 97 98 85 47 95 100 98 96 98 98 97 92 99 99 99 98 98 99 100 95 91 93 96 85 80 69 59 64 92 97 98 99 100 100 100 99 100 100
78 67 73 56 95 98 97 97 94 78 68 92 86 94 83 97 99 98 100 88 98 98 98 97 98 97 89 85 77 80 73 76 74 74 75 68 76 89 99 100 100 100 100 98 99
81 85 95 96 100 97 97 97 70 54 99 94 83 83 82 88 88 96 97 95 91 99 92 88 98 84 89 82 81 87 67 59 60 64 47 58 69 81 95 95 88 96 99 99 98
62 85 99 99 98 96 97 90 60 83 82 69 75 84 82 90 95 98 99 100 90 85 98 78 92 90 84 68 65 84 69 60 52 54 53 49 68 84 83 75 73 82 79 72 75
71 96 97 97 96 95 93 77 96 80 72 76 91 88 93 96 94 100 100 89 82 78 78 74 80 86 75 67 74 75 69 62 56 55 53 47 65 81 69 68 75 71 68 68 65
70 97 98 96 94 98 98 90 71 70 77 76 72 76 91 92 88 99 82 74 72 67 67 63 75 86 72 89 83 76 58 52 50 54 40 54 71 76 74 70 75 74 66 63 62
73 87 94 98 97 83 92 88 79 92 80 76 80 87 84 91 89 94 85 75 66 64 66 67 65 62 75 74 65 66 69 66 53 56 51 58 64 74 71 72 68 62 63 61 60
78 85 91 74 81 77 85 88 72 80 94 80 79 80 80 82 82 80 74 70 59 64 61 52 59 57 57 57 76 68 61 74 57 65 58 55 64 75 61 59 59 59 57 56 58
84 84 85 92 92 94 92 83 71 80 73 86 93 76 58 63 66 59 55 51 45 45 41 44 49 60 70 56 59 58 57 61 66 58 63 60 55 52 55 60 62 60 62 64 66

GFSSW_700_rhum_084.txt.gz
RH
10 8 7 9 13 24 53 67 76 74 76 74 64 45 54 60 57 27 13 14 13 14 14 16 20 22 20 19 19 33 88 93 83 67 60 49 44 40 40 44 45 43 50 54 55
15 11 9 7 7 8 17 33 67 72 98 80 72 51 65 68 57 26 17 16 18 20 23 24 30 44 30 30 29 28 36 53 52 68 61 54 50 46 41 42 44 49 54 59 58
24 19 15 10 7 6 6 10 56 75 87 76 76 57 64 72 59 36 24 23 27 34 37 39 40 47 45 59 60 75 49 43 61 67 63 59 54 51 46 43 43 55 56 44 63
21 22 20 16 12 8 6 9 62 83 73 81 80 71 65 70 41 31 22 25 35 40 40 35 42 43 47 80 86 73 60 78 86 83 60 66 59 64 57 53 47 53 55 66 60
19 18 17 17 13 10 8 6 23 50 82 77 86 74 69 71 33 33 30 33 23 22 23 20 23 33 75 78 77 79 80 80 81 84 80 66 68 72 58 58 56 60 56 64 78
34 22 16 13 11 9 8 6 40 56 78 100 99 83 78 56 46 40 38 25 15 16 18 17 19 46 71 54 73 69 82 80 76 78 82 81 80 70 63 53 67 64 62 60 78
63 33 15 8 8 8 7 10 52 74 98 90 98 84 76 55 47 42 36 17 18 23 24 22 27 41 63 80 77 90 82 71 60 32 59 89 72 78 64 45 61 65 72 77 64
90 49 18 9 7 7 6 27 79 83 79 99 94 90 72 56 43 40 21 20 31 36 39 40 36 34 48 75 53 72 74 77 39 63 59 68 84 57 51 63 63 69 74 78 71
86 75 34 12 10 10 18 56 100 75 86 100 92 88 70 57 39 23 25 40 43 39 37 56 64 55 83 97 98 87 97 78 68 88 90 93 58 33 59 75 51 76 75 83 85
83 80 60 22 14 18 97 99 99 81 100 100 84 88 66 47 26 26 46 52 43 39 54 82 99 99 95 99 94 87 94 97 96 88 98 88 76 54 78 76 66 58 66 91 83
77 78 72 34 22 74 94 98 88 81 100 99 88 79 57 37 32 53 57 51 46 49 74 90 95 84 94 89 76 87 90 92 78 86 98 96 89 59 98 75 75 75 77 74 87
77 79 74 68 43 97 98 98 94 98 100 100 95 69 55 41 49 58 63 56 66 46 82 92 97 78 94 98 96 99 93 89 87 91 100 97 82 73 87 79 73 73 75 78 96
77 74 75 69 67 60 97 97 96 99 99 97 87 61 63 41 69 66 70 64 71 83 88 98 75 95 98 93 96 87 96 96 97 93 95 79 81 78 92 84 78 89 78 78 88
81 74 74 70 66 40 86 97 88 92 97 95 79 70 61 51 84 81 67 75 77 95 92 92 93 90 92 99 98 99 93 97 97 100 95 91 94 98 98 81 62 82 79 93 87
85 76 68 70 77 56 57 86 93 85 98 98 91 80 50 85 94 74 77 76 77 93 99 90 90 96 99 97 98 98 100 94 97 98 99 92 99 100 86 78 78 83 77 84 97
96 94 81 91 70 78 68 95 96 95 97 97 91 69 83 91 79 82 72 72 90 99 99 94 85 98 90 93 99 99 98 97 98 98 89 90 96 99 99 96 81 99 89 100 100
97 95 82 98 81 66 97 82 96 98 97 85 85 93 100 88 96 92 79 86 98 98 94 83 97 99 86 95 99 98 99 99 98 98 98 88 82 98 100 96 98 100 99 100 100
96 91 81 98 84 82 89 84 97 98 90 87 99 99 92 90 96 96 81 90 93 97 98 97 98 94 92 99 99 96 97 98 97 97 98 92 97 96 100 99 100 100 100 100 100
80 93 78 82 90 82 76 98 98 82 75 100 97 93 93 85 90 80 82 98 92 97 98 99 99 98 97 98 97 90 99 98 98 91 91 98 97 98 98 99 100 100 100 99 100
75 85 92 88 84 75 85 96 95 91 95 89 89 89 88 92 87 93 98 84 89 98 95 99 99 96 94 92 94 93 77 84 94 97 95 90 97 98 98 99 99 100 100 100 99
40 63 90 66 72 72 94 97 94 98 98 97 78 85 85 93 97 100 86 87 90 96 96 98 98 91 91 68 73 70 65 61 61 57 75 81 98 98 99 99 100 100 100 100 100
35 59 70 63 77 88 97 94 90 97 78 72 84 88 94 86 89 95 90 87 88 87 96 87 88 83 64 71 72 69 63 56 57 54 55 64 86 92 88 98 100 100 100 99 99
30 58 66 71 96 97 88 100 98 90 70 85 72 77 94 97 95 90 90 78 76 71 72 74 73 88 78 77 71 71 57 50 57 49 57 70 86 89 71 76 80 84 85 83 82
51 84 96 98 94 100 88 86 78 75 70 63 73 93 91 91 92 92 75 73 68 66 62 62 71 83 86 81 83 75 59 42 48 52 66 67 87 80 68 64 65 67 72 76 74
64 78 93 88 84 80 90 90 82 82 72 74 85 88 88 85 92 91 81 68 65 64 52 59 63 69 68 70 63 61 58 51 51 52 58 72 61 58 55 56 61 62 62 59 58
62 83 76 74 65 84 82 95 69 78 89 86 86 82 87 86 83 80 76 71 66 61 48 48 52 66 59 65 54 48 47 49 56 59 55 67 77 77 77 63 61 64 63 58 59
62 59 61 72 82 74 64 66 65 79 79 86 98 69 69 65 62 55 49 44 44 38 37 44 45 54 56 53 66 66 50 49 53 53 61 68 60 72 70 61 63 61 61 62 64

GFSSW_700_rhum_087.txt.gz
RH
28 24 18 13 10 8 10 22 68 68 100 59 66 76 65 47 46 55 49 32 17 16 17 15 14 14 13 13 16 21 43 77 44 31 31 29 43 46 44 43 44 45 45 47 46
34 30 28 23 16 10 7 9 29 40 99 71 55 78 68 50 46 58 46 33 21 22 22 20 22 23 21 19 20 22 32 38 32 32 46 50 42 42 43 42 41 42 44 44 47
30 27 26 26 24 18 10 7 7 12 49 76 70 74 77 56 43 45 34 24 23 26 27 26 28 29 30 34 39 34 31 34 36 37 62 70 62 55 45 44 45 42 43 57 48
22 20 21 20 21 21 17 11 7 12 46 85 75 70 83 71 52 44 38 28 27 33 27 23 23 28 35 37 41 40 52 69 70 62 57 67 64 52 54 50 43 45 45 54 62
64 49 23 19 18 18 17 12 8 11 25 99 78 75 88 72 63 54 39 35 36 29 17 15 16 18 20 22 30 53 67 67 82 84 82 78 60 62 46 56 47 45 48 58 63
91 92 75 36 22 16 14 12 8 33 46 86 87 98 85 80 62 49 42 40 35 18 16 17 18 21 25 29 36 38 32 43 61 47 49 65 35 39 53 42 50 45 54 58 70
98 94 90 53 23 14 10 9 7 42 83 65 92 87 98 80 61 53 46 42 23 17 23 26 25 24 28 29 36 31 43 35 23 22 36 42 46 40 27 41 36 48 54 55 62
95 98 88 81 28 11 8 8 25 45 73 91 98 81 88 74 68 53 45 30 19 29 39 39 42 40 37 43 38 52 65 50 30 43 57 83 58 25 27 34 40 27 46 62 63
87 91 85 74 34 11 13 20 99 76 89 84 81 99 94 74 68 52 32 23 39 50 42 40 47 53 53 71 72 86 78 61 55 61 76 91 86 66 31 30 44 40 26 54 63
91 85 72 65 45 16 80 70 97 99 87 94 89 99 83 79 53 26 26 46 52 45 43 50 70 89 97 97 91 79 87 76 78 53 71 88 76 74 56 87 56 66 31 53 57
86 84 76 65 49 36 98 92 83 98 98 97 93 91 73 67 37 30 58 57 51 52 52 82 85 75 75 85 92 98 92 83 53 55 94 85 72 60 65 79 70 69 61 68 56
76 79 76 70 70 57 98 98 98 97 93 95 95 90 73 42 37 58 64 58 62 50 74 77 60 66 79 78 97 94 99 92 71 70 97 98 79 61 83 89 85 85 72 68 70
82 83 71 70 74 63 83 97 95 99 95 100 97 91 67 52 64 77 72 71 73 78 68 63 52 62 75 76 96 91 96 88 92 92 96 91 83 71 81 92 87 81 82 80 87
82 78 73 72 76 71 55 96 96 96 98 98 97 86 70 61 96 100 79 79 78 75 74 70 75 87 87 84 95 98 97 100 99 98 94 83 89 67 77 84 85 79 83 83 80
73 94 70 75 79 79 57 72 95 93 96 98 93 94 78 75 96 91 80 78 75 74 75 65 74 82 86 99 98 94 98 100 98 98 95 88 98 89 80 94 91 74 68 77 75
86 89 70 66 74 72 66 55 96 91 98 98 97 96 66 99 99 93 80 79 82 83 74 73 82 88 96 88 90 99 97 99 100 96 99 76 93 96 98 98 84 67 67 79 86
97 89 76 73 77 64 75 95 71 91 98 99 96 89 100 98 99 83 82 81 83 96 92 88 91 99 98 93 94 98 98 98 98 98 98 92 93 97 98 100 100 99 88 93 100
96 96 78 87 77 82 87 59 80 98 94 93 84 92 93 93 97 91 86 87 84 88 97 100 93 98 99 97 99 99 99 98 97 97 98 92 99 100 96 99 99 99 99 100 99
69 69 83 84 72 64 67 83 97 94 90 90 97 98 94 96 87 83 83 89 89 98 100 98 99 99 93 93 99 98 98 98 99 89 97 97 98 99 99 99 100 99 100 99 99
42 38 58 64 58 50 70 97 94 98 90 91 91 91 96 88 89 88 92 88 93 98 96 98 96 88 92 82 78 91 83 84 94 97 96 98 98 98 98 98 98 99 99 100 100
31 30 56 61 61 73 85 97 98 98 96 97 90 85 80 86 89 98 88 91 94 97 96 98 96 76 79 74 69 70 64 64 67 64 81 89 98 98 98 99 99 99 100 100 100
24 32 48 61 74 83 92 97 97 98 98 96 89 91 89 78 92 90 85 82 84 89 94 93 88 83 77 76 70 65 61 59 59 59 67 76 98 98 99 99 99 99 99 99 99
28 48 67 82 85 94 79 98 84 65 70 74 78 75 79 86 83 90 81 78 75 73 81 77 76 83 75 70 52 59 48 49 48 56 72 82 98 100 87 91 98 98 98 95 91
43 63 76 81 91 90 85 77 73 75 72 75 86 77 82 87 85 77 72 68 68 68 70 69 77 78 81 82 77 67 48 45 41 53 67 65 72 73 62 59 62 67 63 62 60
48 70 77 88 91 96 89 78 81 82 68 71 81 82 87 89 74 72 71 67 64 60 59 55 60 66 72 69 57 55 53 50 46 54 49 64 58 63 65 63 58 64 64 63 64
47 66 67 70 92 91 85 74 64 70 67 81 83 83 70 66 64 59 59 61 56 47 50 52 56 56 63 59 51 47 48 52 56 56 59 68 68 67 62 62 64 63 57 58 59
57 63 72 79 80 71 69 69 63 58 71 58 73 66 66 52 50 46 45 44 41 40 40 43 44 58 48 54 63 48 49 50 59 68 72 71 62 62 63 64 63 63 62 60 59

GFSSW_700_rhum_090.txt.gz
RH
42 38 35 31 26 18 12 9 25 65 71 63 76 91 72 60 56 36 41 41 33 25 18 19 21 16 13 12 11 12 14 10 10 13 14 10 12 36 39 38 46 46 44 43 46
42 38 37 34 31 27 21 10 10 23 62 81 76 100 69 66 60 45 37 40 39 26 21 25 24 21 19 17 15 14 14 16 16 16 14 12 10 10 33 48 41 45 44 42 44
42 49 34 28 28 28 26 19 10 14 31 60 87 95 71 58 64 49 36 34 28 24 27 27 25 21 22 23 22 22 19 17 20 20 20 18 14 15 13 32 43 42 43 43 46
81 84 55 34 24 22 24 21 14 10 17 56 78 79 73 64 67 42 38 34 32 29 31 30 22 17 15 18 23 25 28 32 31 39 39 34 32 18 19 14 34 43 43 43 46
98 97 91 80 45 28 21 20 14 10 28 81 66 90 82 66 77 64 58 48 37 35 34 22 15 15 17 18 18 19 17 21 23 27 23 22 25 34 25 21 16 32 44 45 52
96 91 96 97 82 40 18 29 15 10 11 56 53 92 95 80 77 66 60 45 41 38 27 15 16 17 19 20 21 24 22 21 24 20 18 20 12 21 16 24 29 21 32 43 52
97 94 96 95 85 70 33 15 15 9 14 73 85 99 100 98 76 67 59 49 44 33 17 17 22 24 26 28 32 29 30 29 25 25 29 30 21 19 14 15 12 25 43 41 48
80 86 91 88 80 55 22 13 12 12 43 75 70 92 99 90 96 74 58 47 41 20 22 31 36 37 37 43 42 40 41 42 30 39 49 61 48 42 53 63 38 13 29 46 48
88 85 82 80 63 42 10 41 23 49 98 87 99 77 99 93 76 70 58 47 24 25 40 44 42 42 42 48 47 61 62 55 60 57 64 90 70 51 60 76 62 20 18 33 43
94 88 86 76 58 28 93 84 90 85 96 99 98 99 97 95 82 70 54 27 35 51 46 42 37 47 58 90 72 68 77 81 86 73 74 77 60 56 60 76 75 35 36 33 40
88 83 83 74 65 25 97 100 98 99 100 98 96 95 98 89 78 38 28 40 53 47 44 41 56 53 67 72 75 76 86 86 59 77 100 64 69 62 60 59 66 71 61 39 31
81 78 74 74 69 61 78 97 99 97 97 97 94 91 94 70 40 32 48 56 51 52 36 66 68 67 67 66 75 89 100 79 71 86 99 97 74 66 64 48 87 89 72 71 43
85 80 79 63 69 72 47 97 95 100 98 98 96 94 57 50 51 57 62 59 61 56 62 73 71 70 68 72 87 83 88 85 98 100 85 87 84 61 66 66 80 81 82 72 69
77 73 74 63 67 71 50 91 98 97 97 98 97 94 66 63 73 86 74 69 70 75 94 95 78 81 81 80 97 98 83 99 98 94 92 92 85 72 78 75 82 81 80 82 67
70 87 68 67 71 66 49 72 99 96 95 98 98 99 68 73 87 95 80 72 80 92 100 79 78 84 80 81 87 71 100 100 99 97 95 95 99 73 69 74 73 79 76 84 74
71 93 61 67 64 40 34 71 95 88 96 97 96 94 73 96 97 75 78 86 89 99 90 80 85 87 88 83 86 78 92 98 98 98 99 86 80 90 84 90 97 86 73 68 68
75 70 55 64 63 55 41 74 85 93 97 98 96 79 84 89 91 82 84 87 95 98 94 99 92 100 89 88 94 87 99 98 98 98 98 96 91 97 100 97 100 99 81 80 88
74 65 62 56 48 58 66 78 84 96 98 96 82 82 88 87 93 86 92 100 99 98 95 97 82 98 89 87 96 99 99 98 97 97 97 98 97 100 98 100 98 100 100 98 99
51 57 54 72 63 40 68 84 94 98 96 98 100 97 96 94 85 87 100 100 100 100 95 92 96 99 95 94 98 98 98 99 99 94 92 96 98 98 99 100 99 100 99 99 99
47 46 47 50 58 70 80 89 95 82 96 96 85 80 88 89 82 92 95 89 92 99 100 98 93 91 92 85 90 97 99 96 97 98 96 96 98 98 99 99 99 99 99 99 99
37 31 34 42 71 71 76 88 88 90 96 92 93 86 80 89 96 96 88 90 94 93 94 96 94 76 79 81 78 80 92 79 73 76 95 86 97 98 98 98 98 99 99 99 99
38 41 38 47 68 96 99 92 98 100 92 95 83 92 91 94 97 91 84 83 85 92 92 85 80 74 66 62 66 68 63 66 60 65 68 74 94 99 99 99 99 99 99 99 99
48 60 64 60 75 80 74 79 86 92 89 94 86 86 90 84 83 82 76 73 71 77 79 76 78 80 67 58 54 60 52 49 54 59 75 76 76 95 100 100 99 97 94 96 89
49 62 68 70 76 76 77 88 87 81 86 82 88 91 81 76 73 72 69 69 64 65 66 65 72 77 74 77 74 59 47 43 48 52 66 60 69 79 84 74 71 70 71 74 73
53 66 69 76 65 73 71 73 81 83 87 90 87 72 68 75 65 69 69 63 54 50 49 52 57 61 58 62 59 57 50 44 42 52 48 55 52 54 63 63 61 60 62 66 66
48 70 64 66 65 74 74 64 57 67 67 72 64 72 68 58 60 59 58 57 48 47 52 51 54 54 58 56 65 55 57 51 51 59 60 62 60 62 62 64 67 66 65 65 64
45 59 60 56 59 56 55 58 52 58 64 67 77 77 66 49 46 45 45 44 42 42 41 44 43 53 46 52 60 48 46 52 62 63 58 60 55 57 59 61 62 64 66 68 66

GFSSW_700_rhum_093.txt.gz
RH
46 43 47 64 37 33 26 15 10 21 66 67 74 88 70 63 57 53 42 29 30 29 26 18 18 21 18 14 13 11 12 10 10 10 11 11 10 10 10 12 13 43 48 48 47
92 79 86 94 93 43 32 28 15 10 72 60 75 92 72 98 66 62 46 41 40 40 31 21 20 25 21 17 16 14 12 12 12 12 13 13 12 10 9 15 16 18 44 49 45
63 64 92 95 93 93 80 29 26 13 21 82 76 85 100 85 80 61 48 34 34 36 29 23 27 27 23 22 20 17 15 14 15 16 18 15 14 13 11 8 10 24 28 48 48
66 55 62 91 95 95 87 40 27 21 14 98 69 81 76 90 74 54 47 36 32 26 26 28 27 28 24 19 18 18 18 19 18 17 16 16 15 11 12 13 11 10 30 44 47
91 74 80 85 95 94 90 77 32 21 17 100 85 71 96 98 80 64 49 41 41 36 32 32 31 26 19 16 15 15 15 15 14 13 14 14 13 13 10 11 14 14 10 31 44
94 52 90 96 96 97 97 88 73 27 14 38 83 98 67 75 83 84 77 69 55 40 37 35 28 21 16 17 19 19 18 18 18 19 19 19 16 18 16 12 11 10 16 11 26
62 49 77 96 92 96 84 76 49 63 16 16 88 98 79 100 95 86 81 67 52 43 40 30 18 18 22 24 25 26 25 26 26 24 23 22 14 15 18 24 15 10 9 18 13
74 63 61 78 75 78 67 49 43 48 35 23 66 89 90 97 99 89 77 67 52 45 34 20 20 28 31 34 34 32 30 29 25 27 35 56 24 31 33 57 52 51 35 10 17
77 88 91 80 70 69 41 17 21 31 30 61 98 95 98 98 98 100 79 59 50 38 22 23 37 39 37 33 31 35 38 35 34 48 59 70 63 35 48 56 60 55 46 23 10
63 67 82 84 82 59 52 99 72 49 55 98 93 89 97 90 96 95 68 59 42 24 35 43 38 35 28 40 43 51 61 51 57 57 73 86 72 41 49 75 71 54 44 25 18
66 73 66 76 80 63 70 99 98 96 90 98 89 74 84 97 95 82 71 47 28 43 45 39 28 38 52 53 56 62 72 79 66 84 100 72 74 48 52 62 65 45 83 62 28
76 66 66 69 82 72 77 96 98 97 98 97 98 98 98 96 95 75 41 35 49 48 42 31 41 50 52 56 70 83 94 70 82 91 99 98 77 58 60 67 51 69 79 71 80
78 68 71 70 62 63 81 95 98 95 95 97 98 98 96 70 50 36 44 54 52 52 42 43 53 60 73 84 88 90 100 83 98 95 82 94 83 75 66 67 68 85 85 78 73
72 63 74 60 63 66 53 95 97 96 93 97 98 96 86 65 67 67 61 62 63 70 68 61 60 72 87 84 97 100 89 99 96 99 96 95 90 80 75 76 83 86 83 80 66
64 68 61 53 52 39 31 98 100 85 93 96 98 77 74 90 72 75 74 72 77 94 82 78 76 83 91 84 99 99 96 99 99 99 96 98 100 85 75 78 75 79 89 86 86
66 56 63 61 43 32 48 89 95 78 97 98 97 82 90 100 92 74 80 80 85 85 83 79 93 91 92 100 100 99 99 100 100 98 99 93 95 77 84 78 74 79 66 71 78
49 58 52 43 47 43 63 95 77 88 96 98 93 84 92 94 88 80 82 86 90 92 95 100 96 99 100 99 100 98 100 96 98 98 92 93 93 86 92 99 100 100 98 85 93
40 43 52 60 47 67 72 70 82 98 100 96 87 90 91 89 85 88 95 93 86 96 91 88 84 99 99 97 99 99 100 98 97 97 96 95 98 90 94 100 99 97 99 99 98
38 36 34 36 51 67 57 60 97 93 86 78 90 81 84 91 87 93 95 87 96 96 95 88 91 93 88 94 100 100 99 99 98 99 95 96 98 97 96 99 99 96 98 99 99
53 48 49 60 63 58 52 73 94 83 94 89 82 83 86 82 78 81 87 89 91 97 96 96 92 82 82 87 97 99 98 98 98 97 96 93 98 99 98 98 96 98 98 98 98
44 60 77 71 68 63 74 90 89 96 90 92 85 78 75 85 89 87 90 90 99 99 100 100 94 69 77 72 79 81 84 90 96 96 97 90 94 99 98 98 98 98 98 98 98
38 51 76 74 70 83 94 97 99 100 96 88 78 79 86 92 99 100 91 93 93 96 93 83 76 68 58 70 67 69 77 74 75 67 74 76 92 100 100 99 99 99 98 99 99
48 62 72 66 72 84 89 89 89 81 86 84 84 84 86 87 88 85 80 76 77 76 78 77 78 78 57 56 54 62 71 60 69 65 71 77 78 98 99 98 99 99 90 85 76
58 64 60 53 57 66 71 78 84 84 78 80 94 89 85 86 78 71 75 69 68 73 71 70 69 72 69 71 70 59 53 54 55 56 65 65 74 91 96 95 79 74 72 72 72
54 55 54 56 58 56 58 69 72 80 81 90 93 79 75 74 71 71 70 64 60 56 53 51 56 60 61 58 56 57 52 53 45 52 53 57 61 65 67 70 70 70 71 72 71
52 59 51 52 56 61 65 68 72 79 77 76 71 66 64 57 58 61 58 52 45 47 50 47 51 51 51 51 56 48 49 53 50 51 52 56 57 54 54 59 64 66 64 64 64
49 50 53 56 58 57 55 58 60 67 65 63 60 62 55 46 47 48 44 40 41 41 43 44 44 45 42 50 57 50 40 41 44 48 50 51 57 58 60 62 64 64 65 65 67

GFSSW_700_rhum_096.txt.gz
RH
58 59 66 88 88 85 60 39 26 14 41 97 81 100 100 94 59 56 50 34 32 28 24 21 18 16 18 16 14 12 12 11 11 9 10 10 10 11 10 9 9 10 18 34 45
68 64 66 65 95 95 96 78 39 25 16 92 90 100 94 88 67 65 58 49 36 30 28 28 22 18 21 20 18 15 14 13 12 12 12 12 11 12 11 10 9 9 11 14 42
80 73 71 69 61 93 98 98 73 34 20 25 98 95 100 99 85 71 63 59 45 40 38 35 26 21 23 25 22 18 17 16 16 15 14 14 14 14 13 11 11 9 9 16 20
57 74 90 85 75 94 98 98 99 48 29 14 98 88 86 91 92 61 69 58 46 35 39 35 26 24 28 26 23 21 20 18 16 16 16 16 13 10 10 9 10 11 10 8 13
59 68 76 86 90 95 97 94 98 89 34 19 74 79 71 98 96 70 62 55 49 36 29 27 29 29 28 25 22 20 18 16 15 15 15 14 13 12 10 11 12 10 9 9 8
66 60 70 78 74 96 97 97 95 95 61 28 80 99 95 93 99 99 63 41 36 39 39 35 32 30 27 22 19 18 17 18 18 18 19 16 15 16 14 14 13 12 10 9 9
68 70 64 64 70 95 96 98 94 95 43 38 97 76 90 100 98 98 91 84 75 60 45 37 34 30 23 19 20 22 22 22 21 18 17 14 12 15 20 20 15 14 11 10 10
63 57 79 85 70 79 93 82 79 86 65 44 48 97 95 99 99 96 90 90 74 58 45 39 31 23 22 26 26 26 21 17 19 19 24 27 14 17 18 20 25 32 28 25 21
72 57 70 86 89 73 65 58 38 59 82 48 62 98 78 98 99 97 96 84 70 54 45 32 23 29 32 30 24 23 22 23 26 48 58 60 28 27 38 41 40 44 42 38 36
79 56 68 87 88 77 64 68 87 70 89 58 96 99 96 96 99 98 92 76 60 50 32 27 34 34 29 24 34 33 40 47 52 67 80 79 50 50 53 57 48 46 43 42 31
83 65 70 66 69 79 65 93 97 48 79 98 98 85 96 98 98 97 98 66 55 35 32 35 28 27 36 35 39 52 58 62 61 80 89 66 51 38 51 53 50 50 52 39 52
84 69 80 66 61 65 52 95 98 92 98 98 98 98 96 94 84 94 93 56 32 39 38 28 40 41 45 46 50 57 67 64 67 81 98 77 52 54 64 62 64 62 68 70 83
69 67 63 61 59 60 81 96 98 98 97 97 98 98 97 98 95 94 47 47 48 42 39 35 51 46 53 62 65 71 80 78 100 94 88 82 55 60 67 75 74 83 89 86 79
62 49 46 50 56 61 90 96 95 95 90 97 96 97 97 74 60 62 67 58 52 52 51 51 55 60 68 63 74 97 96 99 99 100 98 94 90 70 76 75 86 91 93 97 87
40 42 48 50 36 59 96 97 97 88 92 96 97 94 79 97 69 68 68 61 61 62 60 65 65 70 71 84 98 81 99 96 98 99 99 95 99 76 84 77 79 71 74 86 96
46 48 30 32 59 92 95 93 91 64 97 96 98 96 98 89 76 61 70 69 67 71 74 72 72 77 86 94 94 98 99 91 97 100 98 85 98 73 88 88 86 70 67 84 78
36 39 41 44 62 70 69 63 64 87 97 97 97 100 95 88 73 75 75 78 78 93 90 86 89 98 98 97 99 99 99 92 94 99 92 99 99 74 94 99 100 100 98 98 91
49 50 61 60 52 60 56 61 82 99 99 89 95 92 81 81 79 82 84 84 90 89 80 79 75 93 99 100 99 99 99 99 96 97 93 99 98 92 97 98 99 100 99 100 100
36 43 50 60 48 60 60 71 98 92 86 88 92 86 87 86 82 82 86 90 95 82 84 79 89 88 97 99 99 99 98 99 99 99 98 92 94 96 98 100 100 100 100 100 98
64 60 62 55 52 49 41 74 75 73 82 84 80 79 78 80 78 78 91 88 87 86 93 94 95 83 90 92 83 92 96 98 98 97 96 95 96 98 98 98 98 98 99 98 98
63 58 49 48 52 40 64 91 92 88 84 83 75 71 66 78 82 90 84 85 96 97 96 98 99 78 80 68 78 79 85 89 96 97 97 95 96 99 98 97 98 98 98 98 99
58 63 63 59 40 49 86 96 96 90 80 77 75 76 84 84 96 96 88 90 92 97 95 94 87 68 59 68 76 70 80 82 88 71 80 82 89 100 99 98 100 99 99 98 98
57 66 71 62 65 76 84 86 87 82 80 84 89 89 88 88 83 80 78 77 78 82 84 81 78 70 58 60 56 60 72 69 71 82 76 80 84 99 98 100 100 98 97 96 93
46 53 57 66 76 75 73 74 78 81 82 83 84 76 73 74 71 73 74 70 72 70 71 67 67 71 66 63 62 54 65 62 64 64 63 71 94 99 96 87 76 73 75 78 77
44 54 56 59 56 60 63 72 68 75 82 79 77 71 70 73 73 72 67 61 58 57 57 57 54 54 54 52 55 57 52 60 54 53 51 56 62 63 64 64 68 72 72 73 73
43 51 52 56 57 63 67 73 75 77 76 72 67 66 65 68 62 61 57 49 44 47 48 52 48 48 40 43 48 47 44 44 52 55 51 50 53 55 58 61 64 66 68 70 72
39 44 46 48 49 53 58 62 66 70 69 71 70 63 54 51 50 49 44 43 44 44 46 47 46 44 38 39 39 41 31 35 39 42 45 50 48 54 56 57 61 62 65 68 71

GFSSW_700_rhum_099.txt.gz
RH
56 70 65 58 55 77 93 89 83 45 28 17 73 98 98 99 82 86 60 51 42 41 36 26 20 18 15 15 14 13 12 11 10 10 10 9 8 9 9 10 10 11 10 9 14
72 81 77 77 68 63 79 96 96 90 42 19 22 84 100 100 99 88 67 59 54 36 34 31 23 20 17 17 16 16 14 13 12 12 11 10 10 10 10 11 10 10 10 10 9
85 90 81 75 68 74 72 94 98 91 91 35 18 62 96 99 99 95 78 60 61 48 34 34 29 23 20 20 19 18 18 16 15 14 14 13 12 12 10 9 11 11 10 10 9
53 65 64 74 74 81 72 81 98 98 94 73 21 97 67 99 99 100 88 71 60 53 43 42 38 28 23 22 23 21 21 19 18 18 16 15 13 11 11 11 10 9 8 9 10
60 55 57 60 74 75 79 85 97 95 91 96 31 96 80 81 99 92 77 59 67 57 44 40 37 29 26 28 27 26 22 20 18 16 15 15 14 14 12 13 13 12 10 9 8
52 62 64 65 58 73 78 88 97 97 96 90 48 86 99 97 97 92 61 71 74 60 40 32 29 30 30 28 26 22 20 17 16 17 18 17 16 15 14 12 11 10 10 10 9
91 74 69 80 72 64 79 92 97 97 92 66 49 100 98 97 96 99 85 42 41 40 42 38 37 33 29 26 23 20 18 19 20 18 16 14 13 14 13 16 15 14 12 11 10
98 89 69 80 81 79 78 89 91 96 98 62 72 99 93 98 89 96 97 92 81 75 59 48 39 34 29 24 22 24 22 18 18 15 22 22 18 25 35 34 28 26 24 19 19
97 97 64 54 84 92 81 74 67 89 84 85 98 91 98 94 100 97 85 91 90 74 59 47 39 30 26 26 26 20 19 19 32 40 50 47 34 45 36 27 24 30 30 30 29
96 71 58 58 76 83 77 72 85 94 80 95 97 98 99 98 98 94 74 86 79 66 52 43 32 30 28 23 20 20 31 41 45 58 60 55 43 41 32 26 25 30 40 38 40
94 69 52 59 67 68 64 65 98 94 93 88 92 98 99 93 98 98 91 81 69 57 42 35 32 23 24 26 29 41 47 50 53 68 61 49 42 38 38 37 41 42 44 50 42
62 49 54 55 53 50 46 64 96 86 89 97 95 98 98 98 97 98 92 75 60 41 34 32 27 31 34 40 43 47 51 54 54 76 75 65 56 44 55 54 48 51 52 56 60
43 46 48 59 66 96 98 77 93 90 97 98 98 98 98 97 92 95 73 48 39 38 36 30 38 38 46 51 53 57 57 67 77 89 91 88 69 54 68 67 51 71 57 81 84
35 45 54 71 98 73 92 92 93 95 93 97 97 98 98 98 97 87 52 48 46 42 38 40 42 50 55 59 61 56 63 78 98 97 97 93 89 75 69 74 70 73 84 79 90
47 62 95 89 88 96 97 97 95 77 91 96 97 96 92 89 72 52 52 48 50 50 52 61 57 57 61 73 68 74 94 92 90 99 100 100 99 69 68 71 78 69 72 69 71
50 70 84 90 94 92 94 82 68 60 96 96 98 98 96 71 65 52 60 61 63 62 59 62 62 70 78 76 77 92 80 95 89 100 97 87 92 75 68 73 81 95 97 67 69
65 72 78 78 73 76 69 61 57 88 96 98 99 96 74 69 62 67 70 71 71 75 76 73 79 86 84 97 95 87 98 94 91 90 89 95 99 71 86 96 95 99 97 100 98
49 54 63 62 58 54 52 54 83 98 92 96 98 87 74 77 77 78 78 83 82 78 74 75 77 91 94 90 96 99 99 94 99 95 90 99 93 93 98 97 98 99 100 99 100
48 48 51 62 49 49 50 65 96 92 95 96 96 86 87 82 77 83 85 86 85 79 81 89 87 88 89 92 100 98 99 99 99 98 98 85 95 97 98 98 96 98 100 100 99
46 40 45 49 52 48 40 73 82 82 82 75 70 68 75 72 71 74 81 88 89 84 91 88 89 80 90 98 95 84 89 99 99 98 92 87 96 98 98 98 97 97 97 98 98
53 46 57 48 39 29 49 91 93 87 72 64 58 62 68 68 77 84 86 93 96 93 88 88 88 77 86 74 86 87 82 84 95 98 94 92 91 98 99 98 99 98 98 98 98
47 50 51 37 27 58 77 84 82 77 76 75 72 72 78 77 88 88 87 89 92 91 89 92 93 78 66 72 76 66 74 83 90 77 83 84 80 95 99 98 100 100 100 98 98
44 49 42 34 40 51 64 72 79 71 71 76 82 80 78 78 76 75 73 73 74 79 82 80 79 72 57 65 62 57 64 76 75 84 82 78 78 88 81 84 92 96 97 96 95
40 51 45 41 49 54 59 64 76 80 80 76 81 76 70 68 64 64 62 67 72 77 76 74 66 63 59 53 51 49 56 64 71 74 62 68 78 84 81 71 71 72 74 76 75
38 51 58 60 51 54 59 72 73 78 76 67 67 62 58 60 57 54 55 57 55 55 62 68 55 48 43 45 47 45 50 53 59 58 57 53 54 55 57 58 56 59 64 68 68
40 44 47 57 60 63 59 66 69 65 63 59 57 54 53 52 50 48 49 43 42 48 49 51 52 47 33 35 40 37 41 53 51 53 48 49 47 50 51 53 57 61 61 63 65
34 38 40 43 47 49 48 50 51 52 53 56 56 50 48 48 48 46 44 41 41 42 41 45 49 51 40 37 44 38 22 33 35 38 38 40 38 44 50 54 57 59 61 64 64

GFSSW_700_rhum_102.txt.gz
RH
90 97 95 77 80 71 65 80 87 90 53 28 37 52 81 99 96 74 63 54 49 45 40 32 22 18 14 14 13 12 11 11 9 9 9 9 9 8 8 9 9 10 10 11 11
97 91 83 86 91 86 67 64 88 91 96 52 26 61 86 96 95 90 75 61 51 44 43 37 26 20 17 15 14 14 13 12 10 10 10 10 10 9 8 8 8 9 9 8 9
42 63 85 85 81 84 76 68 75 84 96 96 45 32 88 74 99 100 89 78 58 51 38 37 32 22 18 17 16 16 15 15 14 13 13 13 13 12 10 9 9 10 10 10 9
66 65 66 70 70 78 76 67 78 81 98 93 81 30 84 64 98 99 99 82 60 55 49 35 32 28 22 19 19 18 18 18 18 17 16 15 13 12 11 10 10 10 10 9 8
59 58 63 63 61 55 66 74 80 90 100 89 95 46 75 98 99 99 96 89 72 59 54 44 39 35 27 24 23 23 22 22 21 19 17 15 14 13 11 12 11 11 11 10 10
69 50 53 56 57 54 70 63 76 95 98 96 89 65 80 100 99 95 85 89 77 65 58 46 37 35 30 27 26 24 23 20 18 17 15 15 15 15 13 12 12 10 10 10 9
87 85 68 59 60 73 69 72 77 84 98 97 92 93 98 93 98 98 90 63 68 70 54 39 31 30 29 29 27 25 22 19 17 17 17 16 14 16 16 16 16 16 14 12 12
97 93 89 56 78 78 79 76 77 91 97 96 94 97 91 98 88 95 83 52 58 50 42 38 38 35 33 28 25 22 20 21 17 16 17 19 27 27 33 25 21 16 16 16 16
97 96 84 55 72 74 74 74 93 74 91 94 87 98 97 98 93 99 93 51 60 67 58 51 45 37 32 27 25 23 21 18 19 25 28 29 27 37 31 21 17 17 16 16 16
57 67 60 62 61 70 75 62 82 78 92 84 93 98 97 98 98 98 95 85 81 72 56 48 41 33 29 27 44 20 18 22 32 41 35 41 31 39 41 26 32 32 24 25 30
49 58 61 57 58 74 74 61 89 98 97 94 98 97 98 98 99 100 93 85 77 66 54 44 35 31 26 21 19 20 31 38 40 48 43 45 36 42 47 37 45 39 32 34 39
46 60 59 58 52 54 58 73 91 90 93 97 97 96 98 99 95 98 96 80 69 53 44 37 28 24 21 23 33 38 43 45 46 60 63 52 40 44 44 54 52 43 35 40 39
49 60 74 77 78 70 74 84 97 86 95 98 98 98 97 98 97 94 82 70 53 40 34 27 28 26 34 37 43 45 48 48 60 67 80 63 66 50 53 61 61 57 48 59 68
61 82 92 92 98 72 92 94 93 96 93 97 98 98 98 98 94 88 71 56 41 36 29 31 34 36 42 48 48 48 55 63 77 97 91 89 78 77 66 66 70 71 72 60 70
94 97 91 89 91 97 94 95 92 72 85 96 96 97 98 92 89 59 50 42 37 36 41 46 47 51 52 52 58 74 69 84 89 100 99 94 100 73 66 68 77 83 82 85 75
79 90 97 96 82 87 90 83 71 66 94 96 98 98 87 80 59 47 47 48 52 51 50 53 56 69 74 71 73 74 79 79 98 100 95 83 95 69 78 84 86 94 99 100 98
67 72 77 87 83 84 71 63 62 90 96 98 97 95 74 60 50 62 65 63 61 70 73 77 83 79 82 90 85 84 89 86 86 93 79 88 98 79 78 98 91 96 99 98 99
59 54 56 61 62 60 57 56 91 100 98 94 90 72 61 66 70 71 76 80 76 72 69 76 92 87 91 90 90 100 95 96 88 74 71 96 91 95 91 90 91 91 98 99 100
50 50 46 52 54 55 50 65 92 94 86 88 81 75 81 77 78 86 86 83 77 73 76 91 86 88 88 88 92 94 98 99 98 91 95 77 96 88 89 88 89 90 92 95 99
47 45 42 51 46 43 40 65 77 72 72 68 76 72 94 81 82 80 86 87 83 83 84 80 86 81 82 90 88 92 98 99 98 90 74 64 87 92 90 91 92 91 92 95 94
37 41 45 41 31 25 42 67 67 63 57 59 58 65 69 76 78 84 84 88 89 88 76 72 72 70 78 77 96 95 99 88 95 100 75 65 66 81 88 94 95 92 91 90 92
31 37 43 30 26 42 50 60 63 65 68 76 76 76 76 83 85 83 86 87 86 76 74 67 66 65 67 73 80 79 82 76 84 79 81 76 65 82 80 81 82 82 87 92 99
26 37 43 37 57 57 66 71 77 68 67 72 77 72 69 68 70 69 66 66 65 65 64 62 63 78 60 63 67 56 57 62 72 78 82 67 56 75 81 80 80 83 89 94 93
24 40 42 46 49 58 66 72 77 73 69 63 66 61 58 58 59 59 55 53 56 60 56 52 53 54 54 52 49 50 50 54 67 85 66 62 64 61 73 64 65 65 66 68 69
27 38 48 53 52 50 51 62 57 60 61 57 59 56 53 52 48 49 49 46 45 46 49 57 56 50 41 42 44 40 40 49 49 58 66 50 45 47 50 53 56 57 57 59 60
30 36 38 44 48 50 47 53 51 51 50 50 47 44 42 43 42 43 46 43 43 45 47 50 53 45 28 30 33 35 35 39 43 43 44 45 38 42 46 49 51 55 55 57 59
23 27 30 30 32 35 38 38 39 38 39 40 39 40 40 40 39 37 38 39 40 44 48 50 53 53 48 35 36 34 19 20 23 30 30 36 28 32 38 46 52 57 60 63 64

GFSSW_700_rhum_105.txt.gz
RH
97 92 90 82 90 82 73 65 90 95 64 35 38 97 99 100 100 95 76 48 55 50 40 33 20 14 13 12 12 11 19 26 34 27 30 9 10 9 8 8 8 8 8 10 10
40 55 69 85 78 83 92 76 78 93 94 67 33 37 73 100 100 94 73 48 46 51 46 39 27 19 15 14 13 12 20 29 21 14 12 9 9 8 8 8 8 8 8 8 8
69 58 42 40 63 96 97 90 67 73 89 89 70 29 46 94 99 98 89 59 45 46 45 43 34 22 18 16 15 14 36 17 12 12 12 11 11 10 11 9 10 8 8 8 7
77 76 70 60 63 65 76 77 73 68 79 76 93 49 61 88 99 99 100 74 64 43 43 39 38 29 21 17 16 16 16 16 15 14 14 14 13 12 11 10 10 8 8 8 8
88 68 66 69 56 48 64 70 70 68 71 75 90 94 53 75 99 99 83 96 74 49 44 38 35 32 27 21 19 20 18 18 18 17 16 15 13 12 9 9 9 9 10 9 9
96 71 52 55 60 55 47 56 69 75 81 87 89 96 61 86 99 79 100 99 78 56 49 45 39 37 29 25 23 22 21 20 19 17 16 14 12 11 11 10 11 11 10 10 10
92 88 71 65 56 66 51 60 64 65 70 93 84 95 91 83 98 92 99 99 88 73 56 46 38 34 30 27 26 24 22 20 18 16 14 13 12 14 14 14 13 13 13 13 12
95 86 84 58 69 69 70 72 77 69 68 96 92 94 98 70 98 87 96 71 86 71 54 44 34 29 28 26 23 22 21 30 24 16 15 16 20 41 18 19 20 18 14 12 12
95 93 76 48 58 68 72 70 65 86 86 90 94 99 97 90 97 98 96 64 71 58 43 35 32 31 30 29 26 24 55 32 44 22 20 19 25 45 34 25 22 20 22 25 22
69 81 53 53 72 77 73 73 80 81 98 99 97 100 97 98 98 98 90 60 62 57 51 47 43 35 33 29 57 53 36 19 34 48 23 24 20 24 36 31 36 35 33 32 20
82 62 56 62 62 68 82 81 93 100 96 96 96 98 95 98 99 95 86 79 80 66 51 46 37 42 35 27 24 21 18 21 33 32 30 32 26 27 38 46 40 47 43 31 21
79 64 57 54 52 61 68 76 97 81 92 86 96 98 99 98 98 98 96 78 71 61 51 41 45 31 26 21 19 22 31 54 46 38 43 38 33 41 53 49 50 51 45 35 28
89 98 100 82 56 48 83 96 95 94 97 98 98 98 97 96 98 94 91 79 64 50 42 60 35 24 23 28 33 42 63 71 60 61 67 85 62 63 48 50 49 53 49 54 53
98 98 95 78 67 80 98 94 95 96 95 97 99 99 97 97 97 94 92 64 52 44 45 31 28 29 33 40 40 78 47 51 65 92 82 86 71 70 77 66 65 89 55 64 62
100 83 85 85 94 96 91 95 94 88 91 96 96 95 97 95 89 78 69 57 41 35 32 47 38 40 47 46 50 93 60 81 100 98 99 86 97 66 69 75 91 93 79 79 78
88 85 89 88 95 74 86 82 79 90 94 96 97 97 96 95 72 66 51 46 38 39 46 47 46 49 74 66 64 68 88 84 98 99 88 77 78 61 76 83 73 84 98 89 82
67 78 78 87 89 83 71 74 86 91 96 97 97 96 94 81 50 49 52 55 81 72 68 71 77 73 77 93 80 84 88 88 87 91 75 74 78 68 83 80 83 84 85 80 66
54 59 64 71 68 72 76 75 86 99 99 94 99 96 80 76 63 66 77 83 64 92 76 100 93 89 88 99 97 97 96 94 80 73 69 84 87 80 81 81 82 82 81 78 82
50 52 52 56 62 66 68 81 96 99 100 96 95 82 73 67 82 89 100 97 83 70 97 98 95 90 79 87 96 96 98 95 88 83 91 74 87 85 76 85 85 82 80 80 79
44 43 51 51 50 46 60 83 70 75 79 81 81 80 80 83 90 90 94 80 77 72 76 90 98 87 80 77 81 87 92 92 98 90 75 68 71 85 71 72 79 81 79 76 76
24 34 36 37 28 35 93 92 59 58 58 95 79 81 82 89 88 89 91 74 74 73 67 87 93 84 69 70 86 94 98 95 92 89 80 58 63 57 62 64 64 71 71 68 69
19 25 35 30 27 39 51 61 63 60 57 62 62 74 89 91 94 91 91 97 77 71 98 64 71 84 77 71 71 94 86 75 71 68 70 66 60 56 60 64 60 64 68 76 87
22 26 34 30 58 59 56 55 61 61 61 66 71 67 65 74 82 79 65 62 60 62 85 59 79 79 67 65 64 75 82 80 75 84 76 59 49 43 52 60 64 71 76 75 66
26 37 43 46 53 59 70 65 68 63 60 57 60 58 59 70 59 64 63 52 51 50 49 46 69 70 61 59 62 66 72 63 75 81 57 54 44 49 40 48 46 46 52 54 59
31 38 38 42 44 44 47 52 52 55 55 52 53 48 45 64 45 46 44 41 42 43 41 46 62 61 33 32 38 42 43 68 75 44 64 43 53 53 66 41 42 45 48 53 58
25 29 35 31 30 34 31 37 36 37 36 38 40 40 37 38 38 43 43 42 45 38 41 39 53 41 22 27 27 28 27 31 48 62 61 46 24 28 38 37 39 43 47 50 54
18 21 22 26 25 22 25 23 24 25 26 26 26 24 26 27 29 29 30 31 32 34 37 40 42 55 65 39 36 35 17 15 17 19 22 46 36 38 26 29 37 46 47 50 54

GFSSW_700_rhum_108.txt.gz
RH
52 96 98 97 88 78 81 64 70 84 63 40 39 74 99 100 100 97 64 41 54 48 37 24 17 14 12 13 12 20 22 28 30 28 32 23 10 10 10 10 9 8 8 11 12
56 60 77 53 82 74 71 80 68 76 88 70 43 36 84 99 100 99 77 57 45 54 45 36 23 15 13 13 13 13 23 35 35 33 27 12 10 8 8 8 8 9 8 8 6
85 78 71 66 55 44 58 80 79 68 87 90 79 43 46 86 99 98 93 73 46 46 49 42 29 20 15 14 13 12 35 34 30 14 11 10 10 10 10 9 10 9 8 8 8
95 82 72 66 62 86 80 99 85 69 68 83 85 90 35 74 98 99 98 82 59 43 45 44 39 26 19 17 15 15 14 20 15 14 14 13 12 11 9 9 9 8 7 7 7
93 81 69 77 64 81 76 91 78 75 68 72 74 90 69 67 83 100 77 97 78 56 43 40 40 35 28 20 17 16 15 16 14 14 14 12 12 10 8 8 8 8 8 9 9
94 88 56 60 62 59 55 79 66 65 63 64 64 89 96 83 84 100 89 100 87 67 54 44 36 34 36 26 20 17 17 17 16 14 12 10 10 9 8 8 10 10 11 11 11
93 85 62 56 56 62 60 58 69 82 72 71 84 85 96 93 82 92 100 79 94 67 60 48 38 33 29 27 25 22 21 20 17 14 13 12 9 14 12 14 13 13 13 12 11
93 85 78 58 60 74 75 69 64 56 59 83 82 96 94 96 93 98 82 99 89 68 50 51 42 34 27 25 22 22 21 21 18 19 14 13 11 24 15 16 14 15 15 13 13
98 88 75 63 73 94 82 75 78 70 70 87 86 98 98 98 94 99 96 97 98 85 63 50 39 31 28 25 22 22 24 26 29 20 17 15 14 24 24 23 19 21 22 27 26
93 90 60 61 68 72 68 75 86 99 100 93 90 98 99 99 98 98 89 82 91 78 55 36 33 30 29 27 40 38 29 24 23 29 19 16 14 15 19 28 34 27 30 28 31
55 57 58 59 67 76 89 84 90 98 90 94 99 98 98 98 98 98 96 72 56 49 43 42 38 37 34 31 31 42 27 22 26 29 20 20 20 15 25 39 69 40 44 40 39
80 68 55 47 66 76 88 84 88 81 93 95 94 100 98 98 94 92 90 81 70 56 48 43 62 41 36 29 25 22 21 46 51 37 30 33 25 30 30 55 50 46 46 43 44
70 75 74 49 46 56 85 95 89 77 93 98 97 98 98 99 88 94 92 80 72 58 51 48 43 32 26 22 22 30 55 68 52 40 51 68 53 56 50 47 48 52 47 46 52
71 66 53 42 55 71 86 90 92 95 94 98 97 99 100 96 96 95 75 74 66 55 48 38 31 25 24 30 34 78 60 45 55 67 83 69 76 60 69 65 60 61 56 58 62
69 71 77 84 85 88 88 95 95 94 92 96 96 97 97 97 98 98 94 69 55 52 38 40 28 29 34 38 44 95 58 68 96 98 94 85 89 65 67 68 78 59 68 69 61
77 73 63 76 88 82 84 92 95 93 97 97 97 97 96 97 90 96 82 62 48 39 45 44 35 41 70 58 63 72 71 89 96 96 89 79 79 64 70 69 62 71 70 61 60
63 71 70 70 76 74 78 85 88 92 96 98 99 97 96 90 90 73 54 50 77 79 71 78 71 66 70 86 76 74 97 85 94 88 90 73 72 63 68 55 65 72 72 64 66
46 51 62 65 74 82 94 76 87 98 97 97 96 95 92 75 63 65 88 58 67 93 72 96 80 82 85 87 89 96 98 87 81 84 84 74 77 55 61 66 73 74 70 68 72
50 51 52 54 60 69 76 82 96 97 93 97 90 65 64 65 74 98 91 90 68 86 92 93 91 86 84 100 97 90 93 93 84 76 86 70 68 72 69 66 62 66 66 66 69
31 36 45 39 50 59 67 87 92 93 86 84 74 73 80 81 85 81 86 74 70 62 80 91 92 87 90 77 78 97 93 92 89 95 90 68 73 65 53 60 57 63 62 64 66
20 30 30 28 26 28 52 64 56 59 71 81 76 73 78 84 79 80 79 71 85 74 74 96 90 89 80 70 89 98 90 90 84 81 80 84 68 58 38 54 56 56 56 61 63
19 21 27 27 28 50 50 52 58 54 54 72 80 88 88 87 84 87 89 91 73 66 99 66 86 84 82 79 72 83 87 83 70 83 77 69 65 56 39 36 50 60 61 64 61
30 37 41 33 44 52 63 63 63 63 62 68 68 65 67 74 79 80 65 59 55 52 55 52 85 77 72 71 64 53 53 56 77 73 74 76 57 48 44 42 35 37 38 40 45
32 40 42 45 45 52 56 55 54 53 52 50 53 54 67 58 54 45 43 41 38 36 35 33 41 49 68 61 64 64 64 65 76 83 65 66 50 51 46 40 35 35 36 38 42
28 34 38 39 41 44 42 44 46 47 47 41 38 32 30 46 42 37 33 30 30 31 32 32 30 49 36 27 28 30 38 57 70 45 59 32 47 42 48 37 34 34 36 40 43
22 26 29 33 36 32 34 36 34 35 31 38 38 35 35 43 38 46 38 40 45 34 34 33 35 33 13 20 30 28 24 28 34 51 48 31 18 25 21 29 20 26 36 39 43
17 18 20 24 22 22 27 24 25 26 26 27 26 28 29 30 31 32 31 31 32 34 34 38 38 40 29 45 35 21 11 12 12 15 17 37 12 36 41 35 26 24 26 32 40

GFSSW_700_rhum_111.txt.gz
RH
92 74 56 99 93 98 96 91 71 70 82 59 39 50 83 99 98 88 71 51 52 47 29 19 16 14 15 15 14 18 25 28 27 31 30 28 17 11 13 12 11 12 14 13 6
95 84 81 96 98 95 90 83 81 62 69 77 53 32 34 99 100 95 78 55 51 51 39 22 17 15 13 13 16 25 27 31 30 26 24 20 11 10 9 8 8 8 8 8 8
97 82 63 65 67 86 68 69 72 74 67 89 67 50 40 98 99 88 96 74 55 56 46 32 20 15 12 13 15 18 27 35 34 27 16 11 9 10 10 10 9 8 7 7 7
95 81 67 63 62 56 72 68 77 84 66 81 85 65 48 63 83 100 98 84 63 58 51 41 32 20 14 13 12 13 16 27 29 25 12 12 11 10 8 10 8 8 8 8 8
95 80 72 71 73 77 89 88 92 85 72 72 86 83 67 37 63 99 94 84 70 62 52 46 40 29 20 16 14 14 13 13 14 14 13 11 10 9 8 8 8 9 8 9 9
93 81 56 58 68 62 68 87 97 92 76 64 76 80 90 53 69 98 96 92 79 65 51 44 38 37 29 20 16 14 15 14 14 12 12 10 10 8 8 8 10 10 12 12 11
88 68 59 57 61 56 62 95 94 95 78 66 60 66 92 73 84 93 98 100 86 66 55 41 38 38 32 28 23 18 16 15 12 12 11 9 8 9 10 10 12 14 12 12 11
94 92 71 56 66 61 73 74 87 87 73 75 72 63 95 85 94 89 99 100 89 68 48 40 34 30 26 25 22 20 18 15 12 11 12 11 9 9 12 13 14 14 12 12 12
96 83 61 70 71 73 83 76 64 55 69 74 78 91 96 94 90 94 98 100 97 78 58 50 43 34 29 25 22 22 19 15 14 17 14 14 12 13 14 14 15 15 13 13 14
76 69 55 63 64 60 57 66 71 63 78 85 90 99 96 98 98 90 90 71 99 78 65 54 42 33 29 26 23 22 21 30 27 20 16 16 13 17 18 19 22 21 17 16 21
42 38 45 50 55 73 70 90 96 99 100 97 95 99 97 98 89 96 91 97 97 85 59 41 34 30 28 25 40 47 38 28 28 19 20 20 17 15 21 24 29 23 25 33 30
54 35 35 45 71 83 78 94 91 85 91 94 97 98 98 97 98 95 93 91 74 53 42 37 35 32 31 31 31 30 27 33 38 36 27 24 16 16 17 27 35 40 37 34 38
53 35 32 48 65 83 89 84 89 88 96 100 99 99 98 97 96 97 88 70 59 49 44 39 46 45 38 29 24 28 38 43 46 28 29 22 23 25 33 38 44 48 40 43 50
36 37 38 49 68 75 82 85 94 90 89 98 98 98 97 94 97 97 86 71 62 53 46 43 39 30 26 24 30 42 51 47 43 36 44 41 54 32 37 49 55 46 53 57 60
66 65 59 60 66 72 80 86 81 81 88 96 96 96 98 94 95 95 88 78 59 54 44 39 31 28 29 33 34 49 54 46 50 62 66 64 80 46 59 64 62 59 60 66 70
61 63 66 74 83 84 83 79 73 72 96 97 97 98 96 100 92 90 80 59 59 48 55 36 32 33 36 44 42 45 48 60 79 89 95 73 81 53 64 62 65 65 68 71 71
58 61 62 65 73 76 70 62 64 88 95 98 98 96 96 96 95 94 64 57 61 53 59 59 55 55 59 53 54 52 53 86 90 97 88 75 85 51 53 55 60 64 68 66 62
47 58 53 59 64 62 69 68 84 98 99 97 93 96 97 95 76 61 67 61 80 66 54 82 65 72 80 79 89 96 94 87 92 98 89 80 72 46 54 53 58 59 57 58 54
36 53 58 56 54 56 62 78 88 90 87 80 81 73 77 71 82 88 89 74 77 62 69 81 90 84 98 97 93 90 88 91 93 80 90 65 60 57 53 49 54 53 53 51 53
28 27 40 52 52 53 57 74 85 85 85 84 76 66 81 83 82 78 81 63 60 63 77 84 88 90 88 87 92 92 95 93 90 96 80 71 71 62 47 36 46 51 49 48 48
20 25 27 28 31 29 39 60 69 76 79 79 73 66 77 78 77 80 68 61 58 66 75 93 86 94 94 72 85 90 89 86 79 76 83 91 62 61 52 32 26 36 49 48 44
27 27 26 28 30 37 42 46 59 65 67 81 77 83 82 79 80 86 79 76 63 67 80 74 90 85 73 76 86 87 72 76 76 86 79 79 63 46 50 42 36 27 28 30 30
39 43 42 39 46 49 56 57 56 58 59 64 71 73 80 79 72 69 66 62 60 58 57 57 64 72 85 77 72 79 66 71 80 76 75 81 49 49 40 43 35 29 29 31 32
32 39 43 47 50 54 54 55 59 58 56 56 62 59 58 64 52 39 40 40 40 40 38 37 46 42 62 55 56 61 46 50 64 72 56 44 21 20 31 46 36 33 35 33 34
20 26 34 37 41 44 48 47 46 46 46 43 42 47 58 58 57 47 43 39 37 36 34 32 27 32 29 28 35 36 39 53 66 48 59 25 27 20 36 39 27 25 28 31 33
13 15 17 18 24 23 24 31 33 33 29 30 29 31 30 29 33 34 36 34 34 37 36 37 36 35 19 25 37 36 28 30 36 49 53 37 15 21 20 23 25 22 21 20 24
11 11 12 12 14 14 16 18 19 21 20 21 22 24 23 22 21 22 23 26 31 34 35 39 40 39 26 30 23 18 16 15 13 11 11 24 4 12 13 15 15 19 19 20 20

GFSSW_700_rhum_114.txt.gz
RH
85 93 94 96 63 97 98 97 85 74 75 67 52 90 94 100 99 84 68 60 58 43 26 20 19 21 19 15 14 16 24 30 39 44 37 34 31 26 20 19 18 19 14 12 8
92 97 94 95 72 96 88 92 97 76 72 91 62 45 80 99 100 95 75 58 59 47 29 19 16 16 16 14 15 21 27 31 31 33 31 29 18 11 12 12 11 8 7 7 7
90 91 83 82 99 97 94 95 95 92 66 78 78 51 63 77 98 99 92 66 61 50 34 20 17 14 14 14 20 23 26 30 30 28 26 17 11 9 9 8 8 9 9 8 7
95 78 70 66 74 84 73 79 92 94 78 84 96 56 65 85 97 100 98 72 61 54 40 24 18 15 13 14 22 24 27 28 28 26 14 10 10 9 8 7 6 6 6 6 6
87 72 76 70 66 70 79 80 91 90 78 79 87 81 77 89 94 100 100 79 64 56 45 33 21 16 13 13 14 16 21 29 29 26 14 12 10 8 6 6 6 5 6 6 7
85 53 54 58 59 56 75 87 86 94 80 72 80 93 95 66 77 98 99 84 65 57 48 37 27 22 16 14 13 13 13 14 14 13 12 11 9 6 6 6 6 8 8 10 10
82 71 53 52 56 58 62 74 85 92 78 67 76 84 97 80 76 93 100 82 67 58 50 43 35 28 22 17 15 14 15 14 13 12 11 8 7 6 6 8 9 10 12 12 12
83 65 58 56 61 64 74 94 96 90 77 66 63 71 96 96 71 80 99 85 74 61 50 46 41 36 30 26 21 19 15 14 13 11 10 9 8 8 8 11 14 14 14 13 12
70 52 53 61 67 78 79 87 89 84 77 71 58 63 88 98 100 68 99 93 76 65 54 43 37 36 33 28 25 23 17 16 15 11 11 12 11 12 13 14 14 15 14 12 12
55 42 52 52 63 65 67 74 54 64 80 88 73 79 98 100 100 94 98 94 82 66 58 50 39 31 26 22 20 18 16 18 18 17 15 14 12 14 14 15 14 14 12 13 17
29 34 39 49 72 65 75 71 58 96 95 99 98 98 96 98 85 91 96 97 91 72 59 51 42 34 27 24 21 21 18 24 19 18 15 15 12 16 18 16 14 13 17 24 28
28 30 37 63 63 69 87 82 64 83 96 96 99 95 98 98 90 99 91 98 92 72 55 42 35 31 29 28 36 42 38 25 19 21 22 20 14 15 13 12 19 28 29 34 37
29 40 53 63 59 75 84 82 83 78 97 98 97 97 98 99 97 98 94 90 97 48 42 36 39 33 33 33 31 25 24 27 29 28 22 20 18 17 17 24 30 31 42 45 50
41 52 59 60 67 70 81 85 81 84 91 97 97 98 97 98 96 97 98 82 82 48 46 45 44 40 34 27 27 24 30 32 30 27 26 25 32 14 19 31 32 39 48 52 57
49 50 62 67 71 77 77 74 76 66 87 96 96 95 98 97 97 93 81 80 56 49 46 44 37 30 28 29 34 36 43 39 37 40 35 40 59 29 34 35 40 47 54 59 62
58 63 72 77 82 77 75 74 72 64 96 97 98 97 96 97 96 96 94 75 66 51 41 36 35 35 31 31 36 41 42 56 60 59 68 71 68 37 37 42 48 53 57 63 67
58 64 67 70 71 76 78 71 69 91 98 97 99 97 91 92 83 68 62 59 51 47 43 45 47 49 48 50 49 48 48 64 74 87 78 78 80 38 43 49 53 55 57 60 59
60 59 53 51 56 56 59 69 88 99 99 97 98 99 91 93 82 64 72 60 57 50 43 52 60 59 68 66 64 54 57 75 81 97 89 84 81 41 52 47 51 52 51 48 45
56 58 54 55 53 55 58 76 92 89 83 81 82 83 81 88 88 85 66 61 60 44 57 54 75 74 85 98 75 80 83 82 85 90 97 68 55 49 53 28 38 48 47 45 46
32 43 47 51 49 51 56 71 80 81 85 82 79 69 72 69 73 73 77 54 56 54 63 68 82 90 94 90 88 85 85 84 87 91 92 70 66 50 53 30 22 24 33 42 42
27 30 30 31 31 37 49 72 80 83 85 88 73 79 80 80 83 82 62 52 51 63 74 77 74 87 96 69 61 82 85 80 82 80 92 90 46 50 55 46 28 22 22 23 24
30 35 32 36 40 47 50 55 67 65 64 72 68 74 80 80 86 79 66 70 64 68 72 77 81 72 61 76 83 82 83 72 73 74 78 83 45 30 45 45 25 20 18 19 20
34 36 40 42 45 49 55 60 63 66 65 69 76 78 75 78 72 73 71 67 66 66 69 58 70 73 79 77 82 95 82 83 77 79 78 84 36 30 37 23 21 25 20 19 19
29 32 36 39 43 46 49 51 54 55 56 55 58 64 64 62 53 47 47 49 49 53 53 54 57 53 55 60 64 72 58 63 78 84 73 52 19 16 17 18 22 21 20 19 18
15 17 16 20 25 30 33 38 38 37 39 38 43 44 44 46 43 39 38 37 37 38 39 41 35 33 27 27 40 37 38 45 54 40 67 17 17 5 10 15 20 23 19 17 17
12 10 10 11 12 15 14 18 19 20 22 24 26 27 30 32 31 34 33 32 37 38 35 33 32 28 16 17 24 24 19 20 26 30 35 19 11 12 11 12 12 15 21 22 19
10 10 12 10 12 13 14 14 15 15 17 17 18 19 19 21 19 19 20 22 25 32 38 43 40 41 26 27 25 16 8 8 9 11 11 21 4 8 7 10 11 14 18 21 24

GFSSW_700_rhum_117.txt.gz
RH
74 82 86 87 86 76 83 98 98 92 74 63 68 94 98 99 83 87 74 70 56 32 23 22 22 18 16 16 15 16 18 27 33 42 41 40 40 35 30 25 20 18 18 18 15
80 84 89 96 98 88 92 96 98 96 74 70 73 80 99 98 99 100 79 68 60 36 22 21 22 19 16 15 15 16 21 27 31 37 36 36 35 28 25 22 19 13 10 7 6
82 82 86 92 98 90 95 96 96 96 86 81 77 69 92 98 99 100 87 66 62 40 21 19 19 18 15 15 16 17 25 29 31 34 34 34 27 11 11 11 9 7 7 7 6
85 78 73 75 78 86 92 90 95 97 85 74 85 69 87 97 98 100 93 68 61 41 22 18 16 15 15 16 17 23 26 29 30 30 28 19 12 9 8 8 8 8 6 5 4
77 74 70 69 75 96 94 89 88 95 79 90 84 70 74 98 97 99 98 78 61 41 24 19 16 14 15 15 16 24 23 27 30 26 19 13 9 9 8 6 6 5 5 5 6
54 42 46 54 52 75 93 88 96 96 77 93 91 85 67 96 95 99 97 80 59 42 28 19 17 16 15 16 23 21 26 27 28 26 19 10 9 8 7 5 5 5 5 6 8
63 41 39 45 49 58 85 91 97 95 76 84 91 92 80 88 85 98 99 78 59 42 29 21 18 16 14 15 16 15 20 20 16 14 11 10 8 6 5 5 5 7 7 8 10
46 44 48 59 68 72 74 85 87 89 74 79 83 91 96 85 81 98 98 76 60 49 36 30 25 20 15 16 16 16 16 14 13 12 10 9 6 5 6 7 8 8 9 11 12
44 41 50 59 77 81 96 93 96 91 71 67 73 83 98 94 98 95 98 86 64 54 42 35 34 31 21 20 18 19 17 14 13 12 10 9 7 7 8 10 11 11 11 13 13
33 37 44 57 63 76 69 83 89 78 69 59 65 79 91 98 98 98 98 82 65 51 44 42 44 41 32 28 24 21 18 18 16 14 10 10 9 10 11 10 12 14 14 12 12
34 40 57 71 56 64 64 52 70 84 90 85 94 89 83 99 98 93 96 72 64 55 47 45 43 38 33 28 22 19 19 14 14 14 14 12 10 13 13 12 14 14 13 14 22
41 58 59 62 89 79 67 68 69 71 97 95 97 90 98 86 95 93 98 75 66 62 56 49 42 35 29 25 22 16 14 15 16 17 16 15 12 14 15 14 14 13 17 28 32
51 55 58 77 89 86 83 81 82 95 98 100 98 100 100 96 92 92 98 81 70 63 52 44 39 33 31 28 33 33 29 22 21 24 22 18 16 17 17 16 16 20 25 33 40
53 52 58 70 80 88 88 89 94 89 90 97 97 98 99 99 97 97 97 92 59 51 43 41 37 35 35 32 29 24 24 24 23 23 23 24 26 18 16 15 17 28 38 44 49
59 60 67 74 78 81 77 80 80 68 87 95 97 97 99 96 93 95 87 84 63 49 44 49 45 42 34 34 31 30 35 34 30 28 28 29 34 18 18 25 32 40 46 50 54
62 68 66 70 72 71 74 74 69 65 95 96 96 97 96 98 92 96 82 71 64 47 43 42 38 34 32 37 43 38 36 34 37 42 61 55 58 27 33 34 42 44 46 46 46
70 72 74 75 70 69 65 66 68 89 95 96 97 97 97 95 83 90 90 72 60 43 40 38 38 38 40 40 36 35 35 49 58 81 67 79 83 30 36 41 41 43 43 42 41
64 69 69 68 70 66 67 68 85 98 100 95 98 95 92 92 85 77 70 55 49 46 38 40 49 44 50 51 52 46 45 48 43 94 90 77 75 33 38 40 36 43 42 40 39
54 61 65 68 66 61 61 77 93 94 92 96 96 91 89 84 75 65 60 57 50 40 51 47 64 61 76 78 65 62 56 64 73 92 97 60 45 32 36 42 23 25 32 36 38
35 37 49 53 51 54 60 77 81 85 83 77 78 79 88 77 74 66 65 58 63 53 60 60 76 86 82 88 77 78 74 72 69 90 93 69 60 36 47 38 22 18 16 16 16
30 33 34 30 36 41 48 70 72 73 69 76 69 71 78 83 78 75 58 48 53 71 76 70 68 82 89 66 63 73 78 73 75 80 91 88 36 34 42 50 39 23 15 14 14
33 38 42 43 43 49 49 51 58 56 52 64 75 75 80 81 84 81 66 69 58 70 82 80 82 67 62 74 75 72 81 71 72 70 81 85 41 17 41 48 31 17 16 14 14
38 39 36 37 42 45 54 59 63 64 65 67 69 69 73 73 71 69 69 63 66 73 75 68 75 74 72 71 73 78 64 77 73 78 76 80 26 14 18 14 15 16 19 17 17
32 33 35 33 31 32 36 42 48 51 52 54 60 62 59 52 46 48 50 52 53 54 56 57 52 53 40 47 55 58 40 56 81 82 70 42 14 11 14 16 19 15 19 19 18
18 18 18 22 22 24 21 24 25 27 30 31 33 34 32 33 31 31 31 30 32 34 34 36 31 28 24 25 33 31 36 48 54 45 64 17 14 4 8 14 17 15 15 16 16
13 14 13 15 18 16 17 16 17 17 17 19 17 18 18 17 18 18 21 24 26 31 33 32 32 28 18 18 20 21 19 24 36 50 45 32 9 14 11 10 12 15 15 15 16
12 13 12 12 14 17 19 19 20 21 20 20 21 21 20 19 17 17 18 20 20 26 33 38 36 37 26 21 22 20 15 16 14 12 12 20 6 9 9 12 14 14 14 15 17

GFSSW_700_rhum_123.txt.gz
RH
62 56 68 75 73 78 78 78 78 57 49 78 73 66 81 99 99 100 86 80 66 35 18 14 12 12 13 13 12 13 16 17 16 19 18 20 23 32 35 36 33 32 28 24 20
52 60 59 68 80 79 88 84 78 70 61 78 73 71 70 92 99 99 90 81 72 41 21 17 14 14 15 15 14 14 17 18 18 19 21 22 26 34 38 35 30 28 25 19 18
31 33 45 58 80 88 90 96 71 78 71 78 81 72 71 88 100 98 99 90 75 46 24 20 18 16 17 16 16 18 20 19 19 22 27 28 28 33 35 32 29 27 23 18 12
29 31 32 46 73 91 96 96 83 77 84 97 94 77 78 97 98 99 99 93 76 48 25 23 21 17 16 18 17 23 21 19 22 25 30 34 34 33 31 28 24 19 15 9 6
29 30 32 40 68 86 91 94 99 98 97 96 91 75 92 98 98 99 99 95 74 46 23 23 23 18 16 19 19 24 21 21 23 28 32 33 34 32 29 21 12 8 7 6 5
43 44 42 59 66 87 89 97 97 98 97 97 93 79 99 95 97 98 99 95 73 36 22 22 21 18 17 18 23 21 21 21 25 31 34 35 34 30 20 10 7 6 5 4 4
35 43 56 80 71 81 88 97 97 96 98 90 84 78 94 96 91 97 99 95 74 30 21 21 22 22 19 17 22 22 24 26 33 34 32 28 21 16 11 8 6 5 4 4 4
28 44 50 80 71 71 88 93 90 81 89 90 94 88 95 97 99 98 98 85 50 30 28 26 26 26 22 24 24 29 30 32 32 30 27 23 17 14 10 7 6 4 4 4 6
46 56 50 74 76 85 89 87 85 73 84 96 98 97 98 99 91 95 92 62 43 42 52 35 32 26 27 25 24 36 36 32 30 28 25 21 15 9 8 6 5 4 4 6 8
52 55 63 51 74 78 81 90 81 71 63 79 89 98 98 99 99 96 94 58 46 54 50 39 27 26 28 26 29 35 29 29 24 24 20 14 10 7 6 5 4 4 5 8 10
70 70 44 42 64 73 75 80 76 73 56 58 87 98 98 99 99 92 96 66 46 45 45 38 26 27 27 26 18 20 15 22 15 13 12 11 9 8 6 5 4 6 8 10 13
58 46 44 49 49 58 58 63 63 72 61 85 92 96 94 92 98 97 94 64 44 45 47 38 26 26 24 20 18 16 15 14 14 14 14 11 8 8 6 4 7 10 11 16 17
61 60 62 68 65 74 77 73 75 76 97 100 98 96 98 99 100 96 90 64 54 46 45 44 38 33 30 24 25 22 20 20 17 15 13 10 6 6 7 8 10 12 17 17 16
58 57 57 67 75 78 80 81 85 85 79 98 92 98 99 96 99 96 67 59 53 47 48 45 41 38 35 31 28 20 20 18 16 15 15 17 20 12 12 13 15 16 18 17 15
60 64 66 70 68 66 65 67 68 67 87 91 96 97 100 90 93 94 65 58 53 49 45 48 41 35 30 27 24 21 21 19 18 18 20 20 26 15 15 16 18 18 15 20 29
71 70 70 69 71 72 68 69 67 66 95 94 96 97 99 97 84 89 78 55 49 45 43 40 39 34 28 26 23 21 22 24 23 24 42 28 31 20 19 17 16 18 26 33 35
71 71 69 71 70 67 68 63 66 88 95 98 99 98 96 96 87 68 58 50 46 50 44 43 39 35 32 30 27 25 25 29 49 55 59 53 58 19 23 21 25 31 36 37 36
60 67 68 66 65 67 68 66 81 99 100 97 98 95 89 86 85 80 56 46 42 40 40 38 46 37 36 32 31 29 29 32 44 53 70 58 53 23 21 21 26 35 36 38 35
47 55 59 59 57 56 58 74 92 92 88 93 90 87 89 86 78 75 64 53 42 37 38 41 58 50 43 40 40 36 36 41 41 74 84 32 23 17 23 26 32 35 23 15 13
42 40 47 54 54 52 54 79 86 85 81 78 81 73 76 74 68 72 70 58 43 42 40 46 56 68 56 48 43 52 49 53 41 71 69 50 40 28 30 30 37 30 23 18 12
43 47 46 37 41 48 59 72 77 77 75 73 64 65 62 54 49 50 56 55 44 40 43 42 47 72 64 52 51 49 55 50 60 68 76 72 27 17 28 40 38 36 36 12 12
29 36 49 50 46 44 50 63 67 62 61 64 59 59 62 61 59 49 48 48 42 47 50 45 49 62 62 59 59 64 62 63 55 66 72 76 33 12 15 33 43 33 17 20 17
22 22 25 34 48 58 64 62 59 58 57 59 63 64 67 66 62 56 49 43 52 58 54 60 58 63 66 64 62 65 53 58 58 60 64 61 20 13 13 16 19 20 23 20 12
13 19 17 16 17 25 37 52 61 64 62 62 66 68 60 59 58 58 61 65 65 65 66 57 51 48 39 39 45 50 41 49 61 73 61 38 16 13 14 19 23 23 18 16 16
12 12 14 14 13 13 12 17 24 32 38 40 40 41 40 43 44 46 43 53 51 51 52 47 37 33 30 29 28 27 32 38 40 33 49 13 10 7 15 15 18 16 13 10 9
12 12 13 13 14 15 14 13 12 12 14 18 21 22 22 25 26 29 33 34 35 36 36 36 32 25 16 16 17 16 14 16 19 24 25 18 11 19 18 16 13 13 11 9 9
11 12 14 14 15 15 16 16 17 16 15 15 15 16 16 17 18 19 19 21 23 25 30 36 30 26 22 24 19 18 15 14 14 13 15 19 18 19 18 20 20 17 18 17 11

GFSSW_700_rhum_126.txt.gz
RH
44 40 53 53 70 76 78 72 76 68 66 56 59 71 56 70 94 100 98 86 75 52 22 13 12 11 11 11 12 12 14 20 12 12 11 12 16 22 25 29 27 29 30 28 25
25 21 34 59 82 76 78 80 74 78 74 55 59 72 72 77 100 93 100 94 79 62 29 15 13 12 12 12 13 13 15 15 13 12 13 15 18 23 27 29 32 31 29 26 24
17 19 24 48 71 84 90 85 89 80 80 53 56 75 84 77 99 99 99 98 82 69 34 18 15 14 14 13 14 14 17 14 14 15 17 18 20 27 32 35 33 31 28 25 20
24 27 28 42 66 79 93 95 94 77 81 55 64 84 85 88 98 99 98 98 73 73 37 22 18 16 17 16 15 21 18 16 16 17 19 23 27 33 35 30 30 27 25 24 20
29 35 44 61 59 83 96 98 92 79 72 71 65 92 86 89 93 99 99 90 83 74 38 23 21 20 19 18 19 26 19 18 19 21 24 27 32 33 33 32 28 23 19 17 10
30 40 58 75 61 94 97 98 94 97 96 96 96 90 84 70 70 97 100 99 94 69 36 26 26 22 21 22 23 23 20 20 21 25 29 32 34 35 30 28 25 14 9 7 6
34 45 72 68 66 95 97 96 97 98 98 97 93 90 94 96 96 96 94 98 87 57 30 28 29 29 26 22 27 21 23 22 24 30 34 32 34 30 28 26 15 8 6 5 4
51 46 69 68 70 89 88 69 80 90 96 94 92 95 98 99 89 96 98 97 65 38 28 31 32 32 29 29 28 24 26 29 34 34 33 32 28 27 24 16 9 6 5 4 4
52 51 58 71 68 69 80 64 74 93 93 94 98 97 99 92 90 81 97 96 57 42 38 33 44 38 34 28 27 34 37 34 35 34 31 28 24 23 22 17 10 6 5 4 4
32 39 47 64 59 60 73 67 62 77 77 85 90 97 100 98 88 97 95 98 77 55 58 55 48 40 36 31 42 40 34 30 30 29 28 26 21 18 14 10 7 6 4 4 4
46 39 52 60 64 65 62 67 56 65 71 94 96 98 100 99 98 96 98 99 77 64 50 62 44 51 44 34 25 24 26 26 27 26 27 24 21 14 8 7 6 4 4 5 7
63 60 56 62 62 59 58 53 59 81 97 99 98 96 98 93 89 96 98 91 65 50 41 40 36 38 33 29 25 27 24 27 22 18 18 16 13 10 9 6 5 5 5 7 10
66 67 64 63 67 76 70 67 82 81 95 96 97 99 98 98 99 93 78 85 58 40 34 36 38 35 26 20 19 24 20 20 17 14 13 11 10 7 6 6 4 5 8 10 13
60 63 71 64 62 61 65 73 80 79 91 96 95 98 98 100 98 88 67 59 48 42 38 34 32 30 25 22 21 18 19 18 17 14 31 11 29 7 5 5 6 9 12 14 17
70 69 69 71 69 59 59 63 69 64 84 95 97 97 96 93 95 85 57 47 43 44 41 44 44 42 35 28 24 23 20 17 14 12 13 15 21 20 10 11 13 15 17 18 18
73 76 79 77 74 66 57 64 67 70 93 96 99 100 98 84 74 67 57 48 47 45 42 41 38 34 31 28 24 22 17 15 16 18 45 23 31 21 18 17 17 17 17 17 26
68 69 71 70 62 64 64 62 68 93 95 97 98 93 98 90 64 57 53 50 47 48 44 43 38 33 28 25 21 18 20 50 66 56 51 38 47 19 20 21 19 21 26 32 34
49 62 68 66 67 66 61 62 90 99 97 96 97 95 80 72 61 51 45 42 41 38 39 39 54 36 32 27 28 24 25 55 81 42 49 42 57 37 19 19 22 25 33 36 35
32 48 60 58 55 54 57 67 95 90 90 90 87 86 82 79 65 50 44 42 43 37 33 39 55 42 36 30 30 29 29 34 33 45 57 41 22 18 25 22 26 30 32 22 15
43 32 44 54 52 54 52 67 72 72 75 78 86 79 87 74 71 60 62 40 37 36 34 37 64 57 43 38 40 36 37 47 36 60 44 43 37 29 24 29 31 39 24 23 22
36 40 40 34 51 55 62 78 84 80 74 72 64 66 63 62 66 62 62 48 36 40 40 42 40 68 55 44 45 40 44 41 42 54 49 34 25 18 19 36 36 35 36 32 14
22 27 35 42 33 40 62 77 79 83 82 80 71 68 62 52 48 50 54 52 40 40 42 38 43 85 63 48 45 43 42 44 49 62 65 62 32 13 13 24 45 45 30 20 17
15 21 23 20 31 44 46 46 49 53 58 63 62 54 53 49 48 45 47 47 45 49 49 47 46 78 60 59 53 50 41 42 46 47 66 41 23 13 15 20 22 22 22 22 19
11 16 16 17 16 18 23 39 48 51 50 54 62 64 63 66 62 55 44 49 56 57 57 53 46 46 41 49 46 46 41 46 60 70 55 43 26 18 19 22 22 22 20 16 13
11 12 13 15 15 15 16 14 17 22 28 32 35 36 39 47 56 58 57 61 59 60 58 55 45 44 43 40 38 38 39 39 45 42 50 35 14 12 21 20 17 16 13 12 11
12 13 13 13 14 17 17 17 18 17 16 18 17 16 20 22 22 28 32 42 41 43 42 36 28 23 18 17 17 15 17 20 22 26 26 17 11 22 24 18 15 15 17 16 16
18 12 12 14 14 15 16 17 18 19 19 19 19 19 19 19 19 18 18 19 19 23 27 30 27 22 24 23 22 23 13 15 14 14 16 20 20 25 18 15 17 16 16 16 17